[[[{"header":{"parameterUnit":"kt","parameterCategory":2,"dx":1,"dy":1,"la1":29.587661999999998,"la2":31.0,"lo1":-88.76705300000003,"lo2":-86.6583820000003,"nx":115,"ny":88,"refTime":"2022-10-01T06:00:00:Z","depth":0,"parameterNumber":1,"parameterNumberName":"U-component_of_WINDS"},"data":[13.1537,13.1537,13.1537,13.1537,13.1642,13.1848,13.2662,13.3786,13.3465,13.4132,13.5413,13.5674,13.5674,13.5674,13.5747,13.5783,13.5526,13.5711,13.5892,13.582,13.6175,13.6417,13.6068,13.499,13.53,13.5783,13.6244,13.6718,13.655,13.6616,13.6312,13.526,13.4385,13.3996,13.3538,13.3056,13.2587,13.301,13.32,13.32,13.3033,13.2866,13.2658,13.2792,13.3078,13.3357,13.3998,13.5231,13.5985,13.6458,13.6623,13.6996,13.7108,13.7071,13.7058,13.7184,13.743,13.7225,13.7242,13.6961,13.6624,13.5856,13.4749,13.374,13.2917,13.1571,13.03,12.9515,12.9228,12.9452,12.8618,12.8244,12.8094,12.8094,12.8057,12.8094,12.8094,12.8045,12.8045,12.7994,12.7855,12.7622,12.7385,12.6909,12.6377,12.5235,12.4224,12.3639,12.3097,12.2676,12.218,12.2119,12.2083,12.2119,12.2083,12.1762,12.1727,12.1941,12.1727,12.0942,12.0014,11.8801,11.7874,11.7196,11.6197,11.5055,11.4163,11.3664,11.3343,11.2879,11.2808,11.2736,11.2879,11.2912,11.3533,13.1537,13.1537,13.1537,13.1537,13.1642,13.2407,13.2948,13.3283,13.391,13.475,13.5674,13.5747,13.5674,13.5964,13.6349,13.6484,13.655,13.6417,13.6484,13.6417,13.6105,13.5964,13.53,13.4468,13.4794,13.5376,13.6138,13.6484,13.6782,13.655,13.5998,13.4713,13.4168,13.377,13.283,13.2452,13.2684,13.301,13.32,13.32,13.302,13.2709,13.2632,13.2517,13.2517,13.2866,13.3619,13.4434,13.5231,13.5942,13.6885,13.7258,13.7373,13.7411,13.7467,13.7523,13.7671,13.7708,13.7762,13.7778,13.7628,13.7217,13.6058,13.5235,13.4824,13.3553,13.1945,13.1085,13.0574,13.0088,12.8879,12.8206,12.8082,12.8045,12.8094,12.8057,12.8057,12.8094,12.8057,12.8057,12.7818,12.7531,12.7236,12.6849,12.5943,12.474,12.3918,12.3311,12.2768,12.2431,12.218,12.218,12.2083,12.2119,12.2119,12.1976,12.1941,12.2119,12.2083,12.2012,12.1548,12.0335,11.9336,11.8623,11.766,11.6554,11.5626,11.4556,11.3699,11.3129,11.295,11.2736,11.2843,11.3145,11.4052,13.1537,13.1677,13.2182,13.2081,13.1914,13.3099,13.3734,13.3786,13.4132,13.5068,13.6212,13.6349,13.6312,13.6484,13.6653,13.6782,13.6782,13.6883,13.6718,13.6281,13.582,13.545,13.4587,13.3734,13.4132,13.455,13.5263,13.6031,13.6616,13.638,13.5674,13.4587,13.3822,13.3356,13.2612,13.2551,13.2782,13.307,13.32,13.32,13.3164,13.2997,13.29,13.2791,13.2691,13.2854,13.3447,13.395,13.4574,13.5267,13.6532,13.7029,13.7579,13.7671,13.7725,13.7778,13.7778,13.7815,13.7815,13.7815,13.7778,13.7666,13.6955,13.6095,13.5721,13.584,13.4271,13.3254,13.2744,13.1065,12.9855,12.9139,12.9027,12.8198,12.7974,12.7877,12.7818,12.7818,12.778,12.778,12.7585,12.7236,12.6751,12.634,12.5417,12.4251,12.356,12.2932,12.2712,12.2372,12.2372,12.2276,12.218,12.2083,12.2119,12.2119,12.2119,12.2119,12.2119,12.2048,12.1941,12.1263,12.0656,11.9729,11.8801,11.7874,11.6675,11.5427,11.4591,11.3878,11.3343,11.2808,11.2843,11.3093,11.45,13.1781,13.198,13.2662,13.2602,13.2146,13.3873,13.455,13.4301,13.4713,13.5674,13.6718,13.6819,13.6782,13.6718,13.6819,13.6883,13.6883,13.6819,13.6484,13.6212,13.5747,13.5337,13.4301,13.3556,13.3645,13.4046,13.455,13.53,13.6312,13.6035,13.526,13.4421,13.377,13.3171,13.2551,13.2587,13.2914,13.3106,13.32,13.32,13.3164,13.3046,13.2986,13.3044,13.2946,13.2938,13.3222,13.3628,13.391,13.4385,13.5563,13.6532,13.7467,13.7708,13.7815,13.7815,13.7815,13.7815,13.7815,13.7815,13.7815,13.7778,13.7628,13.6955,13.6737,13.7187,13.6926,13.5931,13.4607,13.2768,13.1295,13.0699,13.0083,12.8855,12.7828,12.7608,12.7477,12.744,12.744,12.7292,12.7179,12.6751,12.6173,12.5488,12.4625,12.3918,12.3366,12.3004,12.2819,12.2654,12.2654,12.2466,12.2276,12.2083,12.2083,12.2119,12.2119,12.2119,12.2119,12.2119,12.2083,12.1762,12.1405,12.0621,12.0014,11.9336,11.8207,11.6817,11.5676,11.475,11.4235,11.3521,11.3378,11.3057,11.477,13.2081,13.2758,13.2948,13.2853,13.3099,13.4713,13.5068,13.455,13.5927,13.6681,13.6782,13.6883,13.6883,13.6883,13.6883,13.6883,13.6883,13.6846,13.6616,13.6718,13.5964,13.5146,13.4301,13.3429,13.3519,13.396,13.4514,13.5036,13.6138,13.5964,13.5183,13.4705,13.377,13.3114,13.2746,13.2782,13.2914,13.3106,13.32,13.32,13.3128,13.2925,13.2853,13.301,13.3106,13.2889,13.3128,13.3424,13.3574,13.4033,13.483,13.5488,13.6513,13.7274,13.7579,13.7687,13.7633,13.7725,13.7762,13.7815,13.7815,13.7725,13.7815,13.7334,13.6848,13.6885,13.6499,13.5651,13.5316,13.3775,13.224,13.1461,13.0307,12.9047,12.8123,12.7789,12.7518,12.7296,12.7074,12.6555,12.6441,12.641,12.5893,12.5742,12.4931,12.4182,12.3583,12.3421,12.3258,12.306,12.2932,12.2561,12.2466,12.2276,12.2216,12.2119,12.2119,12.2119,12.2119,12.2119,12.2119,12.2083,12.2048,12.1655,12.1191,12.0585,11.9978,11.9015,11.7874,11.6554,11.5269,11.4342,11.3628,11.32,11.4591,13.1812,13.2081,13.2217,13.2758,13.396,13.56,13.5927,13.5488,13.6349,13.6883,13.6883,13.6883,13.6883,13.6883,13.6883,13.6883,13.6883,13.6846,13.6616,13.6349,13.582,13.5146,13.4312,13.3463,13.3447,13.3516,13.4046,13.4811,13.4995,13.499,13.4787,13.4205,13.3392,13.2997,13.2842,13.2878,13.3106,13.3106,13.32,13.32,13.3092,13.2853,13.2889,13.3178,13.3995,13.3634,13.3453,13.5571,13.5377,13.5078,13.5626,13.6104,13.6431,13.6507,13.6532,13.7317,13.7355,13.7523,13.7671,13.7762,13.7523,13.7262,13.7113,13.6923,13.6512,13.6238,13.5854,13.5577,13.529,13.475,13.3339,13.1953,13.0669,12.9303,12.8684,12.8052,12.7574,12.7242,12.669,12.6027,12.5927,12.6004,12.5991,12.5642,12.5354,12.5092,12.4879,12.4429,12.3943,12.3763,12.3455,12.2984,12.2726,12.261,12.2312,12.2216,12.2251,12.2155,12.2119,12.2119,12.2119,12.2083,12.2083,12.2083,12.2119,12.1798,12.1227,12.0514,11.9586,11.8159,11.6768,11.5662,11.4643,11.4235,11.5106,13.2344,13.2344,13.2344,13.3135,13.4301,13.4995,13.5339,13.5488,13.6417,13.6883,13.6883,13.6883,13.6883,13.6883,13.6883,13.6883,13.6883,13.6819,13.6491,13.6281,13.6175,13.5488,13.4837,13.4239,13.3901,13.3998,13.4258,13.4738,13.519,13.5068,13.483,13.4033,13.3336,13.3033,13.2974,13.307,13.3106,13.32,13.32,13.3164,13.302,13.2781,13.3394,13.3791,13.4572,13.5101,13.5042,13.6727,13.6944,13.6366,13.6712,13.723,13.7267,13.69,13.689,13.7504,13.7368,13.7269,13.7448,13.7671,13.7523,13.6954,13.6188,13.5757,13.5342,13.519,13.5304,13.5415,13.541,13.4864,13.3754,13.2973,13.2035,13.0798,12.9758,12.8608,12.7191,12.7087,12.7392,12.6876,12.6856,12.6971,12.7278,12.7019,12.6932,12.6646,12.6106,12.5312,12.4717,12.4537,12.4177,12.3474,12.3184,12.3393,12.3098,12.2908,12.2537,12.219,12.2155,12.2119,12.219,12.2226,12.2155,12.2119,12.2119,12.2119,12.2119,12.1477,12.0514,11.9229,11.8409,11.6995,11.5926,11.5783,11.6354,13.4217,13.4217,13.4253,13.4132,13.4046,13.3042,13.3155,13.4587,13.6175,13.7032,13.7069,13.7292,13.7477,13.718,13.7106,13.7292,13.744,13.7366,13.7163,13.7015,13.7061,13.6355,13.5894,13.5416,13.5231,13.5229,13.5119,13.5376,13.6897,13.6207,13.5526,13.491,13.3483,13.3128,13.3106,13.3106,13.32,13.325,13.3322,13.3466,13.3575,13.3286,13.4139,13.4921,13.5595,13.627,13.6919,13.7894,13.8075,13.792,13.7883,13.8381,13.8747,13.907,13.9484,13.9558,13.9059,13.7972,13.7355,13.7333,13.7081,13.6639,13.5489,13.4684,13.4385,13.4385,13.455,13.4837,13.4916,13.4449,13.4348,13.3804,13.3341,13.239,13.1164,12.957,12.7795,12.746,12.7896,12.7776,12.7845,12.8178,12.8524,12.8543,12.8453,12.8218,12.782,12.6972,12.6791,12.6467,12.479,12.4087,12.4086,12.419,12.4075,12.3922,12.3504,12.2251,12.2216,12.2725,12.2404,12.244,12.2725,12.2797,12.2404,12.2119,12.2119,12.1727,12.1227,12.0942,12.03,11.9206,11.911,11.8576,11.848,13.3935,13.3419,13.3445,13.3465,13.3465,13.4046,13.455,13.5521,13.7496,13.9149,13.9928,14.0077,14.0067,14.003,14.0179,14.0151,14.0114,14.0077,13.9891,13.8517,13.8607,13.7923,13.6968,13.6188,13.6365,13.5942,13.5689,13.5683,13.6634,13.6372,13.589,13.5031,13.3843,13.3316,13.3142,13.3273,13.3309,13.3539,13.4164,13.438,13.4464,13.4951,13.5656,13.6562,13.7301,13.7832,13.8436,13.9411,14.0566,13.9736,13.9447,13.9643,13.9415,13.9004,13.8438,13.8765,13.8759,13.866,13.7478,13.7268,13.67,13.6516,13.5197,13.4192,13.3664,13.3846,13.404,13.4201,13.3895,13.4136,13.4916,13.5041,13.4695,13.4442,13.3078,13.1488,13.0098,12.9628,12.9771,12.9011,12.885,12.9537,13.0023,13.0023,13.0023,12.977,12.9517,12.9481,12.9373,12.7333,12.5492,12.5258,12.5312,12.4949,12.4821,12.4958,12.4065,12.2586,12.3062,12.3991,12.3608,12.2858,12.3368,12.376,12.2797,12.2119,12.2119,12.2155,12.1941,12.1762,12.1762,12.2057,12.2217,12.2138,12.1986,13.4222,13.3485,13.3424,13.3573,13.4024,13.5986,13.7031,13.759,13.9055,14.0621,14.1756,14.199,14.2017,14.2054,14.1841,14.1793,14.1868,14.1979,14.1756,14.038,14.0468,13.9686,13.904,13.8332,13.7602,13.7269,13.63,13.6124,13.6634,13.6365,13.5957,13.5378,13.4505,13.3664,13.3331,13.3814,13.3959,13.4152,13.5076,13.5814,13.5814,13.6421,13.7141,13.8015,13.8967,13.9464,13.9952,14.1252,14.1794,14.1216,14.1072,14.1208,14.0927,14.0639,13.9781,13.9837,13.9147,13.9388,13.8839,13.7339,13.643,13.5918,13.5296,13.4589,13.4147,13.3959,13.4356,13.4812,13.5399,13.563,13.5981,13.6233,13.6233,13.5981,13.5078,13.3489,13.2334,13.1901,13.1323,13.0565,13.0565,13.1323,13.1648,13.1648,13.1612,13.1431,13.1395,13.1359,13.0528,12.8434,12.7062,12.6936,12.6664,12.5997,12.5689,12.6259,12.5748,12.416,12.4172,12.4864,12.4303,12.3384,12.3501,12.3546,12.2797,12.2119,12.2119,12.2155,12.2297,12.2868,12.3296,12.359,12.3847,12.4232,12.4339,13.5079,13.4371,13.4374,13.4804,13.5839,13.8178,13.9655,14.0172,14.0726,14.1605,14.2639,14.2775,14.2738,14.2798,14.3136,14.316,14.3123,14.2937,14.2564,14.2415,14.2364,14.2178,14.1492,14.0672,13.9873,13.9457,13.8197,13.7401,13.7915,13.7155,13.6127,13.5563,13.5187,13.4578,13.3475,13.4753,13.5511,13.5667,13.6842,13.7194,13.7209,13.7533,13.8427,13.9317,14.0054,14.0971,14.1433,14.2444,14.248,14.2227,14.2227,14.2227,14.2263,14.2083,14.2047,14.2011,14.1017,14.0764,14.1171,13.9122,13.7655,13.6701,13.6289,13.5702,13.5511,13.5656,13.5908,13.6558,13.71,13.7425,13.7858,13.793,13.793,13.7606,13.6739,13.5511,13.432,13.3561,13.2875,13.2153,13.2659,13.3092,13.3092,13.3056,13.2948,13.2948,13.3092,13.2514,13.1395,13.0095,12.9229,12.8992,12.892,12.8071,12.7313,12.7798,12.736,12.5698,12.4972,12.5271,12.4925,12.5018,12.442,12.3082,12.3189,12.3796,12.3118,12.2333,12.3403,12.4438,12.483,12.5508,12.558,12.5722,12.5437,13.516,13.448,13.5467,13.711,13.9068,14.0505,14.1234,14.1702,14.2772,14.4211,14.5617,14.5644,14.5693,14.5731,14.5644,14.5532,14.5444,14.5407,14.4861,14.4475,14.4013,14.3438,14.2691,14.2152,14.1948,14.1593,14.0096,13.8994,13.9348,13.8046,13.6995,13.6038,13.5489,13.5464,13.5223,13.627,13.7136,13.7435,13.8218,13.8674,13.8857,13.9389,14.0502,14.0815,14.1339,14.2047,14.2408,14.2661,14.2661,14.2661,14.2661,14.2661,14.2661,14.2661,14.2624,14.248,14.2183,14.1533,14.118,14.0602,14.053,13.8761,13.7858,13.7208,13.71,13.71,13.7353,13.8075,13.8111,13.8328,13.9555,13.9591,13.9555,13.9447,13.8544,13.7642,13.645,13.4789,13.4175,13.3561,13.3237,13.3164,13.3164,13.3128,13.3056,13.3092,13.32,13.2767,13.1973,13.1467,13.089,13.0781,13.0781,12.9786,12.8848,12.89,12.8735,12.718,12.6619,12.6596,12.6382,12.7933,12.77,12.5786,12.508,12.5401,12.5151,12.4509,12.508,12.6008,12.7078,12.8041,12.8113,12.8113,12.7435,13.5673,13.5914,13.7512,13.9448,14.1685,14.3179,14.3885,14.4099,14.5083,14.6264,14.7235,14.7304,14.7356,14.7318,14.7356,14.7356,14.7393,14.7356,14.6759,14.6221,14.5923,14.5421,14.4694,14.4228,14.376,14.3424,14.2152,14.1143,14.047,13.9369,13.805,13.7657,13.7663,13.7062,13.6712,13.7244,13.8147,13.8807,13.9736,14.043,14.0612,14.1362,14.165,14.2054,14.2299,14.2516,14.2624,14.2624,14.2661,14.2661,14.2661,14.2661,14.2661,14.2661,14.2661,14.2588,14.2588,14.2119,14.1686,14.1938,14.2227,14.0964,13.9871,13.8859,13.8761,13.8761,13.8941,13.9483,13.9952,14.0314,14.1108,14.118,14.1072,14.1036,14.0494,13.9628,13.8183,13.6161,13.5114,13.45,13.4031,13.3381,13.3273,13.3237,13.32,13.32,13.32,13.3128,13.2803,13.237,13.2117,13.1973,13.2009,13.1229,13.0941,13.0508,13.0075,12.9297,12.8591,12.7468,12.6417,12.8308,12.9402,12.8351,12.7286,12.6793,12.6507,12.6436,12.6793,12.7506,12.8648,12.9825,13.0432,13.0717,12.9504,13.675,13.8579,14.0115,14.1908,14.368,14.5982,14.687,14.6662,14.6985,14.7258,14.749,14.7646,14.7666,14.7723,14.7629,14.7629,14.7723,14.7723,14.7517,14.7517,14.7686,14.7312,14.6826,14.5966,14.5368,14.5143,14.3797,14.2227,14.1143,14.118,14.0778,14.0394,13.9544,13.9084,13.8728,13.8425,13.9086,14.0394,14.1171,14.1756,14.1866,14.201,14.201,14.2241,14.248,14.2661,14.2661,14.2661,14.2661,14.2661,14.2661,14.2661,14.2661,14.2661,14.2661,14.2661,14.2661,14.2552,14.2336,14.248,14.2588,14.2227,14.1397,14.0458,14.0422,14.0458,14.1072,14.1938,14.1686,14.2155,14.2299,14.2588,14.2263,14.2011,14.1433,14.0819,13.988,13.7822,13.645,13.5583,13.4681,13.3814,13.3525,13.3273,13.32,13.32,13.32,13.32,13.302,13.2948,13.2839,13.2839,13.2912,13.2875,13.2695,13.237,13.1482,13.0833,13.0508,12.9095,12.7612,12.7985,12.9527,12.8972,12.9101,12.8178,12.7542,12.8255,12.8862,12.9219,12.954,13.0075,13.0681,13.1181,13.0503,13.8438,14.2682,14.3119,14.4398,14.6123,14.6665,14.7083,14.7134,14.7332,14.7468,14.7528,14.7666,14.7723,14.7723,14.7723,14.7723,14.7723,14.7723,14.7723,14.7723,14.7723,14.7723,14.7536,14.7462,14.6976,14.7088,14.533,14.4396,14.3947,14.3779,14.2946,14.1399,14.1132,14.0564,14.0348,14.0187,14.035,14.1794,14.2102,14.2254,14.2293,14.2254,14.2246,14.2379,14.2516,14.2661,14.2661,14.2661,14.2661,14.2661,14.2661,14.2661,14.2661,14.2661,14.2661,14.2661,14.2661,14.2661,14.2661,14.2661,14.2661,14.2516,14.2155,14.183,14.1902,14.2083,14.2444,14.2588,14.2661,14.2661,14.2661,14.2661,14.2661,14.2444,14.2191,14.2155,14.1686,13.9916,13.8472,13.7172,13.58,13.4717,13.3814,13.3453,13.3309,13.3273,13.32,13.32,13.3164,13.3128,13.3092,13.3056,13.3092,13.3056,13.302,13.302,13.2839,13.2312,13.2276,13.1532,13.0752,13.0634,13.0476,13.0783,13.1127,13.0561,13.0066,13.0535,13.1002,13.0824,13.082,13.086,13.086,13.1252,13.1002,14.0707,14.4406,14.4406,14.5466,14.7072,14.7183,14.7271,14.7393,14.755,14.7608,14.7646,14.7666,14.7723,14.7723,14.7723,14.7723,14.7723,14.7723,14.7723,14.7723,14.7723,14.7723,14.7723,14.7723,14.7723,14.7387,14.6826,14.619,14.6303,14.6096,14.5565,14.3865,14.2979,14.2534,14.2277,14.1708,14.1966,14.2372,14.2559,14.2426,14.2426,14.2349,14.2372,14.2444,14.2552,14.2624,14.2661,14.2661,14.2661,14.2661,14.2661,14.2661,14.2661,14.2661,14.2661,14.2661,14.2661,14.2661,14.2661,14.2661,14.2661,14.2624,14.2624,14.2661,14.2661,14.2588,14.2588,14.2661,14.2661,14.2661,14.2661,14.2661,14.2661,14.2624,14.2516,14.248,14.2155,14.1036,13.9989,13.8508,13.7028,13.5728,13.4645,13.4392,13.4284,13.3814,13.3273,13.3237,13.32,13.32,13.32,13.3237,13.3273,13.3381,13.3525,13.3959,13.3923,13.2984,13.2984,13.3611,13.3155,13.2566,13.2109,13.2165,13.2225,13.2517,13.2845,13.2635,13.2138,13.207,13.2141,13.1677,13.1216,13.1537,13.1359,14.3439,14.487,14.4907,14.588,14.7356,14.7505,14.7587,14.7704,14.7723,14.7723,14.7723,14.7723,14.7723,14.7723,14.7723,14.7723,14.7723,14.7723,14.7723,14.7723,14.7723,14.7723,14.7723,14.7723,14.7723,14.7611,14.7574,14.7723,14.7462,14.7462,14.7057,14.6227,14.527,14.4783,14.3764,14.2808,14.2725,14.2624,14.2661,14.2661,14.2624,14.2516,14.2516,14.2588,14.2624,14.2661,14.2661,14.2661,14.2661,14.2661,14.2661,14.2661,14.2661,14.2661,14.2661,14.2661,14.2661,14.2661,14.2661,14.2661,14.2661,14.2661,14.2661,14.2661,14.2661,14.2661,14.2661,14.2661,14.2661,14.2661,14.2661,14.2661,14.2661,14.2661,14.2661,14.2661,14.2516,14.1577,14.0819,13.9447,13.8544,13.7136,13.6089,13.5692,13.5114,13.4103,13.3309,13.3237,13.32,13.32,13.32,13.3381,13.3453,13.3959,13.4248,13.5186,13.4753,13.3237,13.4067,13.5186,13.4549,13.3876,13.343,13.3332,13.2891,13.3013,13.3975,13.4053,13.3243,13.3064,13.296,13.2531,13.1856,13.1537,13.1537,14.621,14.647,14.6561,14.6973,14.749,14.7565,14.7587,14.7723,14.7723,14.7723,14.7723,14.7723,14.7723,14.7723,14.7723,14.7723,14.7723,14.7723,14.7723,14.7723,14.7723,14.7723,14.7723,14.7723,14.7723,14.7723,14.7723,14.7723,14.7723,14.7723,14.7629,14.6997,14.5825,14.5056,14.4561,14.3361,14.2789,14.2661,14.2661,14.2661,14.2661,14.2624,14.2624,14.2661,14.2661,14.2661,14.2661,14.2661,14.2661,14.2661,14.2661,14.2661,14.2661,14.2661,14.2661,14.2661,14.2661,14.2661,14.2661,14.2661,14.2661,14.2661,14.2661,14.2661,14.2661,14.2661,14.2661,14.2661,14.2661,14.2661,14.2661,14.2661,14.2661,14.2661,14.2661,14.2624,14.248,14.2191,14.1433,14.0783,13.9989,13.9122,13.8472,13.7894,13.6161,13.5078,13.3995,13.385,13.32,13.32,13.3273,13.3489,13.3923,13.4464,13.5439,13.6378,13.6161,13.5078,13.5872,13.6631,13.5956,13.5234,13.521,13.505,13.4672,13.4679,13.5319,13.5649,13.5128,13.4599,13.4133,13.3421,13.2391,13.193,13.168,14.7146,14.7246,14.7308,14.743,14.7646,14.7646,14.7666,14.7723,14.7723,14.7723,14.7723,14.7723,14.7723,14.7723,14.7723,14.7723,14.7723,14.7723,14.7723,14.7723,14.7723,14.7723,14.7723,14.7723,14.7723,14.7723,14.7723,14.7723,14.7723,14.7723,14.7723,14.7318,14.6042,14.5178,14.4811,14.355,14.2825,14.2661,14.2661,14.2661,14.2661,14.2661,14.2661,14.2661,14.2661,14.2661,14.2661,14.2661,14.2661,14.2661,14.2661,14.2661,14.2661,14.2661,14.2661,14.2661,14.2661,14.2661,14.2661,14.2661,14.2661,14.2661,14.2661,14.2661,14.2661,14.2661,14.2661,14.2661,14.2661,14.2661,14.2661,14.2661,14.2661,14.2661,14.2661,14.2661,14.2624,14.2624,14.2227,14.1686,14.118,14.0783,14.0386,13.9014,13.7317,13.5981,13.4861,13.4067,13.3273,13.32,13.32,13.3634,13.432,13.5259,13.6667,13.7858,13.8328,13.7678,13.7894,13.8075,13.7714,13.6858,13.675,13.7012,13.695,13.685,13.7246,13.7254,13.705,13.6633,13.5419,13.4137,13.3034,13.2144,13.1752,14.7332,14.7565,14.7565,14.7646,14.7723,14.7723,14.7723,14.7723,14.7723,14.7723,14.7723,14.7723,14.7723,14.7723,14.7723,14.7723,14.7723,14.7723,14.7723,14.7723,14.7723,14.7723,14.7723,14.7723,14.7723,14.7723,14.7723,14.7723,14.7723,14.7723,14.7723,14.7378,14.6042,14.5257,14.4811,14.3643,14.2661,14.2661,14.2661,14.2661,14.2661,14.2661,14.2661,14.2661,14.2661,14.2661,14.2661,14.2661,14.2661,14.2661,14.2661,14.2661,14.2661,14.2661,14.2661,14.2661,14.2661,14.2661,14.2661,14.2661,14.2661,14.2661,14.2661,14.2661,14.2661,14.2661,14.2661,14.2661,14.2661,14.2661,14.2661,14.2661,14.2661,14.2661,14.2661,14.2661,14.2661,14.2661,14.2516,14.2336,14.2372,14.2155,14.1252,14.0097,13.8833,13.7786,13.6089,13.4609,13.3959,13.3742,13.3381,13.3778,13.4609,13.6161,13.7678,13.8978,14.035,13.97,13.97,13.9916,13.9591,13.8761,13.8653,13.9203,13.942,13.9104,13.8787,13.8578,13.8375,13.8097,13.6633,13.5064,13.3996,13.3,13.2429,14.7505,14.7528,14.7646,14.7723,14.7723,14.7723,14.7723,14.7723,14.7723,14.7723,14.7723,14.7723,14.7723,14.7723,14.7723,14.7723,14.7723,14.7723,14.7723,14.7723,14.7723,14.7723,14.7723,14.7723,14.7723,14.7723,14.7723,14.7723,14.7723,14.7723,14.7723,14.7416,14.6079,14.5294,14.4893,14.3607,14.2661,14.2661,14.2661,14.2661,14.2661,14.2661,14.2661,14.2661,14.2661,14.2661,14.2661,14.2661,14.2661,14.2661,14.2661,14.2661,14.2661,14.2661,14.2661,14.2661,14.2661,14.2661,14.2661,14.2661,14.2661,14.2661,14.2661,14.2661,14.2661,14.2661,14.2661,14.2661,14.2661,14.2661,14.2661,14.2761,14.2761,14.2761,14.2661,14.2661,14.2661,14.2661,14.2761,14.2761,14.2789,14.2753,14.2003,14.1388,14.0557,13.9375,13.7028,13.5295,13.4861,13.4392,13.3598,13.3598,13.5078,13.6595,13.7967,13.9339,14.1469,14.1505,14.1758,14.183,14.1758,14.0819,14.0241,14.1108,14.1361,14.1288,14.0935,14.0366,13.9802,13.9314,13.8244,13.671,13.5318,13.3892,13.2929,14.7646,14.7646,14.7723,14.7723,14.7723,14.7723,14.7723,14.7723,14.7723,14.7723,14.7723,14.7723,14.7723,14.7723,14.7723,14.7723,14.7723,14.7723,14.7723,14.7723,14.7723,14.7723,14.7723,14.7723,14.7723,14.7723,14.7723,14.7723,14.7723,14.7723,14.7723,14.7571,14.6042,14.5335,14.4975,14.3513,14.2825,14.2624,14.2661,14.2661,14.2661,14.2661,14.2661,14.2661,14.2661,14.2661,14.2661,14.2661,14.2661,14.2661,14.2661,14.2661,14.2661,14.2661,14.2661,14.2661,14.2661,14.2661,14.2661,14.2661,14.2661,14.2661,14.2661,14.2661,14.2661,14.2661,14.2661,14.2661,14.2661,14.2761,14.2861,14.2861,14.2925,14.306,14.2961,14.2861,14.2898,14.306,14.306,14.306,14.3023,14.306,14.2987,14.2454,14.155,13.9426,13.7148,13.5945,13.5511,13.4211,13.3489,13.3923,13.5475,13.6956,13.8292,14.0025,14.2119,14.2661,14.2661,14.2661,14.2661,14.2191,14.1722,14.1902,14.2083,14.2227,14.2155,14.2047,14.1375,14.0671,13.9607,13.8427,13.6926,13.5355,13.3963,14.7723,14.7723,14.7723,14.7723,14.7723,14.7723,14.7723,14.7723,14.7723,14.7723,14.7723,14.7723,14.7723,14.7723,14.7723,14.7723,14.7723,14.7723,14.7723,14.7723,14.7723,14.7723,14.7723,14.7723,14.7723,14.7723,14.7723,14.7723,14.7723,14.7723,14.7723,14.7534,14.629,14.5412,14.5019,14.3754,14.2852,14.2624,14.2661,14.2661,14.2661,14.2661,14.2661,14.2661,14.2661,14.2661,14.2661,14.2661,14.2661,14.2661,14.2661,14.2661,14.2661,14.2661,14.2661,14.2661,14.2661,14.2761,14.2725,14.2789,14.2789,14.2861,14.2898,14.2898,14.2861,14.2861,14.2861,14.2861,14.2861,14.2961,14.3096,14.3194,14.3255,14.3255,14.3255,14.3219,14.3434,14.3623,14.3679,14.3623,14.3565,14.3484,14.3352,14.311,14.1781,13.9498,13.7931,13.6859,13.5462,13.4053,13.3945,13.4211,13.5764,13.7353,13.8725,14.0314,14.1902,14.2661,14.2661,14.2661,14.2661,14.2372,14.2227,14.2408,14.2661,14.2624,14.248,14.2372,14.2162,14.1639,14.0789,13.9608,13.8178,13.6604,13.5176,14.7723,14.7723,14.7723,14.7723,14.7723,14.7723,14.7723,14.7723,14.7723,14.7723,14.7723,14.7723,14.7723,14.7723,14.7723,14.7723,14.7723,14.7723,14.7723,14.7723,14.7723,14.7723,14.7723,14.7723,14.7723,14.7723,14.7723,14.7723,14.7723,14.7723,14.7723,14.7475,14.673,14.5896,14.5099,14.4217,14.342,14.2789,14.2661,14.2661,14.2661,14.2661,14.2661,14.2661,14.2661,14.2661,14.2661,14.2661,14.2661,14.2661,14.2661,14.2661,14.2661,14.2661,14.2661,14.2661,14.2661,14.2797,14.2961,14.3013,14.311,14.3255,14.3303,14.3303,14.3291,14.3291,14.3291,14.3255,14.3388,14.3352,14.3388,14.3388,14.3484,14.3543,14.3507,14.3827,14.4304,14.4488,14.4281,14.4281,14.3827,14.3507,14.3484,14.3303,14.2685,13.989,13.9049,13.794,13.6542,13.5326,13.5087,13.5173,13.627,13.7786,13.9158,14.0602,14.183,14.2661,14.2661,14.2661,14.2661,14.2661,14.2661,14.2661,14.2661,14.2661,14.2661,14.2661,14.2487,14.1999,14.1646,14.0575,13.9394,13.7891,13.6675,14.7723,14.7723,14.7723,14.7723,14.7723,14.7723,14.7723,14.7723,14.7723,14.7723,14.7723,14.7723,14.7723,14.7723,14.7723,14.7723,14.7723,14.7723,14.7723,14.7723,14.7723,14.7723,14.7723,14.7723,14.7723,14.7723,14.7723,14.7723,14.7723,14.7723,14.7723,14.7571,14.6795,14.6005,14.5178,14.4268,14.3477,14.2789,14.2661,14.2661,14.2661,14.2661,14.2661,14.2661,14.2661,14.2661,14.2661,14.2661,14.2661,14.2661,14.2661,14.2661,14.2661,14.2661,14.2661,14.2661,14.2805,14.297,14.3096,14.3194,14.3388,14.3388,14.3424,14.3424,14.3484,14.3484,14.3484,14.3484,14.3484,14.3484,14.3484,14.3579,14.3768,14.3973,14.4671,14.5136,14.5056,14.5375,14.5566,14.549,14.5298,14.4975,14.4549,14.4378,14.2821,14.0731,13.9656,13.8909,13.7764,13.7034,13.6412,13.6534,13.7365,13.8111,13.9303,14.1036,14.2408,14.2624,14.2661,14.2661,14.2661,14.2661,14.2661,14.2661,14.2661,14.2661,14.2661,14.2661,14.2559,14.239,14.2323,14.1541,14.0612,13.9286,13.8247,14.7723,14.7723,14.7723,14.7723,14.7723,14.7723,14.7723,14.7723,14.7723,14.7723,14.7723,14.7723,14.7723,14.7723,14.7723,14.7723,14.7723,14.7723,14.7723,14.7723,14.7723,14.7723,14.7723,14.7723,14.7723,14.7723,14.7723,14.7723,14.7723,14.7723,14.7723,14.7723,14.706,14.629,14.5335,14.482,14.3953,14.2889,14.2889,14.2951,14.2725,14.2661,14.2661,14.2661,14.2661,14.2661,14.2661,14.2661,14.2661,14.2661,14.2661,14.2661,14.2661,14.2761,14.2761,14.2861,14.3069,14.3168,14.3291,14.3484,14.3579,14.3638,14.3674,14.3674,14.3674,14.3674,14.3674,14.3674,14.3674,14.3674,14.3732,14.4028,14.4261,14.461,14.5486,14.6146,14.6076,14.639,14.6656,14.6656,14.642,14.5861,14.5224,14.446,14.2801,14.0359,13.9675,13.9675,13.8348,13.751,13.7904,13.799,13.8306,13.8823,13.9591,14.1397,14.248,14.2624,14.2661,14.2661,14.2661,14.2661,14.2661,14.2661,14.2661,14.2661,14.2661,14.2661,14.2595,14.2529,14.2323,14.2182,14.1327,14.0611,13.9608,14.7723,14.7723,14.7723,14.7723,14.7723,14.7723,14.7723,14.7723,14.7723,14.7723,14.7723,14.7723,14.7723,14.7723,14.7723,14.7723,14.7723,14.7723,14.7723,14.7723,14.7723,14.7723,14.7723,14.7723,14.7723,14.7723,14.7723,14.7723,14.7723,14.7723,14.7723,14.7723,14.7534,14.6832,14.5564,14.5896,14.4901,14.3146,14.342,14.3398,14.2906,14.2697,14.2661,14.2805,14.2697,14.2661,14.2661,14.2661,14.2661,14.2661,14.2661,14.2661,14.2761,14.2961,14.306,14.3096,14.3303,14.3586,14.3752,14.3991,14.4172,14.4334,14.4334,14.4228,14.437,14.4422,14.4422,14.4334,14.4334,14.4281,14.4386,14.4792,14.5136,14.5257,14.6005,14.6721,14.7266,14.7384,14.7442,14.7347,14.6785,14.6039,14.523,14.4007,14.2056,14.0035,13.9505,13.9583,13.8838,13.9093,13.9288,13.9679,14.0102,14.0196,13.9808,14.1505,14.2552,14.2661,14.2661,14.2661,14.2661,14.2661,14.2661,14.2661,14.2661,14.2661,14.2661,14.2661,14.2661,14.2595,14.2529,14.2323,14.197,14.14,14.0539,14.7723,14.7723,14.7723,14.7723,14.7723,14.7723,14.7723,14.7723,14.7723,14.7723,14.7723,14.7723,14.7723,14.7723,14.7723,14.7723,14.7723,14.7723,14.7723,14.7723,14.7723,14.7723,14.7723,14.7723,14.7723,14.7723,14.7723,14.7723,14.7723,14.7723,14.7723,14.7723,14.7723,14.6832,14.5412,14.5861,14.5141,14.3207,14.3513,14.3914,14.3965,14.3195,14.3195,14.3809,14.3195,14.2697,14.2661,14.2661,14.2661,14.2661,14.2661,14.2733,14.2978,14.3168,14.3328,14.3484,14.3936,14.4329,14.4513,14.5032,14.5467,14.5559,14.5562,14.5562,14.5562,14.5599,14.5599,14.5599,14.5486,14.5599,14.5562,14.5788,14.6146,14.6591,14.6948,14.7384,14.8005,14.8144,14.8144,14.8056,14.7789,14.6632,14.5165,14.3674,14.2128,13.9132,13.9593,14.0599,13.9818,14.0694,14.0875,14.103,14.143,14.1234,14.0738,14.1361,14.2516,14.2661,14.2661,14.2661,14.2661,14.2661,14.2661,14.2661,14.2661,14.2661,14.2661,14.2661,14.2661,14.2661,14.2595,14.2493,14.2287,14.1936,14.1006,14.7723,14.7723,14.7723,14.7723,14.7723,14.7723,14.7723,14.7723,14.7723,14.7723,14.7723,14.7723,14.7723,14.7723,14.7723,14.7723,14.7723,14.7723,14.7723,14.7723,14.7723,14.7723,14.7723,14.7723,14.7723,14.7723,14.7723,14.7723,14.7723,14.7723,14.7723,14.7723,14.7723,14.6934,14.5714,14.6322,14.5751,14.3791,14.3953,14.4334,14.448,14.3287,14.3166,14.4026,14.3303,14.2661,14.2661,14.2661,14.2661,14.2661,14.2661,14.2906,14.3349,14.3711,14.3973,14.4301,14.4975,14.5304,14.5375,14.5899,14.6257,14.6359,14.6295,14.6364,14.639,14.6285,14.6285,14.6353,14.6353,14.6353,14.642,14.6591,14.701,14.7758,14.7811,14.8005,14.8375,14.8467,14.8467,14.8467,14.8054,14.6805,14.4871,14.2962,14.1541,13.9318,14.0087,14.1277,14.0888,14.233,14.3077,14.2141,14.2421,14.2454,14.1894,14.2083,14.2661,14.2661,14.2661,14.2661,14.2661,14.2661,14.2661,14.2661,14.2661,14.2661,14.2661,14.2661,14.2661,14.2661,14.2661,14.2559,14.2318,14.1715,14.0789,14.7723,14.7723,14.7723,14.7723,14.7723,14.7723,14.7723,14.7723,14.7723,14.7723,14.7723,14.7723,14.7723,14.7723,14.7723,14.7723,14.7723,14.7723,14.7723,14.7723,14.7723,14.7686,14.7499,14.7462,14.7424,14.7237,14.7536,14.7499,14.7312,14.7387,14.7462,14.7611,14.7499,14.6997,14.6353,14.6911,14.6656,14.5412,14.5099,14.4841,14.3864,14.3274,14.2949,14.3022,14.2769,14.2661,14.2661,14.2725,14.2825,14.2725,14.2789,14.3178,14.4074,14.4547,14.5122,14.5736,14.6192,14.6322,14.6353,14.645,14.6613,14.6582,14.6521,14.6624,14.6628,14.6619,14.6591,14.6619,14.6553,14.6487,14.6656,14.7109,14.7795,14.8375,14.8375,14.8375,14.8467,14.8467,14.8467,14.8279,14.7189,14.5828,14.4484,14.2415,14.0858,14.0547,14.0689,14.0819,14.2137,14.323,14.3679,14.3303,14.311,14.2987,14.2825,14.2661,14.2661,14.2661,14.2661,14.2661,14.2661,14.2661,14.2661,14.2661,14.2661,14.2661,14.2661,14.2661,14.2661,14.2624,14.2588,14.2588,14.188,14.0887,14.0176,14.7723,14.7723,14.7723,14.7723,14.7723,14.7723,14.7723,14.7723,14.7723,14.7723,14.7723,14.7723,14.7723,14.7723,14.7723,14.7723,14.7723,14.7686,14.7723,14.7723,14.7723,14.7125,14.619,14.6041,14.5517,14.462,14.447,14.4433,14.4545,14.5517,14.6041,14.6041,14.6041,14.6124,14.6293,14.6124,14.579,14.5492,14.5714,14.6121,14.6141,14.4488,14.4028,14.4725,14.352,14.2661,14.2624,14.317,14.3477,14.3534,14.4181,14.4765,14.5159,14.5601,14.6007,14.6261,14.6832,14.7169,14.7229,14.7571,14.7818,14.7827,14.7833,14.7778,14.7774,14.7827,14.7864,14.7827,14.7827,14.7827,14.7879,14.8019,14.8279,14.8421,14.8467,14.8467,14.8467,14.843,14.8392,14.8091,14.6888,14.4702,14.2276,14.0898,14.036,13.9908,14.0279,14.1015,14.2595,14.3548,14.3954,14.3543,14.3352,14.3158,14.2761,14.2661,14.2661,14.2661,14.2661,14.2661,14.2661,14.2661,14.2661,14.2661,14.2661,14.2661,14.2661,14.2661,14.2661,14.2661,14.2227,14.1433,14.0798,14.0054,13.9493,14.7723,14.7723,14.7723,14.7723,14.7723,14.7723,14.7723,14.7723,14.7723,14.7723,14.7723,14.7723,14.7723,14.7686,14.7144,14.6583,14.6003,14.6077,14.6077,14.6022,14.6022,14.5423,14.4451,14.4358,14.4022,14.376,14.3685,14.3723,14.3835,14.4695,14.5218,14.5218,14.5218,14.5794,14.6501,14.5794,14.5579,14.6035,14.6216,14.6619,14.6851,14.5005,14.4607,14.6056,14.4561,14.3567,14.355,14.413,14.4403,14.4403,14.5068,14.5603,14.5822,14.6386,14.6759,14.7117,14.7611,14.7902,14.7954,14.8279,14.8467,14.8467,14.8467,14.8421,14.8467,14.8467,14.8467,14.8467,14.8467,14.8129,14.7753,14.7039,14.6738,14.6738,14.6738,14.6587,14.6738,14.6738,14.6775,14.6625,14.5873,14.3979,14.1668,14.1082,14.1228,14.092,14.1506,14.2671,14.3866,14.435,14.4261,14.3695,14.3448,14.3255,14.2725,14.2624,14.2661,14.2661,14.2661,14.2661,14.2661,14.2661,14.2725,14.2725,14.3074,14.2929,14.1632,14.1596,14.1249,14.1152,14.0458,13.9808,13.9591,13.7966,13.7769,14.7723,14.7723,14.7723,14.7723,14.7723,14.7723,14.7723,14.7723,14.7723,14.7723,14.7723,14.7723,14.7611,14.7256,14.5907,14.4431,14.3179,14.3354,14.348,14.3377,14.3302,14.3077,14.2965,14.2843,14.3424,14.3947,14.4171,14.4508,14.4657,14.5069,14.5218,14.5218,14.5218,14.6041,14.718,14.5984,14.6041,14.7288,14.6859,14.6497,14.628,14.4918,14.4785,14.611,14.5585,14.5083,14.5159,14.5375,14.5415,14.5415,14.5713,14.5928,14.6167,14.673,14.736,14.8121,14.8204,14.8166,14.8054,14.8016,14.8016,14.8091,14.7866,14.8129,14.779,14.7978,14.8129,14.8279,14.7978,14.7339,14.6023,14.4933,14.4106,14.3993,14.3843,14.388,14.3805,14.4144,14.373,14.388,14.3768,14.2784,14.1437,14.2527,14.2964,14.3661,14.429,14.5117,14.5789,14.5529,14.4765,14.3864,14.3411,14.3255,14.2761,14.2661,14.2661,14.2661,14.2661,14.2661,14.2661,14.2661,14.2725,14.2889,14.3035,14.2438,14.1188,14.0499,14.033,13.9992,13.9451,13.8364,13.7967,13.6094,13.6116,14.7723,14.7723,14.7723,14.7723,14.7723,14.7723,14.7723,14.7723,14.7723,14.7723,14.7723,14.7723,14.6508,14.4522,14.4042,14.3592,14.3218,14.3193,14.3231,14.3231,14.3231,14.2556,14.1469,14.1242,14.0816,14.024,14.1272,14.1741,14.1928,14.391,14.5218,14.5218,14.5218,14.6041,14.7349,14.6078,14.6041,14.7574,14.7475,14.7326,14.718,14.6246,14.5921,14.6253,14.5588,14.5206,14.5215,14.5859,14.6279,14.6242,14.7154,14.7629,14.7645,14.6767,14.6392,14.6587,14.5647,14.5008,14.4971,14.5008,14.5008,14.4971,14.5008,14.4971,14.5159,14.6023,14.6625,14.655,14.5647,14.4933,14.4294,14.3918,14.3655,14.3617,14.3617,14.3617,14.3542,14.3617,14.3504,14.3504,14.2452,14.1587,14.1286,14.1587,14.2903,14.4738,14.518,14.5479,14.6624,14.5896,14.4738,14.4304,14.3586,14.3121,14.2761,14.2661,14.2661,14.2661,14.2661,14.2661,14.2661,14.2624,14.2725,14.2722,14.2296,14.1803,14.1191,14.0717,14.038,14.0328,14.0028,13.9112,13.7028,13.657,13.6583,14.5742,14.5742,14.5742,14.5797,14.5852,14.5852,14.5852,14.5852,14.5852,14.5797,14.5742,14.5852,14.45,14.2131,14.2231,14.1867,14.1256,14.1314,14.1362,14.1314,14.1277,14.0789,13.9841,13.967,13.9458,13.9233,14.0756,14.149,14.1939,14.4019,14.5274,14.5218,14.5236,14.6152,14.7574,14.6152,14.6114,14.7798,14.778,14.7723,14.7649,14.7237,14.6922,14.6879,14.648,14.629,14.639,14.6848,14.7251,14.7292,14.733,14.7398,14.736,14.5903,14.5046,14.4971,14.4144,14.3617,14.3617,14.3617,14.3617,14.3617,14.3617,14.3617,14.3692,14.4482,14.4708,14.4068,14.3166,14.2602,14.2565,14.1963,14.1587,14.1587,14.1549,14.1512,14.1587,14.1549,14.1587,14.1549,14.0685,14.0271,14.0948,14.1136,14.2527,14.5151,14.6391,14.6597,14.716,14.6248,14.5104,14.4403,14.3513,14.2925,14.2761,14.2661,14.2889,14.3049,14.2889,14.2889,14.3013,14.317,14.294,14.277,14.2874,14.2522,14.1313,14.0097,13.984,13.9427,13.9235,13.8484,13.6811,13.631,13.6871,14.3424,14.3311,14.3386,14.3158,14.3414,14.3227,14.3189,14.3152,14.3077,14.2912,14.2522,14.2731,14.1942,14.0677,14.0648,13.9898,13.8491,13.8493,13.8649,13.8599,13.8449,13.8411,13.8517,13.835,13.9043,14.0431,14.2081,14.2743,14.3118,14.4665,14.542,14.5461,14.557,14.6447,14.7624,14.6447,14.6372,14.787,14.7798,14.7723,14.7742,14.7723,14.7723,14.7723,14.7723,14.7705,14.7424,14.7827,14.7869,14.7705,14.6459,14.5798,14.5647,14.4444,14.358,14.3429,14.3392,14.3317,14.3129,14.3166,14.3129,14.3392,14.3166,14.3053,14.3317,14.3241,14.2489,14.1362,14.0948,14.0873,14.0835,13.967,13.8955,13.9068,13.8918,13.8579,13.8805,13.8579,13.8579,13.8579,13.888,13.9143,14.0497,14.1249,14.264,14.5234,14.688,14.8043,14.7593,14.6516,14.5453,14.4268,14.3165,14.2563,14.2563,14.2608,14.317,14.3809,14.3456,14.342,14.37,14.3822,14.3472,14.281,14.2716,14.1823,13.9828,13.8422,13.8944,13.9102,13.8414,13.7367,13.7773,13.6517,13.6476,14.675,14.6634,14.5383,14.4875,14.4918,14.3756,14.3193,14.3193,14.3193,14.1717,13.9493,13.9372,13.9305,13.8944,13.91,13.8912,13.8531,13.8579,13.8617,13.8574,13.8537,13.8537,13.8537,13.8449,13.8509,13.9072,14.0554,14.1968,14.3356,14.4768,14.623,14.734,14.7504,14.7692,14.8066,14.7692,14.7639,14.787,14.7908,14.787,14.7902,14.7798,14.7723,14.7723,14.7686,14.7125,14.5947,14.6013,14.5643,14.4493,14.4233,14.4181,14.4144,14.3811,14.3022,14.185,14.1705,14.1141,13.9895,13.9707,14.0309,14.1549,14.0497,14.0271,14.1362,14.0497,13.9519,13.9219,13.9219,13.9219,13.9181,13.8767,13.8579,13.8579,13.8579,13.8579,13.8579,13.8579,13.8579,13.8579,13.8579,13.8692,13.9482,14.1437,14.3204,14.4332,14.67,14.83,14.8005,14.671,14.5085,14.362,14.2425,14.1914,14.1878,14.2788,14.3843,14.4811,14.4655,14.4462,14.4444,14.368,14.2958,14.2979,14.177,14.029,13.9904,13.8997,13.8951,14.0271,13.9347,13.9029,14.0031,13.7773,13.667,14.5607,14.5653,14.4777,14.3953,14.3281,14.2505,14.1765,14.1089,14.1249,14.0139,13.8429,13.8499,13.8499,13.8579,13.9482,13.9938,13.9975,14.0803,14.1179,14.1104,14.0352,13.9975,13.9863,13.895,13.8493,13.8568,14.0131,14.1446,14.2338,14.3829,14.5104,14.593,14.5943,14.628,14.7056,14.7844,14.8206,14.808,14.7317,14.6815,14.6754,14.5927,14.5555,14.5536,14.4732,14.3929,14.3121,14.2543,14.1481,14.0001,13.947,13.9106,13.9106,13.911,13.8697,13.7827,13.8391,13.8429,13.7452,13.7452,13.8166,13.9745,13.9106,13.8993,13.9895,13.9106,13.8579,13.8579,13.8579,13.8579,13.8579,13.8579,13.8579,13.8579,13.8579,13.8579,13.8579,13.8579,13.8579,13.8579,13.8579,13.8579,13.8579,14.0873,14.2452,14.2753,14.5309,14.7511,14.8069,14.5766,14.3439,14.2569,14.2149,14.2067,14.213,14.3377,14.4673,14.5603,14.4822,14.4265,14.4568,14.3274,14.216,14.1615,14.0741,13.9889,14.0174,13.8974,13.9389,14.1074,14.0592,14.012,14.1248,14.011,13.8099,14.3916,14.4043,14.3681,14.2781,14.1577,14.122,14.0252,13.8982,13.9268,13.9118,13.8692,13.873,13.8692,13.8767,14.0464,14.1225,14.1308,14.2815,14.357,14.3494,14.1911,14.1191,14.1104,13.9444,13.8655,13.8767,14.0083,14.0873,14.1249,14.2513,14.3294,14.3473,14.3378,14.4054,14.5463,14.7163,14.7989,14.7989,14.6418,14.5643,14.5742,14.4335,14.3461,14.32,14.1724,14.0715,14.0493,13.8883,13.7291,13.6076,13.4365,13.3391,13.3391,13.3244,13.283,13.2489,13.3575,13.4214,13.3955,13.3955,13.4782,13.6662,13.7527,13.7564,13.7004,13.7489,13.7903,13.7865,13.7752,13.794,13.7903,13.8015,13.8128,13.8166,13.8429,13.8579,13.8579,13.8579,13.8579,13.8579,13.8579,13.8579,13.873,14.0121,14.1286,14.1625,14.388,14.6045,14.6406,14.4413,14.2215,14.1711,14.2162,14.2608,14.2938,14.4155,14.5085,14.6123,14.4264,14.3122,14.3783,14.251,14.1023,13.9574,13.9292,13.9369,13.9386,13.8301,13.8435,14.0789,14.0187,13.9575,14.1571,14.1224,13.9287,14.7881,14.7933,14.6542,14.5866,14.5497,14.2828,14.1555,14.1296,14.1345,0.0,0.0,13.9219,13.9219,13.9256,13.9599,13.9725,13.9763,14.0091,14.0242,14.0242,13.9902,13.9735,13.9712,13.9143,13.8918,13.8918,13.8993,13.9745,14.1098,14.1399,14.222,14.3498,14.3573,14.3761,14.4099,14.5602,14.6392,14.6392,14.5999,14.6354,14.7581,14.7231,14.6365,14.5012,14.3387,14.2003,14.0719,13.7843,13.6174,13.5851,13.3158,13.1662,13.1624,13.0349,12.8393,12.5834,12.5872,12.5382,12.403,12.3917,12.5233,12.8278,13.2263,13.2868,12.8768,13.2268,13.4594,13.4594,13.4594,13.4594,13.4632,13.5722,13.6512,13.6512,13.779,13.8504,13.8542,13.8579,13.8354,13.8579,13.8467,13.8579,13.8579,13.997,14.1136,14.1362,14.279,14.4174,14.4242,14.3528,14.2501,14.1745,14.1628,14.2215,14.3328,14.4069,14.4526,14.5132,14.3923,14.2953,14.2787,14.1687,14.0566,13.98,13.7857,13.6768,13.6282,13.5235,13.5086,13.8077,13.8306,13.8578,14.0098,13.9536,13.7857,14.9023,14.9105,14.8232,14.7439,0.0,14.5054,14.4511,14.4729,14.3679,14.1812,13.9288,13.7589,13.6796,13.6871,13.7858,13.8731,13.9515,14.0463,14.1412,14.2159,14.1226,14.0742,14.0728,13.9683,13.912,13.8955,13.888,13.9143,13.982,13.982,14.0271,14.1061,14.1098,14.1098,14.1136,14.2715,14.3918,14.4783,14.4684,14.5811,14.8027,14.7243,14.6328,14.5498,14.3982,0.0,0.0,0.0,0.0,0.0,0.0,0.0,0.0,0.0,0.0,11.9105,11.6435,11.3989,11.1619,11.2175,11.4127,11.7439,12.1539,12.1418,11.5625,12.1333,12.6542,12.9747,13.0049,13.1026,13.3507,13.3767,13.3805,13.3767,13.3767,13.4105,13.4745,13.4857,13.5196,13.5985,13.685,13.7339,13.7339,13.8767,13.9782,13.9933,14.1324,14.2377,14.2301,14.1536,14.0789,14.024,14.0529,14.1385,14.2206,14.2894,14.372,14.3685,14.2676,14.1741,14.1592,14.0171,13.8787,13.789,13.6619,13.5497,13.5348,13.4114,13.3702,13.5946,13.6656,13.6665,13.5957,13.5361,13.4417,14.9224,14.942,14.9306,14.8566,14.7277,14.6367,14.622,14.6503,14.4884,14.2445,13.9261,13.5926,13.4468,13.4615,13.6086,13.7511,13.8802,14.0359,14.1802,14.3054,14.1502,14.0925,14.111,13.9657,13.9017,13.9073,13.8993,13.888,13.8692,13.8617,13.8579,13.8579,13.8579,13.8579,13.8655,0.0,0.0,0.0,14.3565,14.5369,14.8129,14.6879,14.5967,14.5586,14.4181,0.0,13.9363,13.7203,13.4918,13.2627,13.2673,0.0,0.0,0.0,0.0,0.0,0.0,0.0,0.0,0.0,0.0,0.0,10.7345,10.7099,10.3627,11.007,11.6962,12.2684,12.4089,12.6127,12.986,12.9334,12.8957,12.9219,12.8356,12.843,13.0158,13.0383,13.1135,13.3049,13.4369,13.5271,13.5647,13.7076,13.8091,13.8203,13.9557,14.0459,14.0196,13.9207,13.8487,13.8517,13.9879,14.0794,14.1031,14.1954,14.2485,14.2132,14.0806,13.9498,13.9199,13.7965,13.6394,13.5385,13.4749,13.445,13.445,13.3179,13.2356,13.4151,13.4488,13.3732,13.1179,13.0742,13.0492,14.9903,14.9959,14.9959,14.9845,14.9313,14.4871,14.3084,14.3109,14.2843,14.1676,13.9708,13.6405,13.5001,13.5001,13.5157,13.5385,13.5651,13.5803,13.5993,13.6183,13.6057,13.6731,13.7972,13.7672,13.8215,13.9449,13.9106,13.8993,13.8918,13.8692,13.8579,13.8579,13.8579,13.8579,13.8617,13.9031,13.9331,13.9632,14.3617,14.655,14.8242,14.8074,14.7276,14.5773,14.4271,14.3302,14.2859,13.8499,13.6545,13.7414,13.2301,12.8541,12.6549,11.6586,10.7826,0.0,9.2333,0.0,0.0,0.0,0.0,0.0,0.0,0.0,0.0,10.3049,10.7679,11.1335,11.5512,11.7683,11.6849,11.8008,11.9293,12.0757,12.2038,12.4009,12.6849,12.7184,12.8386,13.1505,13.1809,13.2414,13.3729,13.5384,13.6399,13.6512,13.7602,13.7865,13.7113,13.7677,13.8311,13.8449,13.9831,14.1089,14.2118,14.1606,14.0756,14.0442,13.8257,13.617,13.617,13.4824,13.359,13.3254,13.2207,13.1235,13.1085,12.9851,12.9328,13.0786,13.0973,13.0038,12.7421,12.7124,12.7443,14.6699,14.5864,14.5864,14.4231,14.1498,13.9334,13.8347,13.8309,13.8271,13.6828,13.4322,13.1931,12.9311,12.6767,12.7602,12.8514,12.9577,13.1399,13.269,13.3639,13.455,13.5347,13.5993,13.6053,13.633,13.685,13.6518,13.6329,13.6173,13.6023,13.591,13.591,13.6925,13.5621,13.2211,13.3844,13.6145,13.895,14.2753,14.6362,14.9678,14.9821,14.9482,14.873,14.8054,14.6437,14.373,14.1468,13.9288,13.7264,13.4369,12.997,12.3767,11.3424,10.2624,0.0,0.0,0.0,0.0,0.0,0.0,0.0,0.0,0.0,0.0,0.0,9.7458,9.9801,10.8662,11.3167,11.0562,11.1828,11.241,11.1371,11.0244,11.0825,11.3976,11.5943,11.8303,12.1602,12.5118,12.7942,12.9597,13.1968,13.377,13.4669,13.3053,13.215,13.3241,13.482,13.6211,13.7033,13.8531,13.9958,14.0552,13.9176,13.7656,13.6623,13.5214,13.4178,13.4141,13.3492,13.2656,13.1758,13.0973,13.0188,12.9216,12.7832,12.6898,12.7459,12.7106,12.6077,12.4692,12.4644,12.4699,14.2599,14.0435,13.6866,13.3145,12.9653,13.0526,13.1057,13.1399,13.2196,13.0716,12.7564,12.6274,12.2667,11.7618,11.8073,11.9855,12.2698,12.5284,12.8019,13.0754,13.2006,13.2728,13.3183,13.3677,13.3802,13.3556,13.2891,13.2684,13.2827,13.1514,13.1026,13.1403,13.1286,12.8791,12.4213,12.7801,13.2608,13.8418,14.1919,14.5873,15.028,15.043,15.043,15.043,15.0054,14.8054,14.4369,14.3091,14.0647,13.6812,13.3695,12.8054,11.9293,10.7703,0.0,0.0,0.0,0.0,0.0,0.0,0.0,0.0,0.0,7.0462,7.1222,0.0,8.7168,0.0,10.1555,10.809,10.6723,10.6299,0.0,0.0,9.8694,9.7485,10.0637,10.3517,10.6903,11.0946,11.653,12.0978,12.3335,12.6432,12.8882,13.0009,12.7941,12.7114,12.9107,13.1474,13.3429,13.4181,13.5233,13.6211,13.606,13.5337,13.4462,13.3539,13.2622,13.1993,13.1993,13.1335,13.0275,12.8991,12.8742,12.8255,12.7096,12.5984,12.5048,12.4487,12.3313,12.2282,12.2282,12.2159,12.1943,13.8499,13.4512,12.0693,11.4732,11.458,11.7542,11.9668,12.1338,12.4413,12.3882,12.0769,12.0579,11.6934,11.0632,10.7666,0.0,11.5723,11.609,11.9619,12.559,12.5704,12.6615,12.8134,12.9691,13.0449,13.0374,12.8474,12.832,12.9479,12.4856,12.3264,12.4612,11.9205,11.6171,11.6019,12.1954,12.905,13.6909,14.1506,14.5422,14.858,14.8693,14.8693,14.8693,14.7227,14.6211,14.5723,14.1437,13.8805,13.8015,12.6851,11.786,11.2067,0.0,0.0,0.0,0.0,0.0,0.0,0.0,0.0,0.0,0.0,0.0,0.0,0.0,0.0,0.0,9.347,0.0,10.4709,9.9768,0.0,0.0,0.0,8.7422,9.0776,9.2529,9.6016,10.2456,0.0,0.0,11.4674,11.8016,12.0029,12.015,12.3727,12.5872,12.4593,12.8279,13.0872,12.9594,12.9481,12.9519,13.0007,13.0647,13.1505,13.2321,13.0801,12.8649,12.8408,12.6377,12.4272,12.4029,12.3776,12.3868,12.3718,12.362,12.3101,12.1527,12.0107,11.9094,11.9207,11.9207,11.924,12.2097,11.0404,10.4404,10.1328,10.0797,10.3941,10.6853,10.9607,11.2978,11.2546,10.9341,10.8277,10.4137,9.7606,9.3297,0.0,0.0,0.0,11.0511,11.609,11.9032,12.1293,12.2933,12.3616,12.392,12.3844,12.1981,12.1429,12.203,11.9744,11.3093,10.2077,0.0,0.0,10.3033,11.2311,12.2077,13.2046,13.8974,14.44,14.8392,14.8467,14.8467,14.8467,14.6843,14.5039,14.3091,13.9181,13.3921,12.7001,11.7895,10.7985,0.0,0.0,0.0,0.0,0.0,0.0,0.0,0.0,0.0,0.0,0.0,5.8498,5.9873,0.0,0.0,0.0,7.8557,8.2176,8.9206,9.0241,0.0,0.0,0.0,0.0,0.0,0.0,0.0,8.9644,9.7516,10.4404,10.9177,11.0089,11.1407,11.4343,11.635,11.8046,11.9303,0.0,12.474,12.7001,12.6399,12.6136,12.7075,12.6173,12.5082,12.4666,12.3347,12.2778,12.3674,12.2839,12.2271,12.3014,12.332,12.3358,12.3358,12.1052,11.8992,11.8354,11.8429,11.8692,11.8692,11.8615,11.8575,10.3266,0.0,0.0,0.0,0.0,9.0462,9.3581,9.6907,9.9724,9.9106,9.5895,9.4702,0.0,0.0,0.0,0.0,0.0,0.0,10.1547,10.6663,11.3553,11.683,11.7083,11.7579,11.7541,11.6934,11.3802,11.2196,11.2008,10.8211,9.8143,8.2604,0.0,0.0,0.0,0.0,11.4974,12.6266,13.6401,14.361,14.7715,14.8242,14.8467,14.8467,14.5978,14.3272,14.0459,13.4447,12.6738,11.7217,10.7375,0.0,0.0,0.0,0.0,0.0,0.0,0.0,0.0,0.0,0.0,0.0,0.0,0.0,0.0,0.0,0.0,0.0,0.0,0.0,7.6973,8.1398,8.1826,0.0,0.0,0.0,0.0,0.0,0.0,0.0,0.0,0.0,9.8751,10.1417,10.4719,0.0,0.0,11.3731,11.5089,11.7511,12.0013,12.2439,12.1803,0.0,12.2036,12.0044,11.8202,11.7488,11.7264,11.7452,11.8204,11.6739,11.61,11.8127,11.899,11.8577,11.6889,11.3725,11.1605,11.1643,11.2842,11.3896,11.3934,11.4282,11.4437,0.0,0.0,0.0,0.0,0.0,0.0,0.0,0.0,8.4831,8.377,0.0,8.0591,0.0,0.0,0.0,0.0,7.5646,8.5388,0.0,0.0,10.9333,11.3388,11.0442,11.1767,11.1844,10.9974,10.3442,10.0175,9.9336,8.7245,0.0,0.0,0.0,0.0,0.0,0.0,10.8314,11.9745,13.4108,14.3077,14.6023,14.764,14.8467,14.8392,14.3911,14.0491,13.8241,12.6249,11.7029,11.1718,9.4784,0.0,0.0,0.0,0.0,0.0,0.0,0.0,0.0,0.0,0.0,0.0,0.0,0.0,0.0,0.0,0.0,0.0,0.0,0.0,0.0,7.4137,0.0,0.0,0.0,0.0,0.0,0.0,0.0,0.0,0.0,8.2461,8.1276,9.1956,10.0637,10.2249,0.0,0.0,0.0,0.0,11.7909,11.5106,11.451,11.3965,11.2471,11.192,11.2262,11.3653,0.0,0.0,11.1878,10.6441,10.3449,10.6516,10.8449,10.7352,10.1307,10.0025,9.9898,9.986,10.1266,10.2331,10.2482,10.3706,10.4777,0.0,0.0,0.0,0.0,0.0,0.0,0.0,0.0,0.0,7.2413,0.0,6.8366,0.0,0.0,0.0,0.0,0.0,0.0,0.0,0.0,9.2036,9.5949,9.6963,9.7553,9.7553,0.0,9.2318,8.4992,0.0,0.0,0.0,0.0,0.0,0.0,0.0,0.0,10.2507,11.5964,12.9782,13.9839,14.5685,14.6512,14.7422,14.8392,14.5753,13.8955,12.7754,11.5779,10.4042,0.0,0.0,0.0,0.0,0.0,0.0,0.0,0.0,0.0,0.0,0.0,0.0,0.0,0.0,0.0,0.0,0.0,0.0,0.0,0.0,0.0,0.0,0.0,7.0235,0.0,0.0,0.0,0.0,0.0,0.0,0.0,0.0,0.0,7.4944,8.4812,9.3981,9.9897,10.6411,11.1027,11.2071,0.0,0.0,0.0,0.0,0.0,0.0,0.0,10.6961,10.3226,10.1789,10.02,9.7394,9.5149,9.5086,9.9421,0.0,0.0,8.8328,8.814,8.9256,8.8209,9.023,9.207,9.2115,9.3436,9.4949,0.0,0.0,0.0,0.0,0.0,0.0,0.0,0.0,0.0,6.0728,5.7241,0.0,0.0,0.0,0.0,0.0,0.0,0.0,0.0,0.0,0.0,0.0,8.4877,8.496,0.0,0.0,0.0,0.0,0.0,0.0,0.0,0.0,0.0,0.0,0.0,0.0,9.8179,11.1728,12.662,13.7848,14.4933,14.5729,14.6519,14.7565,14.6053,13.7935,12.2714,0.0,0.0,0.0,0.0,0.0,0.0,0.0,0.0,0.0,0.0,0.0,0.0,0.0,0.0,0.0,0.0,0.0,0.0,0.0,0.0,0.0,0.0,0.0,0.0,0.0,6.3388,0.0,0.0,0.0,0.0,0.0,0.0,0.0,0.0,0.0,0.0,7.6318,8.5906,9.3129,10.1208,10.7217,10.9553,11.26,11.5153,0.0,0.0,0.0,0.0,0.0,0.0,0.0,0.0,0.0,0.0,0.0,0.0,0.0,0.0,8.1364,7.4324,7.4739,7.5814,7.4841,0.0,0.0,0.0,0.0,0.0,0.0,0.0,0.0,0.0,0.0,0.0,0.0,0.0,0.0,0.0,4.6873,0.0,0.0,4.1979,0.0,0.0,0.0,0.0,0.0,0.0,0.0,0.0,0.0,0.0,0.0,0.0,0.0,0.0,0.0,0.0,0.0,0.0,0.0,0.0,0.0,0.0,9.5331,10.671,12.485,13.7209,14.3392,14.5128,14.5917,14.5993,14.4325,13.7209,12.3795,0.0,0.0,0.0,0.0,0.0,0.0,0.0,0.0,0.0,0.0,0.0,0.0,0.0,0.0,0.0,0.0,0.0,0.0,0.0,0.0,0.0,0.0,0.0,0.0,0.0,0.0,5.4979,6.0579,6.3839,0.0,0.0,0.0,0.0,0.0,0.0,0.0,0.0,0.0,8.1859,9.5104,10.4494,10.5085,11.0535,11.4095,11.2704,11.2145,11.1864,11.1691,11.003,10.7153,0.0,0.0,0.0,0.0,0.0,0.0,0.0,0.0,0.0,0.0,0.0,0.0,0.0,0.0,0.0,0.0,0.0,0.0,0.0,0.0,0.0,0.0,0.0,0.0,0.0,0.0,0.0,0.0,0.0,0.0,0.0,0.0,0.0,0.0,0.0,0.0,0.0,0.0,0.0,0.0,0.0,0.0,0.0,0.0,0.0,0.0,0.0,0.0,0.0,0.0,0.0,0.0,0.0,0.0,9.259,10.5122,12.2054,13.4468,14.1994,14.361,14.4896,14.5805,14.1023,13.1621,0.0,0.0,0.0,0.0,0.0,0.0,0.0,0.0,0.0,0.0,0.0,0.0,0.0,0.0,0.0,0.0,0.0,0.0,0.0,0.0,0.0,0.0,0.0,0.0,0.0,0.0,0.0,0.0,5.9937,6.1531,5.9035,0.0,0.0,0.0,0.0,0.0,0.0,0.0,0.0,0.0,0.0,9.9531,10.4312,10.9645,11.2976,11.2314,11.3034,11.2799,11.0251,10.9315,10.6053,9.7838,0.0,0.0,0.0,0.0,0.0,0.0,0.0,0.0,0.0,0.0,0.0,0.0,0.0,0.0,0.0,0.0,0.0,0.0,0.0,0.0,0.0,0.0,0.0,0.0,0.0,0.0,0.0,0.0,0.0,0.0,0.0,0.0,0.0,0.0,0.0,0.0,0.0,0.0,0.0,0.0,0.0,0.0,0.0,0.0,0.0,0.0,0.0,0.0,0.0,0.0,0.0,0.0,0.0,9.0379,10.3537,11.9884,13.2603,14.1098,14.2896,14.4362,14.5955,13.8429,12.7338,0.0,0.0,0.0,0.0,0.0,0.0,0.0,0.0,0.0,0.0,0.0,0.0,0.0,0.0,0.0,0.0,0.0,0.0,0.0,0.0,0.0,0.0,0.0,0.0,0.0,0.0,0.0,0.0,5.6189,5.9344,5.8352,0.0,0.0,0.0,0.0,0.0,0.0,0.0,0.0,0.0,0.0,9.4105,10.0126,10.5368,0.0,0.0,10.9701,11.0047,10.846,10.9121,10.6247,9.589,8.7927,0.0,0.0,0.0,0.0,0.0,0.0,0.0,0.0,0.0,0.0,0.0,0.0,0.0,0.0,0.0,0.0,0.0,0.0,0.0,0.0,0.0,0.0,0.0,0.0,0.0,0.0,0.0,0.0,0.0,0.0,0.0,0.0,0.0,0.0,0.0,0.0,0.0,0.0,0.0,0.0,0.0,0.0,0.0,0.0,0.0,0.0,0.0,0.0,0.0,0.0,0.0,0.0,8.8662,10.1783,11.8144,13.1399,14.0958,14.2753,14.4256,14.5579,13.6206,12.403,0.0,0.0,0.0,0.0,0.0,0.0,0.0,0.0,0.0,0.0,0.0,0.0,0.0,0.0,0.0,0.0,0.0,0.0,0.0,0.0,0.0,0.0,0.0,0.0,0.0,0.0,0.0,0.0,0.0,0.0,0.0,0.0,0.0,0.0,0.0,0.0,0.0,0.0,0.0,0.0,0.0,8.8588,9.3767,9.8734,10.1936,0.0,10.3049,10.4401,10.5646,10.8436,10.6627,9.5104,0.0,0.0,0.0,0.0,0.0,0.0,0.0,0.0,0.0,0.0,0.0,0.0,0.0,0.0,0.0,0.0,0.0,0.0,0.0,0.0,0.0,0.0,0.0,0.0,0.0,0.0,0.0,0.0,0.0,0.0,0.0,0.0,0.0,0.0,0.0,0.0,0.0,0.0,0.0,0.0,0.0,0.0,0.0,0.0,0.0,0.0,0.0,0.0,0.0,0.0,0.0,0.0,0.0,0.0,9.8575,11.6114,12.9894,13.9378,14.128,14.2701,14.3993,13.3387,0.0,0.0,0.0,0.0,0.0,0.0,0.0,0.0,0.0,0.0,0.0,0.0,0.0,0.0,0.0,0.0,0.0,0.0,0.0,0.0,0.0,0.0,0.0,0.0,0.0,0.0,0.0,3.536,0.0,0.0,0.0,0.0,0.0,0.0,0.0,0.0,0.0,0.0,0.0,0.0,0.0,0.0,8.5272,9.1832,9.4987,9.6619,0.0,0.0,9.8117,9.6018,9.9331,9.8289,0.0,0.0,0.0,0.0,0.0,0.0,0.0,0.0,0.0,0.0,0.0,0.0,0.0,0.0,0.0,0.0,0.0,0.0,0.0,0.0,0.0,0.0,0.0,0.0,0.0,0.0,0.0,0.0,0.0,0.0,0.0,0.0,0.0,0.0,0.0,0.0,0.0,0.0,0.0,0.0,0.0,0.0,0.0,0.0,0.0,0.0,0.0,0.0,0.0,0.0,0.0,0.0,0.0,0.0,8.4987,9.7428,11.3154,12.68,13.7693,13.9652,14.1416,14.3535,13.1025,11.8301,0.0,0.0,0.0,0.0,0.0,0.0,0.0,0.0,0.0,0.0,0.0,0.0,0.0,0.0,0.0,0.0,0.0,0.0,0.0,0.0,0.0,0.0,0.0,0.0,0.0,0.0,0.0,0.0,0.0,0.0,0.0,0.0,0.0,0.0,0.0,0.0,0.0,0.0,0.0,0.0,0.0,0.0,8.7807,8.8484,0.0,0.0,0.0,8.9846,8.7939,0.0,0.0,0.0,0.0,0.0,0.0,0.0,0.0,0.0,0.0,0.0,0.0,0.0,0.0,0.0,0.0,0.0,0.0,0.0,0.0,0.0,0.0,0.0,0.0,0.0,0.0,0.0,0.0,0.0,0.0,0.0,0.0,0.0,0.0,0.0,0.0,0.0,0.0,0.0,0.0,0.0,0.0,0.0,0.0,0.0,0.0,0.0,0.0,0.0,0.0,0.0,0.0,0.0,0.0,0.0,0.0,0.0,9.6594,10.9948,12.3213,13.5876,13.7983,14.0139,14.2814,12.9447,11.7073,0.0,0.0,0.0,0.0,0.0,0.0,0.0,0.0,0.0,0.0,0.0,0.0,0.0,0.0,0.0,0.0,0.0,0.0,0.0,0.0,0.0,0.0,0.0,0.0,0.0,0.0,0.0,0.0,0.0,0.0,0.0,0.0,0.0,0.0,0.0,0.0,0.0,0.0,0.0,0.0,0.0,7.6211,8.2859,8.1023,7.8408,0.0,0.0,8.0619,8.0591,8.1642,0.0,0.0,0.0,0.0,0.0,0.0,0.0,0.0,0.0,0.0,0.0,0.0,0.0,0.0,0.0,0.0,0.0,0.0,0.0,0.0,0.0,0.0,0.0,0.0,0.0,0.0,0.0,0.0,0.0,0.0,0.0,0.0,0.0,0.0,0.0,0.0,0.0,0.0,0.0,0.0,0.0,0.0,0.0,0.0,0.0,0.0,0.0,0.0,0.0,0.0,0.0,0.0,0.0,0.0,0.0,0.0,9.3161,10.7815,12.178,13.4512,13.6567,13.8123,13.967,13.0499,11.8235,0.0,0.0,0.0,0.0,0.0,0.0,0.0,0.0,0.0,0.0,0.0,0.0,0.0,0.0,0.0,0.0,0.0,0.0,0.0,0.0,0.0,0.0,0.0,0.0,0.0,0.0,0.0,0.0,0.0,0.0,0.0,0.0,0.0,0.0,0.0,0.0,0.0,0.0,0.0,0.0,0.0,7.3846,7.9586,7.6574,0.0,0.0,0.0,0.0,7.2126,7.2332,0.0,0.0,0.0,0.0,0.0,0.0,0.0,0.0,0.0,0.0,0.0,0.0,0.0,0.0,0.0,0.0,0.0,0.0,0.0,0.0,0.0,0.0,0.0,0.0,0.0,0.0,0.0,0.0,0.0,0.0,0.0,0.0,0.0,0.0,0.0,0.0,0.0,0.0,0.0,0.0,0.0,0.0,0.0,0.0,0.0,0.0,0.0,0.0,0.0,0.0,0.0,0.0,0.0,0.0,0.0,0.0,9.1896,10.3921,11.7639,13.2826,13.4232,13.5216,13.6361,12.9256,11.7888,0.0,0.0,0.0,0.0,0.0,0.0,0.0,0.0,0.0,0.0,0.0,0.0,0.0,0.0,0.0,0.0,0.0,0.0,0.0,0.0,0.0,0.0,0.0,0.0,0.0,0.0,0.0,0.0,0.0,0.0,0.0,0.0,0.0,0.0,0.0,0.0,0.0,0.0,0.0,0.0,6.3569,6.8148,7.2763,0.0,0.0,0.0,0.0,0.0,0.0,6.5682,6.2973,0.0,0.0,0.0,0.0,0.0,0.0,0.0,0.0,0.0,0.0,0.0,0.0,0.0,0.0,0.0,0.0,0.0,0.0,0.0,0.0,0.0,0.0,0.0,0.0,0.0,0.0,0.0,0.0,0.0,0.0,0.0,0.0,0.0,0.0,0.0,0.0,0.0,0.0,0.0,0.0,0.0,0.0,0.0,0.0,0.0,0.0,0.0,0.0,0.0,0.0,0.0,0.0,0.0,0.0,0.0,9.0322,9.9625,11.2861,13.0048,13.1353,13.226,13.2948,12.6805,11.6229,10.1018,0.0,0.0,0.0,0.0,0.0,0.0,0.0,0.0,0.0,0.0,0.0,0.0,0.0,0.0,0.0,0.0,0.0,0.0,0.0,0.0,0.0,0.0,0.0,0.0,0.0,0.0,0.0,0.0,0.0,0.0,0.0,0.0,0.0,0.0,0.0,0.0,0.0,0.0,0.0,5.8784,6.1843,0.0,0.0,0.0,0.0,0.0,0.0,0.0,0.0,5.6915,0.0,0.0,0.0,0.0,0.0,0.0,0.0,0.0,0.0,0.0,0.0,0.0,0.0,0.0,0.0,0.0,0.0,0.0,0.0,0.0,0.0,0.0,0.0,0.0,0.0,0.0,0.0,0.0,0.0,0.0,0.0,0.0,0.0,0.0,0.0,0.0,0.0,0.0,0.0,0.0,0.0,0.0,0.0,0.0,0.0,0.0,0.0,0.0,0.0,0.0,0.0,0.0,0.0,0.0,0.0,0.0,9.6215,10.9568,12.3377,12.7939,13.0064,13.0025,12.3507,11.2202,9.601,0.0,0.0,0.0,0.0,0.0,0.0,0.0,0.0,0.0,0.0,0.0,0.0,0.0,0.0,0.0,0.0,0.0,0.0,0.0,0.0,0.0,0.0,0.0,0.0,0.0,0.0,0.0,0.0,0.0,0.0,0.0,0.0,0.0,0.0,0.0,0.0,0.0,0.0,4.6684,5.3179,0.0,0.0,0.0,0.0,0.0,0.0,0.0,0.0,5.4645,0.0,0.0,0.0,0.0,0.0,0.0,0.0,0.0,0.0,0.0,0.0,0.0,0.0,0.0,0.0,0.0,0.0,0.0,0.0,0.0,0.0,0.0,0.0,0.0,0.0,0.0,0.0,0.0,0.0,0.0,0.0,0.0,0.0,0.0,0.0,0.0,0.0,0.0,0.0,0.0,0.0,0.0,0.0,0.0,0.0,0.0,0.0,0.0,0.0,0.0,0.0,0.0,0.0,0.0,0.0,0.0,0.0,0.0,10.5233,11.9316,12.4611,12.7025,12.644,11.6871,10.5737,0.0,0.0,0.0,0.0,0.0,0.0,0.0,0.0,0.0,0.0,0.0,0.0,0.0,0.0,0.0,0.0,0.0,0.0,0.0,0.0,0.0,0.0,0.0,0.0,0.0,0.0,0.0,0.0,0.0,0.0,0.0,0.0,0.0,0.0,0.0,0.0,0.0,0.0,0.0,0.0,0.0,0.0,0.0,0.0,0.0,0.0,0.0,0.0,0.0,0.0,0.0,0.0,0.0,0.0,0.0,0.0,0.0,0.0,0.0,0.0,0.0,0.0,0.0,0.0,0.0,0.0,0.0,0.0,0.0,0.0,0.0,0.0,0.0,0.0,0.0,0.0,0.0,0.0,0.0,0.0,0.0,0.0,0.0,0.0,0.0,0.0,0.0,0.0,0.0,0.0,0.0,0.0,0.0,0.0,0.0,0.0,0.0,0.0,0.0,0.0,0.0,0.0,0.0,0.0,0.0,0.0,0.0,0.0,10.1002,11.4898,12.1273,12.4299,12.3916,11.0831,9.9287,0.0,0.0,0.0,0.0,0.0,0.0,0.0,0.0,0.0,0.0,0.0,0.0,0.0,0.0,0.0,0.0,0.0,0.0,0.0,0.0,0.0,0.0,0.0,0.0,0.0,0.0,0.0,0.0,0.0,0.0,0.0,0.0,0.0,0.0,0.0,0.0,0.0,0.0,0.0,0.0,0.0,0.0,0.0,0.0,0.0,0.0,0.0,0.0,5.3394,0.0,0.0,0.0,0.0,0.0,0.0,0.0,0.0,0.0,0.0,0.0,0.0,0.0,0.0,0.0,0.0,0.0,0.0,0.0,0.0,0.0,0.0,0.0,0.0,0.0,0.0,0.0,0.0,0.0,0.0,0.0,0.0,0.0,0.0,0.0,0.0,0.0,0.0,0.0,0.0,0.0,0.0,0.0,0.0,0.0,0.0,0.0,0.0,0.0,0.0,0.0,0.0,0.0,0.0,0.0,0.0,0.0,0.0,0.0,9.7614,10.818,11.7754,12.2648,12.2092,10.8164,9.4304,0.0,0.0,0.0,0.0,0.0,0.0,0.0,0.0,0.0,0.0,0.0,0.0,0.0,0.0,0.0,0.0,0.0,0.0,0.0,0.0,0.0,0.0,0.0,0.0,0.0,0.0,0.0,0.0,0.0,0.0,0.0,0.0,0.0,0.0,0.0,0.0,0.0,0.0,0.0,0.0,0.0,0.0,0.0,0.0,0.0,0.0,0.0,0.0,0.0,0.0,0.0,0.0,0.0,0.0,0.0,0.0,0.0,0.0,0.0,0.0,0.0,0.0,0.0,0.0,0.0,0.0,0.0,0.0,0.0,0.0,0.0,0.0,0.0,0.0,0.0,0.0,0.0,0.0,0.0,0.0,0.0,0.0,0.0,0.0,0.0,0.0,0.0,0.0,0.0,0.0,0.0,0.0,0.0,0.0,0.0,0.0,0.0,0.0,0.0,0.0,0.0,0.0,0.0,0.0,0.0,0.0,0.0,0.0,9.0691,10.2681,11.1883,11.4305,10.9387,9.7573,8.6281,0.0,0.0,0.0,0.0,0.0,0.0,0.0,0.0,0.0,0.0,0.0,0.0,0.0,0.0,0.0,0.0,0.0,0.0,0.0,0.0,0.0,0.0,0.0,0.0,0.0,0.0,0.0,0.0,0.0,0.0,0.0,0.0,0.0,0.0,0.0,0.0,0.0,0.0,0.0,0.0,0.0,0.0,0.0,0.0,0.0,0.0,0.0,0.0,0.0,0.0,0.0,0.0,0.0,0.0,0.0,0.0,0.0,0.0,0.0,0.0,0.0,0.0,0.0,0.0,0.0,0.0,0.0,0.0,0.0,0.0,0.0,0.0,0.0,0.0,0.0,0.0,0.0,0.0,0.0,0.0,0.0,0.0,0.0,0.0,0.0,0.0,0.0,0.0,0.0,0.0,0.0,0.0,0.0,0.0,0.0,0.0,0.0,0.0,0.0,0.0,0.0,0.0,0.0,0.0,0.0,0.0,0.0,0.0,0.0,9.5962,10.2098,10.221,9.6085,8.7549,7.8627,0.0,0.0,0.0,0.0,0.0,0.0,0.0,0.0,0.0,0.0,0.0,0.0,0.0,0.0,0.0,0.0,0.0,0.0,0.0,0.0,0.0,0.0,0.0,0.0,0.0,0.0,0.0,0.0,0.0,0.0,0.0,0.0,0.0,0.0,0.0,0.0,0.0,0.0,0.0,0.0,0.0,0.0,0.0,0.0,0.0,0.0,0.0,0.0,0.0,0.0,0.0,0.0,0.0,0.0,0.0,0.0,0.0,0.0,0.0,0.0,0.0,0.0,0.0,0.0,0.0,0.0,0.0,0.0,0.0,0.0,0.0,0.0,0.0,0.0,0.0,0.0,0.0,0.0,0.0,0.0,0.0,0.0,0.0,0.0,0.0,0.0,0.0,0.0,0.0,0.0,0.0,0.0,0.0,0.0,0.0,0.0,0.0,0.0,0.0,0.0,0.0,0.0,0.0,0.0,0.0,0.0,0.0,0.0,0.0,8.7617,8.68,8.6174,8.5674,8.0525,7.24,0.0,0.0,0.0,0.0,0.0,0.0,0.0,0.0,0.0,0.0,0.0,0.0,0.0,0.0,0.0,0.0,0.0,0.0,0.0,0.0,0.0,0.0,0.0,0.0,0.0,0.0,0.0,0.0,0.0,0.0,0.0,0.0,0.0,0.0,0.0,0.0,0.0,0.0,0.0,0.0,0.0,0.0,0.0,0.0,0.0,0.0,0.0,0.0,0.0,0.0,0.0,0.0,0.0,0.0,0.0,0.0,0.0,0.0,0.0,0.0,0.0,0.0,0.0,0.0,0.0,0.0,0.0,0.0,0.0,0.0,0.0,0.0,0.0,0.0,0.0,0.0,0.0,0.0,0.0,0.0,0.0,0.0,0.0,0.0,0.0,0.0,0.0,0.0,0.0,0.0,0.0,0.0,0.0,0.0,0.0,0.0,0.0,0.0,0.0,0.0,0.0,0.0,0.0,0.0,0.0,0.0,0.0,0.0,0.0,7.2319,7.3177,7.3585,7.3753,6.898,6.235,5.3869,0.0,0.0,0.0,0.0,0.0,0.0,0.0,0.0,0.0,0.0,0.0,0.0,0.0,0.0,0.0,0.0,0.0,0.0,0.0,0.0,0.0,0.0,0.0,0.0,0.0,0.0,0.0,0.0,0.0,0.0,0.0,0.0,0.0,0.0,0.0,0.0,0.0,0.0,0.0,0.0,0.0,0.0,0.0,0.0,0.0,0.0,0.0,0.0,0.0,0.0,0.0,0.0,0.0,0.0,0.0,0.0,0.0,0.0,0.0,0.0,0.0,0.0,0.0,0.0,0.0,0.0,0.0,0.0,0.0,0.0,0.0,0.0,0.0,0.0,0.0,0.0,0.0,0.0,0.0,0.0,0.0,0.0,0.0,0.0,0.0,0.0,0.0,0.0,0.0,0.0,0.0,0.0,0.0,0.0,0.0,0.0,0.0,0.0,0.0,0.0,0.0,0.0,0.0,0.0,0.0,0.0,0.0,0.0,5.9989,6.2496,6.3839,6.3877,6.0291,5.5372,0.0,0.0,0.0,0.0,0.0,0.0,0.0,0.0,0.0,0.0,0.0,0.0,0.0,0.0,0.0,0.0,0.0,0.0,0.0,0.0,0.0,0.0,0.0,0.0,0.0,0.0,0.0,0.0,0.0,0.0,0.0,0.0,0.0,0.0,0.0,0.0,0.0,0.0,0.0,0.0,0.0,0.0,0.0,0.0,0.0,0.0,0.0,0.0,0.0,0.0,0.0,0.0,0.0,0.0,0.0,0.0,0.0,0.0,0.0,0.0,0.0,0.0,0.0,0.0,0.0,0.0,0.0,0.0,0.0,0.0,0.0,0.0,0.0,0.0,0.0,0.0,0.0,0.0,0.0,0.0,0.0,0.0,0.0,0.0,0.0,0.0,0.0,0.0,0.0,0.0,0.0,0.0,0.0,0.0,0.0,0.0,0.0,0.0,0.0,0.0,0.0,0.0,0.0,0.0,0.0,0.0,0.0,0.0,4.452,5.1385,5.5208,5.7261,5.7227,5.5732,5.2454,0.0,0.0,0.0,0.0,0.0,0.0,0.0,0.0,0.0,0.0,0.0,0.0,0.0,0.0,0.0,0.0,0.0,0.0,0.0,0.0,0.0,0.0,0.0,0.0,0.0,0.0,0.0,0.0,0.0,0.0,0.0,0.0,0.0,0.0,0.0,0.0,0.0,0.0,0.0,0.0,0.0,0.0,0.0,0.0,0.0,0.0,0.0,0.0,0.0,0.0,0.0,0.0,0.0,0.0,0.0,0.0,0.0,0.0,0.0,0.0,0.0,0.0,0.0,0.0,0.0,0.0,0.0,0.0,0.0,0.0,0.0,0.0,0.0,0.0,0.0,0.0,0.0,0.0,0.0,0.0,0.0,0.0,0.0,0.0,0.0,0.0,0.0,0.0,0.0,0.0,0.0,0.0,0.0,0.0,0.0,0.0,0.0,0.0,0.0,0.0,0.0,0.0,0.0,0.0,0.0,0.0,0.0,0.0,0.0,4.582,0.0,5.351,0.0,5.2248,4.9564,0.0,0.0,0.0,0.0,0.0,0.0,0.0,0.0,0.0,0.0,0.0,0.0,0.0,0.0,0.0,0.0,0.0,0.0,0.0,0.0,0.0,0.0,0.0,0.0,0.0,0.0,0.0,0.0,0.0,0.0,0.0,0.0,0.0,0.0,0.0,0.0,0.0,0.0,0.0,0.0,0.0,0.0,0.0,0.0,0.0,0.0,0.0,0.0,0.0,0.0,0.0,0.0,0.0,0.0,0.0,0.0,0.0,0.0,0.0,0.0,0.0,0.0,0.0,0.0,0.0,0.0,0.0,0.0,0.0,0.0,0.0,0.0,0.0,0.0,0.0,0.0,0.0,0.0,0.0,0.0,0.0,0.0,0.0,0.0,0.0,0.0,0.0,0.0,0.0,0.0,0.0,0.0,0.0,0.0,0.0,0.0,0.0,0.0,0.0,0.0,0.0,0.0,0.0,0.0,0.0,0.0,0.0,0.0,0.0,4.2208,4.6577,4.9685,5.1173,5.0282,4.8202,0.0,0.0,0.0,0.0,0.0,0.0,0.0,0.0,0.0,0.0,0.0,0.0,0.0,0.0,0.0,0.0,0.0,0.0,0.0,0.0,0.0,0.0,0.0,0.0,0.0,0.0,0.0,0.0,0.0,0.0,0.0,0.0,0.0,0.0,0.0,0.0,0.0,0.0,0.0,0.0,0.0,0.0,0.0,0.0,0.0,0.0,0.0,0.0,0.0,0.0,0.0,0.0,0.0,0.0,0.0,0.0,0.0,0.0,0.0,0.0,0.0,0.0,0.0,0.0,0.0,0.0,0.0,0.0,0.0,0.0,0.0,0.0,0.0,0.0,0.0,0.0,0.0,0.0,0.0,0.0,0.0,0.0,0.0,0.0,0.0,0.0,0.0,0.0,0.0,0.0,0.0,0.0,0.0,0.0,0.0,0.0,0.0,0.0,0.0,0.0,0.0,0.0,0.0,0.0,0.0,0.0,0.0,0.0,0.0,0.0,4.2732,4.5666,4.9328,4.956,4.8068,0.0,0.0,0.0,0.0,0.0,0.0,0.0,0.0,0.0,0.0,0.0,0.0,0.0,0.0,0.0,0.0,0.0,0.0,0.0,0.0,0.0,0.0,0.0,0.0,0.0,0.0,0.0,0.0,0.0,0.0,0.0,0.0,0.0,0.0,0.0,0.0,0.0,0.0,0.0,0.0,0.0,0.0,0.0,0.0,0.0,0.0,0.0,0.0,0.0,0.0,0.0,0.0,0.0,0.0,0.0,0.0,0.0,0.0,0.0,0.0,0.0,0.0,0.0,0.0,0.0,0.0,0.0,0.0,0.0,0.0,0.0,0.0,0.0,0.0,0.0,0.0,0.0,0.0,0.0,0.0,0.0,0.0,0.0,0.0,0.0,0.0,0.0,0.0,0.0,0.0,0.0,0.0,0.0,0.0,0.0,0.0,0.0,0.0,0.0,0.0,0.0,0.0,0.0,0.0,0.0,0.0,0.0,0.0,0.0,0.0,4.1704,4.3458,4.5944,4.6194,4.5236,4.3146,0.0,0.0,0.0,0.0,0.0,0.0,0.0,0.0,0.0,0.0,0.0,0.0,0.0,0.0,0.0,0.0,0.0,0.0,0.0,0.0,0.0,0.0,0.0,0.0,0.0,0.0,0.0,0.0,0.0,0.0,0.0,0.0,0.0,0.0,0.0,0.0,0.0,0.0,0.0,0.0,0.0,0.0,0.0,0.0,0.0,0.0,0.0,0.0,0.0,0.0,0.0,0.0,0.0,0.0,0.0,0.0,0.0,0.0,0.0,0.0,0.0,0.0,0.0,0.0,0.0,0.0,0.0,0.0,0.0,0.0,0.0,0.0,0.0,0.0,0.0,0.0,0.0,0.0,0.0,0.0,0.0,0.0,0.0,0.0,0.0,0.0,0.0,0.0,0.0,0.0,0.0,0.0,0.0,0.0,0.0,0.0,0.0,0.0,0.0,0.0,0.0,0.0,0.0,0.0,0.0,0.0,0.0,0.0,0.0,0.0,4.2396,4.373,4.4487,4.4089,0.0,0.0,0.0,0.0,0.0,0.0,0.0,0.0,0.0,0.0,0.0,0.0,0.0,0.0,0.0,0.0,0.0,0.0,0.0,0.0,0.0,0.0,0.0,0.0,0.0,0.0,0.0,0.0,0.0,0.0,0.0,0.0,0.0,0.0,0.0,0.0,0.0,0.0,0.0,0.0,0.0,0.0,0.0,0.0,0.0,0.0,0.0,0.0,0.0,0.0,0.0,0.0,0.0,0.0,0.0,0.0,0.0,0.0,0.0,0.0,0.0,0.0,0.0,0.0,0.0,0.0,0.0,0.0,0.0,0.0,0.0,0.0,0.0,0.0,0.0,0.0,0.0,0.0,0.0,0.0,0.0,0.0,0.0,0.0,0.0,0.0,0.0,0.0,0.0,0.0,0.0,0.0,0.0,0.0,0.0,0.0,0.0,0.0,0.0,0.0,0.0,0.0,0.0,0.0,0.0,0.0,0.0,0.0,0.0,0.0,0.0,4.1911,4.2155,4.3599,0.0,4.2291,0.0,0.0,0.0,0.0,0.0,0.0,0.0,0.0,0.0,0.0,0.0,0.0,0.0,0.0,0.0,0.0,0.0,0.0,0.0,0.0,0.0,0.0,0.0,0.0,0.0,0.0,0.0,0.0,0.0,0.0,0.0,0.0,0.0,0.0,0.0,0.0,0.0,0.0,0.0,0.0,0.0,0.0,0.0,0.0,0.0,0.0,0.0,0.0,0.0,0.0,0.0,0.0,0.0,0.0,0.0,0.0,0.0,0.0,0.0,0.0,0.0,0.0,0.0,0.0,0.0,0.0,0.0,0.0,0.0,0.0,0.0,0.0,0.0,0.0,0.0,0.0,0.0,0.0,0.0,0.0,0.0,0.0,0.0,0.0,0.0,0.0,0.0,0.0,0.0,0.0,0.0,0.0,0.0,0.0,0.0,0.0,0.0,0.0,0.0,0.0,0.0,0.0,0.0,0.0,0.0,0.0,0.0,0.0,0.0,0.0,0.0,0.0,4.0795,4.0857,4.0607,0.0,0.0,0.0,0.0,0.0,0.0,0.0,0.0,0.0,0.0,0.0,0.0,0.0,0.0,0.0,0.0,0.0,0.0,0.0,0.0,0.0,0.0,0.0,0.0,0.0,0.0,0.0,0.0,0.0,0.0,0.0,0.0,0.0,0.0,0.0,0.0,0.0,0.0,0.0,0.0,0.0,0.0,0.0,0.0,0.0,0.0,0.0,0.0,0.0,0.0,0.0,0.0,0.0,0.0,0.0,0.0,0.0,0.0,0.0,0.0,0.0,0.0,0.0,0.0,0.0,0.0,0.0,0.0,0.0,0.0,0.0,0.0,0.0,0.0,0.0,0.0,0.0,0.0,0.0,0.0,0.0,0.0,0.0,0.0,0.0,0.0,0.0,0.0,0.0,0.0,0.0,0.0,0.0,0.0,0.0,0.0,0.0,0.0,0.0,0.0,0.0,0.0,0.0,0.0,0.0,0.0,0.0,0.0,0.0,0.0,4.009,4.0945,4.0227,4.025,4.1013,0.0,0.0,0.0,0.0,0.0,0.0,0.0,0.0,0.0,0.0,0.0,0.0,0.0,0.0,0.0,0.0,0.0,0.0,0.0,0.0,0.0,0.0,0.0,0.0,0.0,0.0,0.0,0.0,0.0,0.0,0.0,0.0,0.0,0.0,0.0,0.0,0.0,0.0,0.0,0.0,0.0,0.0,0.0,0.0,0.0,0.0,0.0,0.0,0.0,0.0,0.0,0.0,0.0,0.0,0.0,0.0,0.0,0.0,0.0,0.0,0.0,0.0,0.0,0.0,0.0,0.0,0.0,0.0,0.0,0.0,0.0,0.0,0.0,0.0,0.0,0.0,0.0,0.0,0.0,0.0,0.0,0.0,0.0,0.0,0.0,0.0,0.0,0.0,0.0,0.0,0.0,0.0,0.0,0.0,0.0,0.0,0.0,0.0,0.0,0.0,0.0,0.0,0.0,0.0,0.0,0.0,0.0,0.0,0.0,0.0,0.0,0.0,0.0,0.0,4.1863,0.0,0.0,0.0,0.0,0.0,0.0,0.0,0.0,0.0,0.0,0.0,0.0,0.0,0.0,0.0,0.0,0.0,0.0,0.0,0.0,0.0,0.0,0.0,0.0,0.0,0.0,0.0,0.0,0.0,0.0,0.0,0.0,0.0,0.0,0.0,0.0,0.0,0.0,0.0,0.0,0.0,0.0,0.0,0.0,0.0,0.0,0.0,0.0,0.0,0.0,0.0,0.0,0.0,0.0,0.0,0.0,0.0,0.0,0.0,0.0,0.0,0.0,0.0,0.0,0.0,0.0,0.0,0.0,0.0,0.0,0.0,0.0,0.0,0.0,0.0,0.0,0.0,0.0,0.0,0.0,0.0,0.0,0.0,0.0,0.0,0.0,0.0,0.0,0.0,0.0,0.0,0.0,0.0,0.0,0.0,0.0,0.0,0.0,0.0,0.0,0.0,0.0,0.0,0.0,0.0,0.0,0.0,0.0,0.0,0.0,0.0,0.0,0.0,0.0,0.0,0.0,0.0,0.0,0.0,0.0,0.0,0.0,0.0,0.0,0.0,0.0,0.0,0.0,0.0,0.0,0.0,0.0,0.0,0.0,0.0,0.0,0.0,0.0,0.0,0.0,0.0,0.0,0.0,0.0,0.0,0.0,0.0,0.0,0.0,0.0,0.0,0.0,0.0,0.0,0.0,0.0,0.0,0.0,0.0,0.0,0.0,0.0,0.0,0.0,0.0,0.0,0.0,0.0,0.0,0.0,0.0,0.0,0.0,0.0,0.0,0.0,0.0,0.0,0.0,0.0,0.0,0.0,0.0,0.0,0.0,0.0,0.0,0.0,0.0,0.0,0.0,0.0,0.0,0.0,0.0,0.0,0.0,0.0,0.0,0.0,0.0,0.0,0.0,0.0,0.0,0.0,0.0,0.0,0.0,0.0,0.0,0.0,0.0,0.0,0.0,0.0,0.0,0.0,0.0,0.0,0.0,0.0,0.0,0.0,0.0,0.0,0.0,0.0,0.0,0.0,0.0,0.0,0.0,0.0,0.0,0.0,0.0,0.0,0.0,0.0,0.0,0.0,0.0,0.0,0.0,0.0,0.0,0.0,0.0,0.0,0.0,0.0,0.0,0.0,0.0,0.0,0.0,0.0,0.0,0.0,0.0,0.0,0.0,0.0,0.0,0.0,0.0,0.0,0.0,0.0,0.0,0.0,0.0,0.0,0.0,0.0,0.0,0.0,0.0,0.0,0.0,0.0,0.0,0.0,0.0,0.0,0.0,0.0,0.0,0.0,0.0,0.0,0.0,0.0,0.0,0.0,0.0,0.0,0.0,0.0,0.0,0.0,0.0,0.0,0.0,0.0,0.0,0.0,0.0,0.0,0.0,0.0,0.0,0.0,0.0,0.0,0.0,0.0,0.0,0.0,0.0,0.0,0.0,0.0,0.0,0.0,0.0,0.0,0.0,0.0,0.0,0.0,0.0,0.0,0.0,0.0,0.0,0.0,0.0,0.0,0.0,0.0,0.0,0.0,0.0,0.0,0.0,0.0,0.0,0.0,0.0,0.0,0.0,0.0,0.0,0.0,0.0,0.0,0.0,0.0,0.0,0.0,0.0,0.0,0.0,0.0,0.0,0.0,0.0,0.0,0.0,0.0,0.0,0.0,0.0,0.0,0.0,0.0,0.0,0.0,0.0,0.0,0.0,0.0,0.0,0.0,0.0,0.0,0.0,0.0,0.0,0.0,0.0,0.0,0.0,0.0,0.0,0.0,0.0,0.0,0.0,0.0,0.0,0.0,0.0,0.0,0.0,0.0,0.0,0.0,0.0,0.0,0.0,0.0,0.0,0.0,0.0,0.0,0.0,0.0,0.0,0.0,0.0,0.0,0.0,0.0,0.0,0.0,0.0,0.0,0.0,0.0,0.0,0.0,0.0,0.0,0.0,0.0,0.0,0.0,0.0,0.0,0.0,0.0,0.0,0.0,0.0,0.0,0.0,0.0,0.0,0.0,0.0,0.0,0.0,0.0,0.0,0.0,0.0,0.0,0.0,0.0,0.0,0.0,0.0,0.0,0.0,0.0,0.0,0.0,0.0,0.0,0.0,0.0,0.0,0.0,0.0,0.0,0.0,0.0,0.0,0.0,0.0,0.0,0.0,0.0,0.0,0.0,0.0,0.0,0.0,0.0,0.0,0.0,0.0,0.0,0.0,0.0,0.0,0.0,0.0,0.0,0.0,0.0,0.0,0.0,0.0,0.0,0.0,0.0,0.0,0.0,0.0,0.0,0.0,0.0,0.0,0.0,0.0,0.0,0.0,0.0,0.0,0.0,0.0,0.0,0.0,0.0,0.0,0.0,0.0,0.0,0.0,0.0,0.0,0.0,0.0,0.0,0.0,0.0,0.0,0.0,0.0,0.0,0.0,0.0,0.0,0.0,0.0,0.0,0.0,0.0,0.0,0.0,0.0,0.0,0.0,0.0,0.0,0.0,0.0,0.0,0.0,0.0,0.0,0.0,0.0,0.0,0.0,0.0,0.0,0.0,0.0,0.0,0.0,0.0,0.0,0.0,0.0,0.0,0.0,0.0,0.0,0.0,0.0,0.0,0.0,0.0,0.0,0.0,0.0,0.0,0.0,0.0,0.0,0.0,0.0,0.0,0.0,0.0,0.0,0.0,0.0,0.0,0.0,0.0,0.0,0.0,0.0,0.0,0.0,0.0,0.0,0.0,0.0,0.0,0.0,0.0,0.0,0.0,0.0,0.0,0.0,0.0,0.0,0.0,0.0,0.0,0.0,0.0,0.0,0.0,0.0,0.0,0.0,0.0,0.0,0.0,0.0,0.0,0.0,0.0,0.0,0.0,0.0,0.0,0.0,0.0,0.0,0.0,0.0,0.0,0.0,0.0,0.0,0.0,0.0,0.0,0.0,0.0,0.0,0.0,0.0,0.0,0.0,0.0,0.0,0.0,0.0,0.0,0.0,0.0,0.0,0.0,0.0,0.0,0.0,0.0,0.0,0.0,0.0,0.0,0.0,0.0,0.0,0.0,0.0,0.0,0.0,0.0,0.0,0.0,0.0,0.0,0.0,0.0,0.0,0.0,0.0,0.0,0.0,0.0,0.0,0.0,0.0,0.0,0.0,0.0,0.0,0.0,0.0,0.0,0.0,0.0,0.0,0.0,0.0,0.0,0.0,0.0,0.0,0.0,0.0,0.0,0.0,0.0,0.0,0.0,0.0,0.0,0.0,0.0,0.0,0.0,0.0,0.0,0.0,0.0,0.0,0.0,0.0,0.0,0.0,0.0,0.0,0.0,0.0,0.0,0.0,0.0,0.0,0.0,0.0,0.0,0.0,0.0,0.0,0.0,0.0,0.0,0.0,0.0,0.0,0.0,0.0,0.0,0.0,0.0,0.0,0.0,0.0,0.0,0.0,0.0,0.0,0.0,0.0,0.0,0.0,0.0,0.0,0.0,0.0,0.0,0.0,0.0,0.0,0.0,0.0,0.0,0.0,0.0,0.0,0.0,0.0,0.0,0.0,0.0,0.0,0.0,0.0,0.0,0.0,0.0,0.0,0.0,0.0,0.0,0.0,0.0,0.0,0.0,0.0,0.0,0.0,0.0,0.0,0.0,0.0,0.0,0.0,0.0,0.0,0.0,0.0,0.0,0.0,0.0,0.0,0.0,0.0,0.0,0.0,0.0,0.0,0.0,0.0,0.0,0.0,0.0,0.0,0.0,0.0,0.0,0.0,0.0,0.0,0.0,0.0,0.0,0.0,0.0,0.0,0.0,0.0,0.0,0.0,0.0,0.0,0.0,0.0,0.0,0.0,0.0,0.0,0.0,0.0,0.0,0.0,0.0,0.0,0.0,0.0,0.0,0.0,0.0,0.0,0.0,0.0,0.0,0.0,0.0,0.0,0.0,0.0,0.0,0.0,0.0,0.0,0.0,0.0,0.0,0.0,0.0,0.0,0.0,0.0,0.0,0.0,0.0,0.0,0.0,0.0,0.0,0.0,0.0,0.0,0.0,0.0,0.0,0.0,0.0,0.0,0.0,0.0,0.0,0.0,0.0,0.0,0.0,0.0,0.0,0.0,0.0,0.0,0.0,0.0,0.0,0.0,0.0,0.0,0.0,0.0,0.0,0.0,0.0,0.0,0.0,0.0,0.0,0.0,0.0,0.0,0.0,0.0,0.0,0.0,0.0,0.0,0.0,0.0,0.0,0.0,0.0,0.0,0.0,0.0,0.0,0.0,0.0,0.0,0.0,0.0,0.0,0.0,0.0,0.0,0.0,0.0,0.0,0.0,0.0,0.0,0.0,0.0,0.0,0.0,0.0,0.0,0.0,0.0,0.0,0.0,0.0,0.0,0.0,0.0,0.0]}],[{"header":{"parameterUnit":"kt","parameterCategory":2,"dx":1,"dy":1,"la1":29.587661999999998,"la2":31.0,"lo1":-88.76705300000003,"lo2":-86.6583820000003,"nx":115,"ny":88,"refTime":"2022-10-01T06:00:00:Z","depth":0,"parameterNumber":2,"parameterNumberName":"V-component_of_WINDS"},"data":[4.7876,4.7876,4.7876,4.7876,4.7589,4.7014,4.4067,4.0265,4.1442,3.9096,3.4705,3.3827,3.3827,3.3827,3.3531,3.3226,3.4105,3.3522,3.2939,3.3235,3.1751,3.0868,3.204,3.617,3.4991,3.3226,3.1454,2.9684,3.0272,2.9974,3.1157,3.5296,3.8217,3.9692,4.1465,4.3233,4.5007,4.386,4.3279,4.3279,4.3546,4.3813,4.5031,4.4754,4.2919,4.1408,3.874,3.4344,3.1395,2.9628,2.904,2.8184,2.8207,2.8199,2.7885,2.6666,2.5781,2.5433,2.5127,2.4767,2.4706,2.4261,2.376,2.3582,2.3437,2.32,2.2975,2.2837,2.2496,2.2535,2.2679,2.2613,2.2586,2.2586,2.258,2.2586,2.2586,2.2866,2.2866,2.3145,2.3696,2.4518,2.5338,2.7265,2.9467,3.385,3.7387,3.928,4.1188,4.254,4.4168,4.4448,4.4435,4.4448,4.4435,4.4318,4.4305,4.4383,4.4305,4.4019,4.3682,4.324,4.2902,4.2656,4.2292,4.1877,4.1552,4.137,4.1253,4.1085,4.1059,4.1033,4.1085,4.1656,4.2166,4.7876,4.7876,4.7876,4.7876,4.7589,4.4946,4.3197,4.2024,3.9984,3.7053,3.3827,3.3531,3.3827,3.2642,3.1165,3.057,3.0272,3.0868,3.057,3.0868,3.2048,3.2642,3.4991,3.7924,3.6749,3.4696,3.1743,3.057,2.9386,3.0272,3.2337,3.7043,3.9107,4.0579,4.3801,4.5284,4.4718,4.386,4.3279,4.3279,4.3221,4.344,4.5345,4.6602,4.6602,4.3813,3.9897,3.6336,3.3404,3.1072,2.8161,2.668,2.6081,2.6088,2.5788,2.5488,2.4895,2.4902,2.4601,2.4294,2.4268,2.4195,2.3991,2.3846,2.3773,2.3549,2.3266,2.3114,2.273,2.2646,2.2725,2.2606,2.2873,2.2866,2.2586,2.258,2.258,2.2586,2.258,2.258,2.369,2.479,2.5886,2.7542,3.1109,3.5768,3.8774,4.0662,4.2273,4.3355,4.4168,4.4168,4.4435,4.4448,4.4448,4.4396,4.4383,4.4448,4.4435,4.4409,4.424,4.3798,4.3435,4.3175,4.2825,4.2422,4.2084,4.1695,4.1383,4.1175,4.1111,4.1033,4.1072,4.1461,4.2076,4.7876,4.7602,4.5837,4.6125,4.6713,4.2605,4.0568,4.0265,3.9096,3.5876,3.176,3.1165,3.1157,3.057,2.9983,2.9386,2.9386,2.9095,2.9684,3.1463,3.3235,3.4715,3.7641,4.0568,3.9096,3.763,3.4981,3.2031,2.9974,3.086,3.3513,3.7641,4.0276,4.2047,4.4693,4.4995,4.4428,4.3558,4.3279,4.3279,4.3268,4.3534,4.479,4.6048,4.6338,4.4452,4.1117,3.9043,3.6689,3.4354,2.9644,2.7257,2.5188,2.4895,2.4594,2.4294,2.4294,2.4301,2.4301,2.4301,2.4294,2.4274,2.4149,2.3997,2.3931,2.4564,2.428,2.3496,2.3108,2.4292,2.436,2.3643,2.3623,2.4339,2.4297,2.3989,2.369,2.369,2.3683,2.3683,2.4511,2.5886,2.781,2.9458,3.3019,3.7691,4.0147,4.2029,4.2553,4.3635,4.3635,4.3902,4.4168,4.4435,4.4448,4.4448,4.4448,4.4448,4.4448,4.4422,4.4383,4.4136,4.3915,4.3578,4.324,4.2902,4.2755,4.2297,4.1708,4.1448,4.1253,4.1059,4.1072,4.1162,4.1958,4.7314,4.6413,4.4067,4.4368,4.5824,3.9973,3.763,3.851,3.7043,3.3513,2.9684,2.9394,2.9386,2.9684,2.9394,2.9095,2.9095,2.9394,3.057,3.176,3.3531,3.5,3.851,4.1151,4.0859,3.9388,3.763,3.4991,3.1157,3.2345,3.5296,3.8228,4.0579,4.2628,4.4995,4.5007,4.415,4.357,4.3279,4.3279,4.3268,4.3872,4.4174,4.4839,4.5129,4.3836,4.2965,4.1173,3.9984,3.8217,3.3486,2.9644,2.5788,2.4902,2.4301,2.4301,2.4301,2.4301,2.4301,2.4301,2.4301,2.4294,2.4268,2.4149,2.4726,2.5426,2.5378,2.4274,2.4341,2.5507,2.6116,2.5405,2.4991,2.5923,2.6588,2.5962,2.5068,2.506,2.506,2.5609,2.6164,2.781,3.0,3.2746,3.603,3.8774,4.0979,4.2054,4.259,4.2833,4.2833,4.3368,4.3902,4.4435,4.4435,4.4448,4.4448,4.4448,4.4448,4.4448,4.4435,4.4318,4.4188,4.3902,4.3682,4.3435,4.3316,4.2807,4.2389,4.2049,4.1578,4.1318,4.1266,4.1149,4.1773,4.6125,4.3777,4.3197,4.3487,4.2605,3.7043,3.5876,3.763,3.2633,2.9676,2.9386,2.9095,2.9095,2.9095,2.9095,2.9095,2.9095,2.9088,2.9974,2.9684,3.2642,3.5581,3.851,4.1431,4.114,3.9681,3.762,3.5552,3.1743,3.2642,3.5591,3.7357,4.0579,4.293,4.4416,4.4428,4.415,4.357,4.3279,4.3279,4.3256,4.3511,4.3487,4.386,4.357,4.3499,4.3256,4.2709,4.1476,3.9702,3.6759,3.441,3.0264,2.6994,2.5188,2.4588,2.4888,2.4594,2.4601,2.4301,2.4301,2.4594,2.4301,2.4834,2.6601,2.8161,2.7771,2.6983,2.6916,2.7825,2.9014,2.8843,2.9485,3.0386,3.0169,2.8916,2.8562,2.8512,2.8463,2.8346,2.9191,3.064,3.2851,3.4871,3.8195,3.9452,4.1051,4.1296,4.1541,4.1773,4.2029,4.31,4.3368,4.3902,4.4181,4.4448,4.4448,4.4448,4.4448,4.4448,4.4448,4.4435,4.4422,4.4279,4.411,4.3889,4.3669,4.3318,4.2902,4.2422,4.1955,4.1617,4.1357,4.1201,4.1708,4.7001,4.6125,4.5849,4.3777,3.9681,3.3809,3.2633,3.441,3.1165,2.9095,2.9095,2.9095,2.9095,2.9095,2.9095,2.9095,2.9095,2.9088,2.9974,3.1165,3.3235,3.5581,3.8196,4.0804,4.1117,4.0502,3.8437,3.5808,3.5856,3.617,3.7063,3.9117,4.2058,4.3534,4.4126,4.4138,4.357,4.357,4.3279,4.3279,4.3244,4.3487,4.3499,4.3594,4.3538,4.342,4.3362,4.3723,4.3334,4.2266,3.9531,3.7426,3.5919,3.1829,2.9644,2.514,2.5767,2.6109,2.4895,2.4601,2.5488,2.606,2.5412,2.6615,2.9016,3.114,3.0429,2.9747,2.9993,3.0491,3.1704,3.29,3.3793,3.4949,3.358,3.2224,3.2103,3.202,3.1881,3.1714,3.2567,3.4058,3.5533,3.7814,3.9524,4.0343,4.0877,4.1031,4.117,4.111,4.1907,4.2347,4.2858,4.3418,4.3914,4.4181,4.4194,4.4461,4.4448,4.4448,4.4448,4.4435,4.4435,4.4435,4.4448,4.4331,4.4123,4.3863,4.3526,4.3006,4.25,4.2097,4.201,4.1578,4.218,4.5247,4.5247,4.5247,4.2617,3.851,3.5856,3.4686,3.441,3.0868,2.9095,2.9095,2.9095,2.9095,2.9095,2.9095,2.9095,2.9095,2.9394,3.0885,3.1463,3.1751,3.441,3.6445,3.8176,3.9346,3.874,3.7549,3.5788,3.4962,3.5876,3.6759,3.9702,4.2361,4.3546,4.3848,4.3558,4.357,4.3279,4.3279,4.3268,4.3221,4.3464,4.3664,4.3794,4.3725,4.3571,4.3878,4.4096,4.4166,4.3979,4.2123,3.9999,4.001,3.7966,3.413,2.8914,2.826,2.8552,2.6095,2.4895,2.5488,2.7242,2.9258,3.103,3.3431,3.4962,3.4363,3.3136,3.2509,3.3625,3.4903,3.563,3.6616,3.7506,3.7821,3.6878,3.6171,3.5842,3.503,3.5186,3.6375,3.761,3.8306,4.0049,4.0326,4.0845,4.1279,4.1019,4.1126,4.1066,4.1549,4.1614,4.2115,4.2789,4.3289,4.3826,4.4297,4.4474,4.4461,4.4448,4.4474,4.4487,4.4461,4.4448,4.4448,4.4448,4.4448,4.4214,4.3863,4.3396,4.3097,4.2872,4.248,4.2428,4.2637,3.8803,3.8803,3.8814,3.9096,3.9388,4.2907,4.2303,3.7641,3.1751,2.9127,2.9135,2.9182,2.9222,2.9159,2.9143,2.9182,2.9214,2.9198,2.9781,2.9749,3.0072,3.148,3.3253,3.4077,3.4344,3.4658,3.463,3.2813,2.8475,3.1446,3.4105,3.6465,4.1767,4.3256,4.357,4.357,4.3279,4.3617,4.3641,4.3688,4.3723,4.3629,4.4557,4.449,4.4385,4.4277,4.4488,4.4805,4.4863,4.448,4.4469,4.2638,4.2089,4.285,3.9996,3.6417,3.2424,3.122,2.8883,2.6695,2.7578,3.0918,3.4095,3.6719,3.8217,3.8217,3.763,3.6445,3.6151,3.7286,3.8207,3.9,3.9497,4.016,4.1042,4.0543,3.9987,3.9273,3.8492,3.876,3.9697,4.0414,4.0832,4.1147,4.1427,4.166,4.1531,4.1562,4.1503,4.1397,4.1149,4.1218,4.182,4.2459,4.3025,4.3579,4.3735,4.4194,4.4181,4.4668,4.4552,4.4565,4.4668,4.4694,4.4552,4.4448,4.4448,4.4305,4.4123,4.4019,4.3785,4.3682,4.3942,4.3745,4.3123,4.0948,4.4318,4.2395,4.1442,4.1442,3.9388,3.763,3.5048,3.1428,2.9577,2.9743,2.9774,2.9453,2.9445,2.9476,2.979,2.9782,2.9774,2.9735,2.9443,2.883,2.9316,2.9426,2.9258,3.0231,3.1072,3.1326,3.1013,2.9354,3.0545,3.2624,3.5866,4.0601,4.2675,4.3582,4.3303,4.3315,4.3712,4.4241,4.4312,4.4665,4.5482,4.671,4.5693,4.5275,4.5117,4.4981,4.5297,4.5673,4.5403,4.5309,4.47,4.4292,4.483,4.3982,4.1104,3.7505,3.393,3.3005,3.1061,3.2503,3.4988,3.6859,3.9431,4.1184,4.124,4.0342,4.0071,4.0298,4.133,4.1892,4.2255,4.2469,4.2389,4.2919,4.2406,4.1645,4.1494,4.0917,4.0677,4.1555,4.1777,4.2247,4.2247,4.2247,4.2165,4.2083,4.2071,4.2036,4.168,4.1078,4.1304,4.1625,4.2111,4.2371,4.3027,4.3629,4.3711,4.4184,4.4517,4.4685,4.4413,4.4902,4.5045,4.4694,4.4448,4.4448,4.4461,4.4383,4.4318,4.4318,4.4727,4.5391,4.5059,4.4701,4.0396,4.5312,4.2709,4.2115,4.2579,3.7712,3.512,3.3986,3.2103,3.0853,3.0455,2.9534,2.9216,2.9224,2.9503,2.917,2.9186,2.9209,2.9163,2.888,2.826,2.8102,2.7657,2.7516,2.7683,2.8552,2.9282,2.9555,2.9354,3.0231,3.2014,3.4382,3.7934,4.1184,4.3,4.3479,4.3526,4.3912,4.4868,4.5773,4.5773,4.7975,4.8901,4.685,4.6161,4.5988,4.5473,4.5896,4.6072,4.5884,4.5837,4.5541,4.579,4.5696,4.5755,4.409,4.221,3.8656,3.8504,3.8088,3.8799,3.9616,4.1042,4.1791,4.2941,4.3526,4.3655,4.3478,4.3016,4.3415,4.4183,4.4265,4.4265,4.4183,4.3889,4.3373,4.2998,4.2857,4.2669,4.2423,4.2423,4.2669,4.2775,4.2775,4.2763,4.2705,4.2693,4.2681,4.2411,4.1731,4.1285,4.155,4.1768,4.1852,4.2055,4.2859,4.3298,4.3359,4.3667,4.4217,4.4323,4.4299,4.4646,4.4967,4.4694,4.4448,4.4448,4.4461,4.4513,4.472,4.4876,4.5289,4.569,4.5524,4.5563,3.7144,4.1081,3.9485,4.0571,4.2504,4.0275,3.7094,3.43,3.3785,3.2367,3.0319,2.8724,2.8716,2.9377,2.8471,2.8152,2.8144,2.8108,2.8035,2.8005,2.7673,2.7637,2.7183,2.7025,2.6556,2.7108,2.7803,2.7331,2.525,2.7593,3.1115,3.3486,3.5276,3.7955,4.3047,4.3784,4.403,4.4408,4.5455,4.6905,4.8252,4.9718,4.97,4.7971,4.6862,4.6145,4.5954,4.6283,4.6295,4.6212,4.6212,4.6212,4.6224,4.6166,4.6154,4.6142,4.514,4.5059,4.5529,4.5203,4.4064,4.343,4.2972,4.3439,4.403,4.4077,4.4159,4.4371,4.4546,4.4652,4.4793,4.4816,4.4816,4.4711,4.4429,4.403,4.3643,4.3397,4.3174,4.2939,4.3103,4.3244,4.3244,4.3233,4.3197,4.3197,4.3244,4.3057,4.2693,4.227,4.1989,4.2224,4.22,4.2231,4.1982,4.2451,4.2923,4.2975,4.3336,4.3747,4.3932,4.4578,4.4671,4.4798,4.4837,4.5058,4.4811,4.4526,4.4915,4.5292,4.5435,4.5681,4.5707,4.5759,4.5655,3.6849,4.1115,3.9806,3.8346,3.6938,3.4057,3.2282,3.1415,3.1325,2.9668,2.7646,2.831,2.865,2.8657,2.831,2.8289,2.7942,2.7935,2.8158,2.7756,2.7342,2.6908,2.6768,2.6346,2.5988,2.5604,2.6598,2.6703,2.4571,2.5585,2.9119,3.266,3.4095,3.7886,4.2311,4.4277,4.4558,4.4987,4.6247,4.8088,4.8831,5.0389,5.01,4.7458,4.6607,4.6154,4.6271,4.6353,4.6353,4.6353,4.6353,4.6353,4.6353,4.6353,4.6341,4.6295,4.5855,4.5646,4.5872,4.5684,4.5661,4.5086,4.4793,4.4582,4.4546,4.4546,4.4629,4.4863,4.4875,4.4945,4.5344,4.5356,4.5344,4.5309,4.5016,4.4722,4.4335,4.3796,4.3596,4.3397,4.3291,4.3268,4.3268,4.3256,4.3233,4.3244,4.3279,4.3139,4.2881,4.2716,4.2529,4.2493,4.2493,4.2483,4.2176,4.2505,4.2762,4.2863,4.2981,4.3282,4.4135,4.499,4.5535,4.5472,4.5525,4.5642,4.5551,4.5318,4.5525,4.5863,4.6253,4.6603,4.6629,4.6629,4.6382,3.6989,4.1229,3.8459,3.6388,3.4343,3.1415,2.9928,2.9645,2.9188,2.81,2.6624,2.7301,2.7643,2.7636,2.7643,2.7643,2.765,2.7643,2.7531,2.71,2.7045,2.6624,2.6165,2.5756,2.5349,2.5289,2.5065,2.4887,2.4769,2.4888,2.8714,3.2414,3.4323,3.8656,4.2123,4.4593,4.4887,4.5436,4.7094,4.8354,4.9104,5.0059,4.9814,4.6499,4.6236,4.6306,4.6341,4.6341,4.6353,4.6353,4.6353,4.6353,4.6353,4.6353,4.6353,4.633,4.633,4.6177,4.6036,4.6119,4.6212,4.5802,4.511,4.4783,4.5086,4.5086,4.5145,4.5321,4.5473,4.5591,4.5849,4.5872,4.5837,4.5825,4.5649,4.5368,4.4898,4.4241,4.3901,4.3702,4.3549,4.3338,4.3303,4.3291,4.3279,4.3279,4.3279,4.3256,4.315,4.301,4.2927,4.2881,4.2892,4.2956,4.2861,4.272,4.2578,4.2636,4.2714,4.296,4.3221,4.4493,4.5506,4.6083,4.6014,4.6149,4.6045,4.6019,4.6149,4.6408,4.6824,4.7252,4.7473,4.7577,4.7136,3.6642,4.0392,3.6236,3.4069,3.3502,3.1029,2.9547,2.884,2.8571,2.7958,2.7336,2.6699,2.637,2.6048,2.6363,2.6363,2.6048,2.6048,2.6343,2.6343,2.6041,2.5975,2.5889,2.5738,2.5632,2.5593,2.5355,2.5078,2.4887,2.4894,2.8642,3.3706,3.4469,3.8898,4.2413,4.4643,4.5192,4.5956,4.7235,4.8465,4.9195,4.9245,4.9245,4.6904,4.6295,4.6353,4.6353,4.6353,4.6353,4.6353,4.6353,4.6353,4.6353,4.6353,4.6353,4.6353,4.6353,4.6318,4.6248,4.6295,4.633,4.6212,4.5943,4.5638,4.5626,4.5638,4.5837,4.6119,4.6036,4.6189,4.6236,4.633,4.6224,4.6142,4.5954,4.5755,4.545,4.4781,4.4335,4.4054,4.376,4.3479,4.3385,4.3303,4.3279,4.3279,4.3279,4.3279,4.3221,4.3197,4.3162,4.3162,4.3186,4.3174,4.3115,4.301,4.3038,4.2826,4.272,4.2882,4.3008,4.3445,4.4916,4.5355,4.6352,4.6337,4.6421,4.6681,4.6902,4.7032,4.7149,4.7343,4.7564,4.7746,4.7499,3.3556,3.3269,3.2385,3.1352,3.0726,3.0173,2.9257,2.86,2.7972,2.7664,2.7343,2.637,2.6048,2.6048,2.6048,2.6048,2.6048,2.6048,2.6048,2.6048,2.6048,2.6048,2.6015,2.6001,2.5916,2.5936,2.5626,2.5461,2.5382,2.5676,2.7462,3.1024,3.3883,3.7664,4.124,4.3865,4.5602,4.6072,4.7202,4.7943,4.8302,4.7943,4.725,4.6605,4.6306,4.6353,4.6353,4.6353,4.6353,4.6353,4.6353,4.6353,4.6353,4.6353,4.6353,4.6353,4.6353,4.6353,4.6353,4.6353,4.6353,4.6306,4.6189,4.6083,4.6107,4.6166,4.6283,4.633,4.6353,4.6353,4.6353,4.6353,4.6353,4.6283,4.6201,4.6189,4.6036,4.5462,4.4992,4.457,4.4124,4.3772,4.3479,4.3362,4.3315,4.3303,4.3279,4.3279,4.3268,4.3256,4.3244,4.3233,4.3244,4.3233,4.3221,4.3221,4.3162,4.331,4.3298,4.3373,4.3432,4.4027,4.4608,4.5351,4.6435,4.6555,4.6698,4.7189,4.7681,4.7616,4.7292,4.7629,4.7629,4.7772,4.7681,3.1516,3.0036,3.0036,2.9595,2.8921,2.8943,2.8293,2.765,2.7014,2.6692,2.6699,2.637,2.6048,2.6048,2.6048,2.6048,2.6048,2.6048,2.6048,2.6048,2.6048,2.6048,2.6048,2.6048,2.6048,2.5988,2.5889,2.5777,2.5797,2.609,2.7307,3.0579,3.3996,3.7194,4.1133,4.4341,4.5786,4.6259,4.6664,4.731,4.731,4.694,4.6259,4.6283,4.6318,4.6341,4.6353,4.6353,4.6353,4.6353,4.6353,4.6353,4.6353,4.6353,4.6353,4.6353,4.6353,4.6353,4.6353,4.6353,4.6353,4.6341,4.6341,4.6353,4.6353,4.633,4.633,4.6353,4.6353,4.6353,4.6353,4.6353,4.6353,4.6341,4.6306,4.6295,4.6189,4.5825,4.5485,4.5004,4.4523,4.4101,4.3749,4.3667,4.3631,4.3479,4.3303,4.3291,4.3279,4.3279,4.3279,4.3291,4.3303,4.3338,4.3385,4.3526,4.3514,4.3209,4.3209,4.3735,4.3908,4.4356,4.4524,4.5186,4.6175,4.6602,4.7043,4.7294,4.7442,4.7744,4.7769,4.7602,4.7759,4.7876,4.7811,2.9835,2.9474,2.9482,2.8687,2.7643,2.7671,2.7021,2.6377,2.6048,2.6048,2.6048,2.6048,2.6048,2.6048,2.6048,2.6048,2.6048,2.6048,2.6048,2.6048,2.6048,2.6048,2.6048,2.6048,2.6048,2.6028,2.6021,2.6048,2.6001,2.6001,2.7587,3.0415,3.3538,3.7443,4.0207,4.4002,4.603,4.6341,4.6353,4.6353,4.6341,4.6306,4.6306,4.633,4.6341,4.6353,4.6353,4.6353,4.6353,4.6353,4.6353,4.6353,4.6353,4.6353,4.6353,4.6353,4.6353,4.6353,4.6353,4.6353,4.6353,4.6353,4.6353,4.6353,4.6353,4.6353,4.6353,4.6353,4.6353,4.6353,4.6353,4.6353,4.6353,4.6353,4.6353,4.6353,4.6306,4.6001,4.5755,4.5309,4.5016,4.4558,4.4218,4.4089,4.3901,4.3573,4.3315,4.3291,4.3279,4.3279,4.3279,4.3338,4.3362,4.3526,4.362,4.3925,4.3784,4.3291,4.3561,4.3925,4.4042,4.4146,4.4645,4.4936,4.5758,4.645,4.6458,4.6813,4.7511,4.7447,4.7738,4.7584,4.7666,4.7876,4.7876,2.9747,2.98,2.9153,2.8236,2.7336,2.735,2.7021,2.6048,2.6048,2.6048,2.6048,2.6048,2.6048,2.6048,2.6048,2.6048,2.6048,2.6048,2.6048,2.6048,2.6048,2.6048,2.6048,2.6048,2.6048,2.6048,2.6048,2.6048,2.6048,2.6048,2.6363,2.8906,3.3666,3.6839,3.8735,4.3488,4.5707,4.6353,4.6353,4.6353,4.6353,4.6341,4.6341,4.6353,4.6353,4.6353,4.6353,4.6353,4.6353,4.6353,4.6353,4.6353,4.6353,4.6353,4.6353,4.6353,4.6353,4.6353,4.6353,4.6353,4.6353,4.6353,4.6353,4.6353,4.6353,4.6353,4.6353,4.6353,4.6353,4.6353,4.6353,4.6353,4.6353,4.6353,4.6353,4.6341,4.6295,4.6201,4.5954,4.5743,4.5485,4.5203,4.4992,4.4805,4.4241,4.3889,4.3538,4.3491,4.3279,4.3279,4.3303,4.3373,4.3514,4.369,4.4007,4.4312,4.4241,4.3889,4.4148,4.4394,4.4503,4.4267,4.4585,4.5187,4.5715,4.6045,4.5935,4.6377,4.7189,4.7664,4.7499,4.7575,4.786,4.8019,4.7928,2.8936,2.8622,2.83,2.7657,2.6699,2.6699,2.637,2.6048,2.6048,2.6048,2.6048,2.6048,2.6048,2.6048,2.6048,2.6048,2.6048,2.6048,2.6048,2.6048,2.6048,2.6048,2.6048,2.6048,2.6048,2.6048,2.6048,2.6048,2.6048,2.6048,2.6048,2.7636,3.2711,3.6197,3.7788,4.2862,4.5719,4.6353,4.6353,4.6353,4.6353,4.6353,4.6353,4.6353,4.6353,4.6353,4.6353,4.6353,4.6353,4.6353,4.6353,4.6353,4.6353,4.6353,4.6353,4.6353,4.6353,4.6353,4.6353,4.6353,4.6353,4.6353,4.6353,4.6353,4.6353,4.6353,4.6353,4.6353,4.6353,4.6353,4.6353,4.6353,4.6353,4.6353,4.6353,4.6353,4.6341,4.6341,4.6212,4.6036,4.5872,4.5743,4.5614,4.5168,4.4617,4.4183,4.3819,4.3561,4.3303,4.3279,4.3279,4.342,4.3643,4.3948,4.4406,4.4793,4.4945,4.4734,4.4805,4.4863,4.4746,4.4798,4.4763,4.518,4.5491,4.5789,4.5922,4.6258,4.6856,4.7714,4.7622,4.783,4.8092,4.8096,4.7954,2.7972,2.735,2.735,2.6699,2.6048,2.6048,2.6048,2.6048,2.6048,2.6048,2.6048,2.6048,2.6048,2.6048,2.6048,2.6048,2.6048,2.6048,2.6048,2.6048,2.6048,2.6048,2.6048,2.6048,2.6048,2.6048,2.6048,2.6048,2.6048,2.6048,2.6048,2.7315,3.2711,3.588,3.7788,4.2549,4.6353,4.6353,4.6353,4.6353,4.6353,4.6353,4.6353,4.6353,4.6353,4.6353,4.6353,4.6353,4.6353,4.6353,4.6353,4.6353,4.6353,4.6353,4.6353,4.6353,4.6353,4.6353,4.6353,4.6353,4.6353,4.6353,4.6353,4.6353,4.6353,4.6353,4.6353,4.6353,4.6353,4.6353,4.6353,4.6353,4.6353,4.6353,4.6353,4.6353,4.6353,4.6353,4.6306,4.6248,4.6259,4.6189,4.5896,4.552,4.511,4.4769,4.4218,4.3737,4.3526,4.3455,4.3338,4.3467,4.3737,4.4241,4.4734,4.5157,4.5602,4.5391,4.5391,4.5462,4.5356,4.5086,4.5051,4.5566,4.5637,4.587,4.6101,4.6368,4.6972,4.755,4.7714,4.7829,4.811,4.8408,4.82,2.7671,2.7343,2.6699,2.6048,2.6048,2.6048,2.6048,2.6048,2.6048,2.6048,2.6048,2.6048,2.6048,2.6048,2.6048,2.6048,2.6048,2.6048,2.6048,2.6048,2.6048,2.6048,2.6048,2.6048,2.6048,2.6048,2.6048,2.6048,2.6048,2.6048,2.6048,2.7322,3.2719,3.5889,3.7472,4.2538,4.6353,4.6353,4.6353,4.6353,4.6353,4.6353,4.6353,4.6353,4.6353,4.6353,4.6353,4.6353,4.6353,4.6353,4.6353,4.6353,4.6353,4.6353,4.6353,4.6353,4.6353,4.6353,4.6353,4.6353,4.6353,4.6353,4.6353,4.6353,4.6353,4.6353,4.6353,4.6353,4.6353,4.6353,4.6353,4.6042,4.6042,4.6042,4.6353,4.6353,4.6353,4.6353,4.6042,4.6042,4.5707,4.5696,4.5797,4.5599,4.5331,4.5286,4.4523,4.396,4.3819,4.3667,4.3408,4.3408,4.3889,4.4382,4.4828,4.5274,4.5966,4.5978,4.606,4.6083,4.606,4.5755,4.5567,4.5849,4.5931,4.5907,4.6133,4.6286,4.6777,4.763,4.7939,4.8412,4.8584,4.8733,4.8382,2.6699,2.6699,2.6048,2.6048,2.6048,2.6048,2.6048,2.6048,2.6048,2.6048,2.6048,2.6048,2.6048,2.6048,2.6048,2.6048,2.6048,2.6048,2.6048,2.6048,2.6048,2.6048,2.6048,2.6048,2.6048,2.6048,2.6048,2.6048,2.6048,2.6048,2.6048,2.6685,3.2711,3.5563,3.7156,4.2851,4.5719,4.6341,4.6353,4.6353,4.6353,4.6353,4.6353,4.6353,4.6353,4.6353,4.6353,4.6353,4.6353,4.6353,4.6353,4.6353,4.6353,4.6353,4.6353,4.6353,4.6353,4.6353,4.6353,4.6353,4.6353,4.6353,4.6353,4.6353,4.6353,4.6353,4.6353,4.6353,4.6353,4.6042,4.573,4.573,4.5407,4.5107,4.5419,4.573,4.5742,4.5107,4.5107,4.5107,4.5095,4.5107,4.5084,4.5258,4.497,4.4631,4.3902,4.4171,4.403,4.3608,4.3373,4.3514,4.4019,4.45,4.4934,4.5497,4.6177,4.6353,4.6353,4.6353,4.6353,4.6201,4.6048,4.6107,4.6166,4.6212,4.6189,4.6154,4.6619,4.7409,4.8411,4.868,4.9162,4.8931,4.8759,2.6048,2.6048,2.6048,2.6048,2.6048,2.6048,2.6048,2.6048,2.6048,2.6048,2.6048,2.6048,2.6048,2.6048,2.6048,2.6048,2.6048,2.6048,2.6048,2.6048,2.6048,2.6048,2.6048,2.6048,2.6048,2.6048,2.6048,2.6048,2.6048,2.6048,2.6048,2.6678,3.1763,3.5246,3.683,4.1901,4.5384,4.6341,4.6353,4.6353,4.6353,4.6353,4.6353,4.6353,4.6353,4.6353,4.6353,4.6353,4.6353,4.6353,4.6353,4.6353,4.6353,4.6353,4.6353,4.6353,4.6353,4.6042,4.603,4.5707,4.5707,4.573,4.5742,4.5742,4.573,4.573,4.573,4.573,4.573,4.5419,4.5118,4.4806,4.4482,4.4482,4.4482,4.4471,4.351,4.2884,4.256,4.2884,4.3208,4.3867,4.4169,4.4437,4.4363,4.3649,4.3821,4.3809,4.3688,4.3233,4.3198,4.3608,4.4112,4.4629,4.5074,4.5591,4.6107,4.6353,4.6353,4.6353,4.6353,4.6259,4.6212,4.6271,4.6353,4.6341,4.6295,4.6259,4.6534,4.7392,4.8477,4.8753,4.9271,4.9383,4.92,2.6048,2.6048,2.6048,2.6048,2.6048,2.6048,2.6048,2.6048,2.6048,2.6048,2.6048,2.6048,2.6048,2.6048,2.6048,2.6048,2.6048,2.6048,2.6048,2.6048,2.6048,2.6048,2.6048,2.6048,2.6048,2.6048,2.6048,2.6048,2.6048,2.6048,2.6048,2.7,2.9853,3.3013,3.6514,3.9995,4.3164,4.5707,4.6353,4.6353,4.6353,4.6353,4.6353,4.6353,4.6353,4.6353,4.6353,4.6353,4.6353,4.6353,4.6353,4.6353,4.6353,4.6353,4.6353,4.6353,4.6353,4.6054,4.5419,4.4749,4.4437,4.4482,4.484,4.484,4.4493,4.4493,4.4493,4.4482,4.418,4.4169,4.418,4.418,4.3867,4.3543,4.3532,4.1922,3.968,3.8715,3.9335,3.9335,4.1922,4.3532,4.3867,4.3812,4.3623,4.2769,4.3176,4.3162,4.3052,4.2993,4.3242,4.3595,4.4277,4.4769,4.5215,4.5684,4.6083,4.6353,4.6353,4.6353,4.6353,4.6353,4.6353,4.6353,4.6353,4.6353,4.6353,4.6353,4.6641,4.7512,4.8082,4.8747,4.9362,4.9508,4.9746,2.6048,2.6048,2.6048,2.6048,2.6048,2.6048,2.6048,2.6048,2.6048,2.6048,2.6048,2.6048,2.6048,2.6048,2.6048,2.6048,2.6048,2.6048,2.6048,2.6048,2.6048,2.6048,2.6048,2.6048,2.6048,2.6048,2.6048,2.6048,2.6048,2.6048,2.6048,2.6685,2.9532,3.2703,3.6197,3.967,4.2841,4.5707,4.6353,4.6353,4.6353,4.6353,4.6353,4.6353,4.6353,4.6353,4.6353,4.6353,4.6353,4.6353,4.6353,4.6353,4.6353,4.6353,4.6353,4.6353,4.64,4.5765,4.5118,4.4806,4.418,4.418,4.4192,4.4192,4.3867,4.3867,4.3867,4.3867,4.3867,4.3867,4.3867,4.3554,4.2927,4.1964,3.8764,3.6523,3.6839,3.5237,3.4276,3.4594,3.5554,3.7156,3.907,3.97,4.0616,4.1686,4.2364,4.2469,4.2448,4.2878,4.3338,4.3705,4.3971,4.4875,4.5262,4.5825,4.6271,4.6341,4.6353,4.6353,4.6353,4.6353,4.6353,4.6353,4.6353,4.6353,4.6353,4.6353,4.6664,4.7298,4.762,4.8391,4.9104,4.9666,4.9976,2.6048,2.6048,2.6048,2.6048,2.6048,2.6048,2.6048,2.6048,2.6048,2.6048,2.6048,2.6048,2.6048,2.6048,2.6048,2.6048,2.6048,2.6048,2.6048,2.6048,2.6048,2.6048,2.6048,2.6048,2.6048,2.6048,2.6048,2.6048,2.6048,2.6048,2.6048,2.6048,2.8586,3.1763,3.5563,3.7453,4.0938,4.5396,4.5396,4.5072,4.603,4.6353,4.6353,4.6353,4.6353,4.6353,4.6353,4.6353,4.6353,4.6353,4.6353,4.6353,4.6353,4.6042,4.6042,4.573,4.5453,4.5141,4.4493,4.3867,4.3554,4.323,4.3241,4.3241,4.3241,4.3241,4.3241,4.3241,4.3241,4.3241,4.2917,4.164,4.0686,3.9425,3.5264,3.2065,3.2384,3.1116,2.9838,2.9838,3.0789,3.334,3.5536,3.7024,3.8263,4.0247,4.1374,4.2037,4.1967,4.2369,4.315,4.3508,4.4272,4.4772,4.5356,4.5943,4.6295,4.6341,4.6353,4.6353,4.6353,4.6353,4.6353,4.6353,4.6353,4.6353,4.6353,4.6353,4.6676,4.6999,4.762,4.7919,4.8663,4.9793,4.9781,2.6048,2.6048,2.6048,2.6048,2.6048,2.6048,2.6048,2.6048,2.6048,2.6048,2.6048,2.6048,2.6048,2.6048,2.6048,2.6048,2.6048,2.6048,2.6048,2.6048,2.6048,2.6048,2.6048,2.6048,2.6048,2.6048,2.6048,2.6048,2.6048,2.6048,2.6048,2.6048,2.6678,2.954,3.4611,3.3013,3.7137,4.4448,4.3164,4.3499,4.6088,4.6365,4.6353,4.64,4.6365,4.6353,4.6353,4.6353,4.6353,4.6353,4.6353,4.6353,4.6042,4.5419,4.5107,4.5118,4.3812,4.2873,4.2581,4.1629,4.1,4.0706,4.0706,4.1357,4.0717,4.0391,4.0391,4.0706,4.0706,4.1032,4.0381,3.8458,3.6523,3.588,3.2703,2.9517,2.7294,2.6651,2.633,2.6645,2.9197,3.2376,3.4867,3.5238,3.7069,3.9164,4.0332,4.1015,4.1126,4.1862,4.2917,4.3706,4.451,4.5215,4.5426,4.5978,4.6318,4.6353,4.6353,4.6353,4.6353,4.6353,4.6353,4.6353,4.6353,4.6353,4.6353,4.6353,4.6353,4.6676,4.6999,4.762,4.8192,4.9379,4.9768,2.6048,2.6048,2.6048,2.6048,2.6048,2.6048,2.6048,2.6048,2.6048,2.6048,2.6048,2.6048,2.6048,2.6048,2.6048,2.6048,2.6048,2.6048,2.6048,2.6048,2.6048,2.6048,2.6048,2.6048,2.6048,2.6048,2.6048,2.6048,2.6048,2.6048,2.6048,2.6048,2.6048,2.954,3.5246,3.334,3.6188,4.4125,4.2851,4.2971,4.5392,4.6182,4.6182,4.638,4.6182,4.6365,4.6353,4.6353,4.6353,4.6353,4.6353,4.6377,4.6112,4.5141,4.4504,4.3867,4.1273,3.9011,3.906,3.7846,3.6606,3.5282,3.4946,3.4946,3.4946,3.4955,3.4955,3.4955,3.5264,3.4955,3.4946,3.3658,3.2065,3.0157,2.8564,2.6651,2.3442,2.2802,2.2802,2.3119,2.4069,2.7177,3.0856,3.251,3.445,3.8585,4.0028,4.0648,4.0753,4.1676,4.2399,4.3454,4.4593,4.5209,4.5389,4.5931,4.6306,4.6353,4.6353,4.6353,4.6353,4.6353,4.6353,4.6353,4.6353,4.6353,4.6353,4.6353,4.6353,4.6353,4.6676,4.6987,4.7608,4.8526,4.9242,2.6048,2.6048,2.6048,2.6048,2.6048,2.6048,2.6048,2.6048,2.6048,2.6048,2.6048,2.6048,2.6048,2.6048,2.6048,2.6048,2.6048,2.6048,2.6048,2.6048,2.6048,2.6048,2.6048,2.6048,2.6048,2.6048,2.6048,2.6048,2.6048,2.6048,2.6048,2.6048,2.6048,2.9227,3.3976,3.1435,3.3649,4.1911,4.0938,4.0706,4.2797,4.5522,4.6517,4.645,4.6217,4.6353,4.6353,4.6353,4.6353,4.6353,4.6353,4.6088,4.5198,4.3252,4.1964,4.1378,3.7156,3.4884,3.5237,3.3683,3.209,3.1443,3.2098,3.1779,3.1116,3.1427,3.1427,3.1108,3.1108,3.1108,3.0789,3.0157,2.8243,2.4726,2.4404,2.3442,2.1513,2.0866,2.0866,2.0866,2.0808,2.3252,2.7505,2.8761,3.0732,3.5059,3.7536,3.8517,3.9072,4.0813,4.2721,4.3457,4.4223,4.5258,4.5762,4.6166,4.6353,4.6353,4.6353,4.6353,4.6353,4.6353,4.6353,4.6353,4.6353,4.6353,4.6353,4.6353,4.6353,4.6353,4.6353,4.6664,4.7274,4.7761,4.8477,2.6048,2.6048,2.6048,2.6048,2.6048,2.6048,2.6048,2.6048,2.6048,2.6048,2.6048,2.6048,2.6048,2.6048,2.6048,2.6048,2.6048,2.6048,2.6048,2.6048,2.6048,2.6041,2.6008,2.6001,2.5995,2.5962,2.6015,2.6008,2.5975,2.5988,2.6001,2.6028,2.6008,2.7908,3.1108,2.8557,2.9838,3.5246,3.6514,3.6449,3.7206,4.3121,4.6447,4.6471,4.6388,4.6353,4.6353,4.603,4.5719,4.603,4.5707,4.5488,4.3361,4.0086,3.7193,3.5999,3.308,3.1435,3.1108,2.9131,2.8499,2.9822,3.2483,3.1835,3.0165,2.983,3.0157,2.983,3.015,3.0469,2.9838,2.7929,2.4732,2.1513,2.1513,2.1513,2.0866,2.0866,2.0866,2.0839,2.0686,2.212,2.4503,2.5753,2.7061,3.0837,3.3777,3.6091,3.6759,3.9721,4.256,4.3812,4.4437,4.5084,4.5719,4.6353,4.6353,4.6353,4.6353,4.6353,4.6353,4.6353,4.6353,4.6353,4.6353,4.6353,4.6353,4.6353,4.6353,4.6341,4.633,4.633,4.6785,4.7482,4.7925,2.6048,2.6048,2.6048,2.6048,2.6048,2.6048,2.6048,2.6048,2.6048,2.6048,2.6048,2.6048,2.6048,2.6048,2.6048,2.6048,2.6048,2.6041,2.6048,2.6048,2.6048,2.5942,2.5777,2.5751,2.5659,2.55,2.5474,2.5467,2.5487,2.5659,2.5751,2.5751,2.5751,2.7412,3.0096,2.7412,2.933,3.4259,3.3976,3.4071,3.6099,3.8715,4.164,4.5632,4.6287,4.6353,4.6341,4.4113,4.2841,4.2517,3.9985,3.8114,3.7203,3.462,3.3038,3.2425,2.954,2.7608,2.7287,2.4695,2.3412,2.4075,2.4739,2.5061,2.4398,2.4075,2.4081,2.4075,2.4075,2.4075,2.3753,2.3113,2.2161,2.119,2.0866,2.0866,2.0866,2.086,2.0855,2.0813,2.0644,2.1949,2.4128,2.4527,2.6014,2.9101,3.2708,3.5159,3.5884,3.9136,4.23,4.3543,4.4169,4.4794,4.6042,4.6353,4.6353,4.6353,4.6353,4.6353,4.6353,4.6353,4.6353,4.6353,4.6353,4.6353,4.6353,4.6353,4.6353,4.6353,4.6212,4.5954,4.6428,4.6862,4.7691,2.6048,2.6048,2.6048,2.6048,2.6048,2.6048,2.6048,2.6048,2.6048,2.6048,2.6048,2.6048,2.6048,2.6041,2.5615,2.5517,2.5744,2.5101,2.5101,2.5419,2.5419,2.5315,2.5146,2.5454,2.5395,2.5349,2.5336,2.5342,2.5362,2.5514,2.5606,2.5606,2.5606,2.6693,2.8477,2.6693,2.7639,3.2041,3.1747,3.1499,3.222,3.2479,3.7062,4.5701,4.6274,4.5266,4.2862,4.031,3.903,3.903,3.6169,3.395,3.2996,2.945,2.7531,2.7267,2.5364,2.4087,2.3765,2.2161,2.0866,2.0866,2.0866,2.119,2.0866,2.0866,2.0866,2.0866,2.0866,2.0818,2.0765,2.0665,2.0623,2.0623,2.0623,2.0602,2.0623,2.0623,2.0628,2.0607,2.0501,2.0876,2.2438,2.2977,2.395,2.6118,2.9433,3.1956,3.3876,3.6996,4.0686,4.2906,4.3856,4.4482,4.603,4.6341,4.6353,4.6353,4.6353,4.6353,4.6353,4.6353,4.603,4.603,4.4426,4.4381,4.5337,4.5325,4.4536,4.4844,4.5638,4.5426,4.5356,4.6163,4.7102,2.6048,2.6048,2.6048,2.6048,2.6048,2.6048,2.6048,2.6048,2.6048,2.6048,2.6048,2.6048,2.6028,2.5634,2.4744,2.4818,2.4924,2.3668,2.3367,2.3993,2.3981,2.3943,2.3924,2.4866,2.5289,2.5382,2.5421,2.5481,2.5507,2.558,2.5606,2.5606,2.5606,2.5751,2.6283,2.6069,2.5751,2.6966,2.9212,2.9473,2.6781,2.6206,3.2762,4.3974,4.5554,4.2632,3.7203,3.5237,3.4911,3.4911,3.3306,3.2351,3.1069,2.4883,2.1366,2.1147,2.0829,2.0823,2.0808,2.0802,2.0802,2.0813,2.0781,2.0818,2.0771,2.0797,2.0818,2.0839,2.0797,2.0707,2.0522,2.0369,2.0253,2.0237,2.0216,2.0221,2.0211,2.0258,2.02,2.0221,2.0205,2.0385,1.9878,2.0031,2.0729,2.147,2.3822,2.7223,3.0656,3.4267,3.8114,4.1932,4.3845,4.4482,4.6042,4.6353,4.6353,4.6353,4.6353,4.6353,4.6353,4.6353,4.603,4.5396,4.3389,4.2869,4.384,4.3626,4.2234,4.3469,4.4303,4.4957,4.4828,4.5536,4.6537,2.6048,2.6048,2.6048,2.6048,2.6048,2.6048,2.6048,2.6048,2.6048,2.6048,2.6048,2.6048,2.5504,2.4509,2.3459,2.3386,2.3324,2.3,2.3006,2.3006,2.3006,2.2898,2.2723,2.3636,2.388,2.4098,2.4592,2.4993,2.5026,2.5375,2.5606,2.5606,2.5606,2.5751,2.5982,2.5758,2.5751,2.6021,2.7,2.6973,2.6283,2.6116,3.002,3.7824,3.901,3.823,3.6206,3.3005,3.1092,3.1085,2.7273,2.5036,2.4707,2.2262,2.09,2.0602,2.0469,2.038,2.0374,2.038,2.038,2.0374,2.038,2.0374,2.0401,2.0522,2.0607,2.0596,2.0469,2.0369,2.0279,2.0226,2.0189,2.0184,2.0184,2.0184,2.0174,2.0184,2.0168,2.0168,2.002,1.9899,1.9856,1.9899,2.0084,2.0664,2.3319,2.6307,2.7837,3.3013,3.7769,3.968,4.2873,4.4783,4.6042,4.6353,4.6353,4.6353,4.6353,4.6353,4.6353,4.6341,4.603,4.3634,4.215,4.0996,3.982,3.8694,3.7615,4.0902,4.348,4.4865,4.4523,4.6027,4.6696,2.5698,2.5698,2.5698,2.538,2.5062,2.5062,2.5062,2.5062,2.5062,2.538,2.5698,2.5062,2.4181,2.3148,2.2527,2.2152,2.2373,2.175,2.1442,2.175,2.1745,2.167,2.1836,2.2434,2.3025,2.2988,2.3554,2.3995,2.4071,2.4747,2.5289,2.5606,2.5283,2.5113,2.5358,2.5113,2.5107,2.5396,2.5725,2.6048,2.6034,2.5962,2.7894,3.1555,3.2139,3.1763,3.1116,2.8877,2.6959,2.6303,2.3335,2.1372,2.1366,2.083,2.0385,2.0374,2.0258,2.0184,2.0184,2.0184,2.0184,2.0184,2.0184,2.0184,2.0195,2.0306,2.0337,2.0247,2.0121,2.0041,2.0036,1.9952,1.9899,1.9899,1.9893,1.9888,1.9899,1.9893,1.9899,1.9893,1.9772,1.9714,1.9809,1.9835,2.0031,2.0723,2.2205,2.4532,2.6611,3.142,3.6179,3.903,4.2851,4.5407,4.6042,4.6353,4.5396,4.476,4.5396,4.5396,4.4749,4.4113,4.3701,4.1614,3.8283,3.5865,3.4906,3.4606,3.3896,3.7359,4.0583,4.3332,4.4453,4.5609,4.6795,2.5289,2.527,2.5283,2.4599,2.3999,2.3968,2.3962,2.3955,2.3943,2.4236,2.449,2.3245,2.2164,2.1652,2.1334,2.122,2.1625,2.0081,1.9794,2.0405,2.0383,2.0377,2.0701,2.1294,2.2022,2.2242,2.2503,2.2928,2.2988,2.3884,2.4661,2.5322,2.4687,2.4507,2.4373,2.4507,2.4494,2.4745,2.5396,2.6048,2.5719,2.6048,2.6048,2.6048,2.6048,2.5712,2.5332,2.4075,2.309,2.2404,2.1235,2.0491,2.0469,2.03,2.0179,2.0158,2.0152,2.0142,2.0115,2.0121,2.0115,2.0152,2.0121,2.0105,2.0142,2.0131,2.0026,1.9867,1.9809,1.9798,1.9793,1.9629,1.9529,1.9545,1.9524,1.9476,1.9508,1.9476,1.9476,1.9476,1.9518,1.9555,1.9746,1.9851,2.0047,2.0411,2.097,2.2455,2.5693,3.0142,3.4585,3.8656,4.3088,4.5292,4.5292,4.5649,4.4113,4.1576,4.3175,4.3164,4.1545,4.0562,4.0126,3.7932,3.4922,3.2091,3.1961,3.1639,3.0168,3.3717,3.6441,3.9389,4.344,4.5347,4.666,2.5216,2.4538,2.4655,2.4244,2.3277,2.309,2.3,2.3,2.3,2.2129,2.0847,2.114,2.0819,2.0146,1.9859,1.9832,2.0086,1.9476,1.9481,1.9784,1.9778,1.9778,1.9778,2.0383,2.1009,2.1095,2.1947,2.2486,2.2705,2.3253,2.3488,2.3996,2.3692,2.3722,2.3783,2.3722,2.4045,2.4745,2.4751,2.4745,2.4087,2.5396,2.6048,2.6048,2.6041,2.5942,2.5406,2.4107,2.3068,2.2562,2.1234,2.0263,2.0258,1.9892,1.9782,1.9936,1.96,1.9522,1.9661,1.9635,1.9719,1.9893,1.9746,1.9714,1.9867,1.9746,1.9608,1.9566,1.9566,1.9566,1.9561,1.9502,1.9476,1.9476,1.9476,1.9476,1.9476,1.9476,1.9476,1.9476,1.9476,1.9492,1.9603,1.9878,2.0126,2.0284,2.0617,2.1502,2.3442,2.9183,3.3495,3.6475,3.9498,4.17,4.169,4.1957,4.0907,3.7788,3.8085,3.8371,3.7692,3.7158,3.6307,3.3667,3.1105,2.95,2.7195,2.6075,2.7324,3.0136,3.1851,3.402,4.0153,4.344,4.5729,2.4693,2.3721,2.3903,2.3767,2.2693,2.2252,2.182,2.1716,2.1425,2.0631,1.9455,1.9773,1.9773,1.9476,1.9603,1.9356,1.9361,1.9475,1.9527,1.9517,1.9413,1.9361,1.9345,1.9837,2.0081,2.0091,2.0943,2.1139,2.159,2.2137,2.2334,2.2461,2.3115,2.3169,2.2634,2.2755,2.3142,2.3454,2.3662,2.391,2.3572,2.5075,2.5665,2.5989,2.6172,2.5702,2.4593,2.3215,2.2408,2.1548,2.0222,1.955,1.955,1.9241,1.9184,1.937,1.945,1.9455,1.9318,1.9318,1.9418,1.964,1.955,1.9534,1.9661,1.955,1.9476,1.9476,1.9476,1.9476,1.9476,1.9476,1.9476,1.9476,1.9476,1.9476,1.9476,1.9476,1.9476,1.9476,1.9476,1.9476,1.9476,1.9798,2.002,2.0063,2.0422,2.1388,2.279,2.7675,3.1472,3.2915,3.6101,3.8067,3.8416,3.8753,3.7415,3.4285,3.5103,3.5301,3.3708,3.3407,3.2494,3.0748,2.8634,2.6875,2.5348,2.4505,2.5206,2.7742,2.8604,3.1706,3.6858,4.0838,4.3542,2.3761,2.2492,2.3078,2.2934,2.1791,2.1106,2.0648,2.0151,1.8644,1.8624,1.9492,1.9497,1.9492,1.9502,1.9429,1.8906,1.7977,1.8168,1.7946,1.7937,1.8053,1.8588,1.9517,1.9598,1.9487,1.9502,1.9687,1.9798,1.9851,2.0663,2.1096,2.1442,2.2068,2.2172,2.174,2.1666,2.1787,2.1787,2.2536,2.3068,2.3409,2.4477,2.5296,2.5895,2.5947,2.5128,2.3511,2.2308,2.1438,2.0337,1.9183,1.8747,1.8747,1.843,1.8373,1.862,1.907,1.9161,1.8826,1.8826,1.8942,1.9207,1.9328,1.9333,1.895,1.9323,1.9381,1.9376,1.936,1.9386,1.9381,1.9397,1.9413,1.9418,1.9455,1.9476,1.9476,1.9476,1.9476,1.9476,1.9476,1.9476,1.9497,1.9693,1.9856,1.9904,2.0221,2.1176,2.2861,2.5139,2.7644,3.0122,3.2821,3.4566,3.4977,3.5274,3.3829,3.0726,3.2313,3.2714,3.0234,2.9642,2.9333,2.9031,2.676,2.4888,2.4577,2.4386,2.4721,2.5142,2.6932,3.0305,3.497,3.7841,4.0269,2.2761,2.112,2.0921,2.0825,2.0448,2.0073,1.9579,1.923,1.3921,0.0,0.0,1.9566,1.9566,1.9571,1.9309,1.6538,1.1613,1.1333,1.1345,1.1345,1.1318,1.4379,1.9325,1.9555,1.9524,1.9524,1.9534,1.964,1.983,1.9872,2.0304,2.0487,2.0497,2.0524,2.0572,2.0787,2.09,2.09,2.1494,2.2199,2.2715,2.299,2.3837,2.5243,2.5929,2.5039,2.2603,2.1832,2.0959,2.0303,1.9307,1.8504,1.8499,1.774,1.7474,1.7685,1.769,1.79,1.7431,1.7415,1.76,1.8028,1.8588,1.8378,1.6667,1.8001,1.8916,1.8916,1.8916,1.8916,1.8921,1.9074,1.9185,1.9185,1.9365,1.9465,1.9471,1.9476,1.9444,1.9476,1.946,1.9476,1.9476,1.9672,1.9835,1.9867,2.0068,2.0583,2.0914,2.2091,2.4166,2.7873,2.9781,3.1203,3.1447,3.161,3.039,2.7554,2.6999,2.6817,2.6464,2.594,2.5735,2.591,2.4929,2.4116,2.403,2.3846,2.3819,2.4347,2.501,2.7251,3.3311,3.5438,3.6616,2.1275,1.5672,1.5253,1.5171,0.0,1.4606,1.6465,1.9054,1.6053,1.4592,1.464,1.4461,1.4378,1.4386,1.1152,0.7878,0.4872,0.4905,0.4938,0.5275,1.1425,1.6347,1.9465,1.5915,1.6158,1.9529,1.9518,1.9555,1.965,1.965,1.9714,1.9825,1.983,1.983,1.9835,2.0057,2.0226,2.0348,2.1301,2.1466,2.1793,2.2663,2.3831,2.5328,2.4741,0.0,0.0,0.0,0.0,0.0,0.0,0.0,0.0,0.0,0.0,1.6739,1.6364,1.5767,1.5439,1.5017,1.5025,1.5461,1.5731,1.5177,1.3429,1.4629,1.5818,1.6794,1.7121,1.7832,1.8466,1.88,1.8805,1.88,1.88,1.8847,1.8937,1.8953,1.9001,1.9111,1.9233,1.9302,1.9302,1.9502,1.9645,1.9666,1.9862,2.001,1.9999,2.0522,2.167,2.4098,2.5728,2.6523,2.6677,2.7129,2.6637,2.5983,2.5158,2.4993,2.4966,2.4716,2.4472,2.4314,2.409,2.3892,2.3865,2.3648,2.3575,2.3971,2.4096,2.5947,3.0141,3.1562,3.2581,1.6343,0.8485,0.8478,0.8111,0.8041,0.7991,1.0866,1.5721,1.5867,1.2776,0.7908,0.7718,0.793,0.7349,0.2375,0.0,0.0,0.0,0.0,0.0312,1.0826,1.5745,1.5454,1.2833,1.4305,1.9236,1.9534,1.9518,1.9492,1.9481,1.9476,1.9476,1.9476,1.9476,1.9487,0.0,0.0,0.0,2.0816,2.1077,2.0818,2.2279,2.3445,2.4363,2.2836,0.0,2.145,2.0505,1.9863,1.9526,1.8941,0.0,0.0,0.0,0.0,0.0,0.0,0.0,0.0,0.0,0.0,0.0,1.1282,1.0312,0.9522,1.0356,1.2035,1.4521,1.5236,1.5766,1.6808,1.7027,1.6978,1.6439,1.7183,1.7764,1.8292,1.8324,1.843,1.8995,1.8884,1.9011,1.9064,1.9265,1.9407,1.9423,1.9613,1.974,1.9703,2.0184,2.0388,2.0701,2.1842,2.2615,2.3284,2.3755,2.4483,2.4742,2.4828,2.4597,2.4544,2.4327,2.405,2.3872,2.376,2.3707,2.3707,2.3483,2.3338,2.3654,2.3714,2.4484,2.6689,2.7492,2.9527,0.2617,0.1309,0.1309,0.1308,0.1303,0.1264,0.1561,0.2498,0.2493,0.1855,0.1219,0.119,0.1178,0.1178,0.0295,0.0,0.0,0.0,0.0,0.0,0.1781,0.2387,0.3011,1.3256,1.8503,1.9288,1.955,1.9534,1.9524,1.9492,1.9476,1.9476,1.9476,1.9476,1.9481,1.9539,1.9582,1.9624,2.0184,2.0596,2.0834,2.147,2.1682,2.1461,2.124,2.0778,2.0395,1.9773,1.9494,1.9312,1.8594,1.8065,1.7785,1.6385,1.5154,0.0,1.2156,0.0,0.0,0.0,0.0,0.0,0.0,0.0,0.0,0.6077,0.8475,1.3177,1.3416,1.3148,1.2024,1.1883,1.1224,0.9239,1.202,1.4952,1.7828,1.8441,1.8615,1.9067,1.8818,1.861,1.8794,1.9027,1.917,1.9185,1.9339,1.9376,1.927,1.9349,1.9746,2.0383,2.0898,2.1716,2.2509,2.3062,2.3554,2.3817,2.3757,2.401,2.401,2.3773,2.3556,2.3496,2.3312,2.314,2.3114,2.2896,2.2804,2.3061,2.3094,2.2929,2.3329,2.5287,2.767,0.0,0.0,0.0,0.0,0.0,0.0,0.0,0.0,0.0,0.0,0.0,0.0,0.0,0.0,0.0,0.0,0.0,0.0,0.0,0.0,0.0,0.0,0.0,0.594,1.2527,1.9233,1.5856,1.5834,1.9138,1.9117,1.9101,1.9101,1.9244,1.6953,1.3313,1.5841,1.8226,1.9837,2.0063,2.057,2.0703,2.1056,2.1008,2.0903,2.0808,2.058,2.02,2.0197,1.9886,1.9291,1.8884,1.8266,1.7394,1.5689,1.3967,0.0,0.0,0.0,0.0,0.0,0.0,0.0,0.0,0.0,0.0,0.0,0.3829,0.6323,0.8075,0.841,0.7004,0.684,0.8354,1.2197,1.4269,1.5083,1.5005,1.3979,1.374,1.4931,1.6472,1.7412,1.7062,1.7667,1.8503,1.8927,1.8699,1.8573,1.8726,1.8948,1.9143,1.9564,2.0086,2.0293,2.0692,2.1421,2.1803,2.225,2.2627,2.3056,2.305,2.3238,2.3391,2.3233,2.3094,2.2956,2.2784,2.254,2.2375,2.2474,2.1841,2.1098,2.0866,2.2259,2.4239,0.0,0.0,0.0,0.0,0.0,0.0,0.0,0.0,0.0,0.0,0.0,0.0,0.0,-0.0,-0.0258,-0.0784,-0.1338,-0.082,-0.0559,0.0,0.0,0.0,0.0,0.0,0.5257,1.4332,1.1334,1.2776,1.8668,1.8191,1.7832,1.7883,1.612,1.2401,0.7053,1.3151,1.7753,2.007,2.0261,2.0501,2.0786,2.0807,2.0807,2.0807,2.0755,2.0808,2.029,2.011,1.9767,1.9228,1.8492,1.7712,1.6765,1.4658,0.0,0.0,0.0,0.0,0.0,0.0,0.0,0.0,0.0,-0.0615,-0.0466,0.0,-0.038,0.0,0.2881,0.4011,0.2795,0.3016,0.0,0.0,1.2993,1.197,0.969,0.9057,0.9118,0.995,1.3535,1.5927,1.5144,1.6084,1.7254,1.7982,1.7696,1.7582,1.7858,1.8477,1.8752,1.8858,1.9006,1.9143,1.9122,1.9623,2.0095,2.0852,2.1302,2.2088,2.2088,2.2567,2.2678,2.2745,2.2411,2.2326,2.2125,2.1648,2.1487,2.1391,2.0359,1.9368,1.9368,1.9895,2.0954,0.0,0.0,0.0,0.0,0.0,0.0,0.0,0.0,0.0,0.0,0.0,0.0,0.0,-0.0,-0.094,0.0,-0.5053,-0.3293,-0.1566,0.0,0.0,0.0,0.0,0.0,0.0569,0.0,0.7014,1.2921,1.8485,1.6715,1.5408,1.5025,0.8074,0.4311,0.4305,1.3895,1.9575,2.0156,2.0202,2.0438,2.0882,2.0897,2.0897,2.0897,2.0691,2.0549,2.048,1.9878,1.9508,1.9397,1.7264,1.604,1.5252,0.0,0.0,0.0,0.0,0.0,0.0,0.0,0.0,0.0,0.0,0.0,0.0,0.0,0.0,0.0,-0.0408,0.0,0.0228,0.1088,0.0,0.0,0.0,0.1526,0.0198,0.4445,0.7135,0.5818,0.0,0.0,1.3065,1.4229,1.527,1.5818,1.6564,1.6851,1.668,1.7743,1.8393,1.8213,1.8197,1.8203,1.8271,1.8361,1.9067,1.9776,2.0424,2.0664,2.12,2.1148,2.1075,2.1591,2.1269,2.0728,2.0703,2.0133,1.9773,1.952,1.9023,1.8863,1.8881,1.8881,1.9153,0.0,-0.0,-0.0456,-0.0663,-0.066,-0.1361,-0.2098,-0.287,-0.3205,-0.221,-0.0,-0.0472,-0.0682,-0.0852,-0.2036,0.0,0.0,0.0,-0.3135,-0.3293,-0.2597,-0.1323,0.0,0.0,0.0,0.0,1.0136,1.5986,1.851,1.7095,1.4137,0.938,0.0,0.0,0.1124,0.7607,1.1217,1.1843,1.7372,2.0615,2.0855,2.0866,2.0866,2.0866,2.0964,2.0707,2.011,1.9561,1.8523,1.7284,1.5783,1.3977,0.0,0.0,0.0,0.0,0.0,0.0,0.0,0.0,0.0,0.0,0.0,-0.2298,-0.2091,0.0,0.0,0.0,-0.2229,-0.1793,-0.1557,-0.0788,0.0,0.0,0.0,0.0,0.0,0.0,0.0,0.2347,0.5751,0.9364,1.268,1.1328,1.0727,1.3281,1.3771,1.3972,1.4649,0.0,1.6145,1.7002,1.7202,1.7166,1.7859,1.7732,1.7579,1.8076,1.8434,1.8897,1.9312,1.9731,1.9913,2.031,2.0084,2.009,2.009,1.8632,1.7518,1.7424,1.7435,1.7474,1.7474,1.7992,1.825,-0.0225,0.0,0.0,0.0,0.0,-0.2961,-0.3881,-0.5079,-0.5008,-0.3461,-0.1046,-0.2066,0.0,0.0,0.0,0.0,0.0,0.0,-0.4212,-0.5357,-0.4213,-0.2549,-0.0766,-0.0257,-0.0256,-0.0255,1.1209,1.7269,1.749,1.4006,0.945,0.451,0.0,0.0,0.0,0.0,0.3764,0.6341,1.5541,2.0503,2.076,2.0834,2.0866,2.0866,2.0841,2.0454,1.974,1.8596,1.7248,1.5692,1.366,0.0,0.0,0.0,0.0,0.0,0.0,0.0,0.0,0.0,0.0,0.0,0.0,0.0,0.0,0.0,0.0,0.0,0.0,0.0,-0.3024,-0.2487,-0.2143,0.0,0.0,0.0,0.0,0.0,0.0,0.0,0.0,0.0,1.0597,0.8204,0.7323,0.0,0.0,1.2958,1.3113,1.3648,1.447,1.5576,1.5765,0.0,1.6608,1.6871,1.6612,1.6512,1.7003,1.7292,1.7139,1.7186,1.7351,1.7918,1.8049,1.7986,1.7209,1.573,1.4693,1.4698,1.4606,1.4742,1.4747,1.5299,1.5574,0.0,0.0,0.0,0.0,0.0,0.0,0.0,0.0,-0.4075,-0.3108,0.0,-0.5106,0.0,0.0,0.0,0.0,-0.612,-0.5036,0.0,0.0,-0.4296,-0.3464,-0.2892,-0.0975,-0.0732,-0.168,0.8595,1.4748,1.5955,0.5145,0.0,0.0,0.0,0.0,0.0,0.0,-0.0709,0.6014,1.5873,2.0745,2.0522,2.0749,2.0866,2.0855,2.0546,2.0057,1.9429,1.7182,1.5667,1.4708,1.1218,0.0,0.0,0.0,0.0,0.0,0.0,0.0,0.0,0.0,0.0,0.0,0.0,0.0,0.0,0.0,0.0,0.0,0.0,0.0,0.0,-0.3561,0.0,0.0,0.0,0.0,0.0,0.0,0.0,0.0,0.0,0.2519,0.5683,0.5222,0.5715,0.917,0.0,0.0,0.0,0.0,1.4477,1.3624,1.3807,1.4498,1.4807,1.548,1.5777,1.5973,0.0,0.0,1.5226,1.3777,1.2931,1.3787,1.4518,1.4133,1.199,1.1175,1.0941,1.0936,1.0643,1.0304,1.0319,1.0671,1.1013,0.0,0.0,0.0,0.0,0.0,0.0,0.0,0.0,0.0,-0.5064,0.0,-0.523,0.0,0.0,0.0,0.0,0.0,0.0,0.0,0.0,-0.4421,-0.356,-0.2751,-0.1916,-0.1916,0.0,0.1611,0.3897,0.0,0.0,0.0,0.0,0.0,0.0,0.0,0.0,-0.0224,0.7601,1.6223,2.0587,2.0475,2.0591,2.0391,2.0855,2.0809,1.9529,1.7103,1.4986,1.2775,0.0,0.0,0.0,0.0,0.0,0.0,0.0,0.0,0.0,0.0,0.0,0.0,0.0,0.0,0.0,0.0,0.0,0.0,0.0,0.0,0.0,0.0,0.0,-0.5682,0.0,0.0,0.0,0.0,0.0,0.0,0.0,0.0,0.0,0.0,0.074,0.2051,0.458,0.581,0.8007,1.2769,0.0,0.0,0.0,0.0,0.0,0.0,0.0,1.5032,1.4048,1.3627,1.3192,1.239,1.1683,1.1254,1.1767,0.0,0.0,1.0845,1.0822,1.0762,1.0245,1.028,0.988,0.8262,0.7969,0.8098,0.0,0.0,0.0,0.0,0.0,0.0,0.0,0.0,0.0,-0.6249,-0.5638,0.0,0.0,0.0,0.0,0.0,0.0,0.0,0.0,0.0,0.0,0.0,-0.2964,-0.2781,0.0,0.0,0.0,0.0,0.0,0.0,0.0,0.0,0.0,0.0,0.0,0.0,0.0,0.8303,1.6108,2.0294,2.0369,2.0157,2.0266,2.0739,2.0852,1.9692,1.6973,0.0,0.0,0.0,0.0,0.0,0.0,0.0,0.0,0.0,0.0,0.0,0.0,0.0,0.0,0.0,0.0,0.0,0.0,0.0,0.0,0.0,0.0,0.0,0.0,0.0,-0.7082,0.0,0.0,0.0,0.0,0.0,0.0,0.0,0.0,0.0,0.0,-0.2165,-0.1312,0.0406,0.1325,0.3978,0.8863,0.8862,0.9316,0.0,0.0,0.0,0.0,0.0,0.0,0.0,0.0,0.0,0.0,0.0,0.0,0.0,0.0,0.7834,0.7648,0.7691,0.7634,0.7042,0.0,0.0,0.0,0.0,0.0,0.0,0.0,0.0,0.0,0.0,0.0,0.0,0.0,0.0,0.0,-0.6379,0.0,0.0,-0.6274,0.0,0.0,0.0,0.0,0.0,0.0,0.0,0.0,0.0,0.0,0.0,0.0,0.0,0.0,0.0,0.0,0.0,0.0,0.0,0.0,0.0,0.0,-0.0208,0.7696,1.5883,2.02,2.0152,2.0074,2.0183,2.0193,2.0605,2.02,1.8777,0.0,0.0,0.0,0.0,0.0,0.0,0.0,0.0,0.0,0.0,0.0,0.0,0.0,0.0,0.0,0.0,0.0,0.0,0.0,0.0,0.0,0.0,0.0,0.0,0.0,0.0,-0.6751,-0.5833,-0.5164,0.0,0.0,0.0,0.0,0.0,0.0,0.0,0.0,0.0,-0.3395,0.0207,0.228,0.0917,0.3619,0.573,0.6153,0.8826,1.1511,1.3714,1.473,1.5298,0.0,0.0,0.0,0.0,0.0,0.0,0.0,0.0,0.0,0.0,0.0,0.0,0.0,0.0,0.0,0.0,0.0,0.0,0.0,0.0,0.0,0.0,0.0,0.0,0.0,0.0,0.0,0.0,0.0,0.0,0.0,0.0,0.0,0.0,0.0,0.0,0.0,0.0,0.0,0.0,0.0,0.0,0.0,0.0,0.0,0.0,0.0,0.0,0.0,0.0,0.0,0.0,0.0,0.0,-0.1212,0.5739,1.4986,1.9796,2.0272,2.0503,2.0364,2.0167,1.982,1.8791,0.0,0.0,0.0,0.0,0.0,0.0,0.0,0.0,0.0,0.0,0.0,0.0,0.0,0.0,0.0,0.0,0.0,0.0,0.0,0.0,0.0,0.0,0.0,0.0,0.0,0.0,0.0,0.0,-0.7492,-0.6603,-0.4258,0.0,0.0,0.0,0.0,0.0,0.0,0.0,0.0,0.0,0.0,-0.3258,-0.5239,-0.2871,0.1479,0.81,0.9144,1.0117,1.3293,1.4634,1.4669,1.3098,0.0,0.0,0.0,0.0,0.0,0.0,0.0,0.0,0.0,0.0,0.0,0.0,0.0,0.0,0.0,0.0,0.0,0.0,0.0,0.0,0.0,0.0,0.0,0.0,0.0,0.0,0.0,0.0,0.0,0.0,0.0,0.0,0.0,0.0,0.0,0.0,0.0,0.0,0.0,0.0,0.0,0.0,0.0,0.0,0.0,0.0,0.0,0.0,0.0,0.0,0.0,0.0,0.0,-0.1775,0.4747,1.1016,1.5988,1.983,2.0401,2.061,2.0188,1.9455,1.7896,0.0,0.0,0.0,0.0,0.0,0.0,0.0,0.0,0.0,0.0,0.0,0.0,0.0,0.0,0.0,0.0,0.0,0.0,0.0,0.0,0.0,0.0,0.0,0.0,0.0,0.0,0.0,0.0,-0.8022,-0.7024,-0.4721,0.0,0.0,0.0,0.0,0.0,0.0,0.0,0.0,0.0,0.0,-0.6168,-0.766,-0.46,0.0,0.0,0.7912,1.0596,1.2597,1.4366,1.4932,1.305,1.0991,0.0,0.0,0.0,0.0,0.0,0.0,0.0,0.0,0.0,0.0,0.0,0.0,0.0,0.0,0.0,0.0,0.0,0.0,0.0,0.0,0.0,0.0,0.0,0.0,0.0,0.0,0.0,0.0,0.0,0.0,0.0,0.0,0.0,0.0,0.0,0.0,0.0,0.0,0.0,0.0,0.0,0.0,0.0,0.0,0.0,0.0,0.0,0.0,0.0,0.0,0.0,0.0,-0.2128,0.3999,0.4384,0.9476,1.9184,2.0063,2.0274,2.0136,1.9446,1.7155,0.0,0.0,0.0,0.0,0.0,0.0,0.0,0.0,0.0,0.0,0.0,0.0,0.0,0.0,0.0,0.0,0.0,0.0,0.0,0.0,0.0,0.0,0.0,0.0,0.0,0.0,0.0,0.0,0.0,0.0,0.0,0.0,0.0,0.0,0.0,0.0,0.0,0.0,0.0,0.0,0.0,-0.7167,-0.7174,-0.3232,-0.0667,0.0,0.6077,1.1664,1.1803,1.4035,1.5223,1.4001,0.0,0.0,0.0,0.0,0.0,0.0,0.0,0.0,0.0,0.0,0.0,0.0,0.0,0.0,0.0,0.0,0.0,0.0,0.0,0.0,0.0,0.0,0.0,0.0,0.0,0.0,0.0,0.0,0.0,0.0,0.0,0.0,0.0,0.0,0.0,0.0,0.0,0.0,0.0,0.0,0.0,0.0,0.0,0.0,0.0,0.0,0.0,0.0,0.0,0.0,0.0,0.0,0.0,0.0,-0.3442,-0.228,0.5104,1.8968,2.017,2.0691,2.0237,1.9043,0.0,0.0,0.0,0.0,0.0,0.0,0.0,0.0,0.0,0.0,0.0,0.0,0.0,0.0,0.0,0.0,0.0,0.0,0.0,0.0,0.0,0.0,0.0,0.0,0.0,0.0,0.0,-0.9145,0.0,0.0,0.0,0.0,0.0,0.0,0.0,0.0,0.0,0.0,0.0,0.0,0.0,0.0,-0.9527,-0.8438,-0.8101,-0.5486,0.0,0.0,1.0096,1.0092,1.2196,1.3158,0.0,0.0,0.0,0.0,0.0,0.0,0.0,0.0,0.0,0.0,0.0,0.0,0.0,0.0,0.0,0.0,0.0,0.0,0.0,0.0,0.0,0.0,0.0,0.0,0.0,0.0,0.0,0.0,0.0,0.0,0.0,0.0,0.0,0.0,0.0,0.0,0.0,0.0,0.0,0.0,0.0,0.0,0.0,0.0,0.0,0.0,0.0,0.0,0.0,0.0,0.0,0.0,0.0,0.0,-0.5943,-0.5959,-0.2222,0.332,1.0837,1.7456,2.0819,2.0492,1.8123,1.5312,0.0,0.0,0.0,0.0,0.0,0.0,0.0,0.0,0.0,0.0,0.0,0.0,0.0,0.0,0.0,0.0,0.0,0.0,0.0,0.0,0.0,0.0,0.0,0.0,0.0,0.0,0.0,0.0,0.0,0.0,0.0,0.0,0.0,0.0,0.0,0.0,0.0,0.0,0.0,0.0,0.0,0.0,-0.8648,-0.7936,0.0,0.0,0.0,0.8058,0.8855,0.0,0.0,0.0,0.0,0.0,0.0,0.0,0.0,0.0,0.0,0.0,0.0,0.0,0.0,0.0,0.0,0.0,0.0,0.0,0.0,0.0,0.0,0.0,0.0,0.0,0.0,0.0,0.0,0.0,0.0,0.0,0.0,0.0,0.0,0.0,0.0,0.0,0.0,0.0,0.0,0.0,0.0,0.0,0.0,0.0,0.0,0.0,0.0,0.0,0.0,0.0,0.0,0.0,0.0,0.0,0.0,0.0,-0.5908,0.024,0.242,0.0889,1.359,2.0631,2.0707,1.7042,1.4116,0.0,0.0,0.0,0.0,0.0,0.0,0.0,0.0,0.0,0.0,0.0,0.0,0.0,0.0,0.0,0.0,0.0,0.0,0.0,0.0,0.0,0.0,0.0,0.0,0.0,0.0,0.0,0.0,0.0,0.0,0.0,0.0,0.0,0.0,0.0,0.0,0.0,0.0,0.0,0.0,0.0,-0.9526,-0.8526,-0.6021,-0.3252,0.0,0.0,0.5814,0.7937,0.9844,0.0,0.0,0.0,0.0,0.0,0.0,0.0,0.0,0.0,0.0,0.0,0.0,0.0,0.0,0.0,0.0,0.0,0.0,0.0,0.0,0.0,0.0,0.0,0.0,0.0,0.0,0.0,0.0,0.0,0.0,0.0,0.0,0.0,0.0,0.0,0.0,0.0,0.0,0.0,0.0,0.0,0.0,0.0,0.0,0.0,0.0,0.0,0.0,0.0,0.0,0.0,0.0,0.0,0.0,0.0,0.0,-0.7127,-0.4236,-0.186,0.0293,1.2849,1.9719,1.9629,1.6602,1.3994,0.0,0.0,0.0,0.0,0.0,0.0,0.0,0.0,0.0,0.0,0.0,0.0,0.0,0.0,0.0,0.0,0.0,0.0,0.0,0.0,0.0,0.0,0.0,0.0,0.0,0.0,0.0,0.0,0.0,0.0,0.0,0.0,0.0,0.0,0.0,0.0,0.0,0.0,0.0,0.0,0.0,-1.1861,-0.9772,-0.8386,0.0,0.0,0.0,0.0,0.536,0.6965,0.0,0.0,0.0,0.0,0.0,0.0,0.0,0.0,0.0,0.0,0.0,0.0,0.0,0.0,0.0,0.0,0.0,0.0,0.0,0.0,0.0,0.0,0.0,0.0,0.0,0.0,0.0,0.0,0.0,0.0,0.0,0.0,0.0,0.0,0.0,0.0,0.0,0.0,0.0,0.0,0.0,0.0,0.0,0.0,0.0,0.0,0.0,0.0,0.0,0.0,0.0,0.0,0.0,0.0,0.0,0.0,-0.7232,-0.5446,-0.3594,-0.2029,0.5861,1.302,1.9164,1.6443,1.3692,0.0,0.0,0.0,0.0,0.0,0.0,0.0,0.0,0.0,0.0,0.0,0.0,0.0,0.0,0.0,0.0,0.0,0.0,0.0,0.0,0.0,0.0,0.0,0.0,0.0,0.0,0.0,0.0,0.0,0.0,0.0,0.0,0.0,0.0,0.0,0.0,0.0,0.0,0.0,0.0,-1.2213,-1.0946,-0.9257,0.0,0.0,0.0,0.0,0.0,0.0,0.4449,0.5925,0.0,0.0,0.0,0.0,0.0,0.0,0.0,0.0,0.0,0.0,0.0,0.0,0.0,0.0,0.0,0.0,0.0,0.0,0.0,0.0,0.0,0.0,0.0,0.0,0.0,0.0,0.0,0.0,0.0,0.0,0.0,0.0,0.0,0.0,0.0,0.0,0.0,0.0,0.0,0.0,0.0,0.0,0.0,0.0,0.0,0.0,0.0,0.0,0.0,0.0,0.0,0.0,0.0,0.0,0.0,-0.691,-0.5439,-0.4434,-0.3973,-0.1433,0.5775,1.7208,1.5851,1.35,1.151,0.0,0.0,0.0,0.0,0.0,0.0,0.0,0.0,0.0,0.0,0.0,0.0,0.0,0.0,0.0,0.0,0.0,0.0,0.0,0.0,0.0,0.0,0.0,0.0,0.0,0.0,0.0,0.0,0.0,0.0,0.0,0.0,0.0,0.0,0.0,0.0,0.0,0.0,0.0,-1.116,-0.9242,0.0,0.0,0.0,0.0,0.0,0.0,0.0,0.0,0.4105,0.0,0.0,0.0,0.0,0.0,0.0,0.0,0.0,0.0,0.0,0.0,0.0,0.0,0.0,0.0,0.0,0.0,0.0,0.0,0.0,0.0,0.0,0.0,0.0,0.0,0.0,0.0,0.0,0.0,0.0,0.0,0.0,0.0,0.0,0.0,0.0,0.0,0.0,0.0,0.0,0.0,0.0,0.0,0.0,0.0,0.0,0.0,0.0,0.0,0.0,0.0,0.0,0.0,0.0,0.0,0.0,-0.5885,-0.5023,-0.35,-0.1117,0.3406,1.0519,1.4345,1.4523,1.0515,0.0,0.0,0.0,0.0,0.0,0.0,0.0,0.0,0.0,0.0,0.0,0.0,0.0,0.0,0.0,0.0,0.0,0.0,0.0,0.0,0.0,0.0,0.0,0.0,0.0,0.0,0.0,0.0,0.0,0.0,0.0,0.0,0.0,0.0,0.0,0.0,0.0,0.0,-1.3497,-1.1303,0.0,0.0,0.0,0.0,0.0,0.0,0.0,0.0,0.167,0.0,0.0,0.0,0.0,0.0,0.0,0.0,0.0,0.0,0.0,0.0,0.0,0.0,0.0,0.0,0.0,0.0,0.0,0.0,0.0,0.0,0.0,0.0,0.0,0.0,0.0,0.0,0.0,0.0,0.0,0.0,0.0,0.0,0.0,0.0,0.0,0.0,0.0,0.0,0.0,0.0,0.0,0.0,0.0,0.0,0.0,0.0,0.0,0.0,0.0,0.0,0.0,0.0,0.0,0.0,0.0,0.0,0.0,-0.5055,-0.3385,-0.2719,0.1386,0.8564,1.2541,1.2983,0.0,0.0,0.0,0.0,0.0,0.0,0.0,0.0,0.0,0.0,0.0,0.0,0.0,0.0,0.0,0.0,0.0,0.0,0.0,0.0,0.0,0.0,0.0,0.0,0.0,0.0,0.0,0.0,0.0,0.0,0.0,0.0,0.0,0.0,0.0,0.0,0.0,0.0,0.0,0.0,0.0,0.0,0.0,0.0,0.0,0.0,0.0,0.0,0.0,0.0,0.0,0.0,0.0,0.0,0.0,0.0,0.0,0.0,0.0,0.0,0.0,0.0,0.0,0.0,0.0,0.0,0.0,0.0,0.0,0.0,0.0,0.0,0.0,0.0,0.0,0.0,0.0,0.0,0.0,0.0,0.0,0.0,0.0,0.0,0.0,0.0,0.0,0.0,0.0,0.0,0.0,0.0,0.0,0.0,0.0,0.0,0.0,0.0,0.0,0.0,0.0,0.0,0.0,0.0,0.0,0.0,0.0,0.0,-0.5293,-0.3761,-0.397,0.0271,0.9752,1.116,1.0217,0.0,0.0,0.0,0.0,0.0,0.0,0.0,0.0,0.0,0.0,0.0,0.0,0.0,0.0,0.0,0.0,0.0,0.0,0.0,0.0,0.0,0.0,0.0,0.0,0.0,0.0,0.0,0.0,0.0,0.0,0.0,0.0,0.0,0.0,0.0,0.0,0.0,0.0,0.0,0.0,0.0,0.0,0.0,0.0,0.0,0.0,0.0,0.0,-0.3266,0.0,0.0,0.0,0.0,0.0,0.0,0.0,0.0,0.0,0.0,0.0,0.0,0.0,0.0,0.0,0.0,0.0,0.0,0.0,0.0,0.0,0.0,0.0,0.0,0.0,0.0,0.0,0.0,0.0,0.0,0.0,0.0,0.0,0.0,0.0,0.0,0.0,0.0,0.0,0.0,0.0,0.0,0.0,0.0,0.0,0.0,0.0,0.0,0.0,0.0,0.0,0.0,0.0,0.0,0.0,0.0,0.0,0.0,0.0,-0.6612,-0.5433,-0.4627,0.2141,1.4991,0.9939,0.6594,0.0,0.0,0.0,0.0,0.0,0.0,0.0,0.0,0.0,0.0,0.0,0.0,0.0,0.0,0.0,0.0,0.0,0.0,0.0,0.0,0.0,0.0,0.0,0.0,0.0,0.0,0.0,0.0,0.0,0.0,0.0,0.0,0.0,0.0,0.0,0.0,0.0,0.0,0.0,0.0,0.0,0.0,0.0,0.0,0.0,0.0,0.0,0.0,0.0,0.0,0.0,0.0,0.0,0.0,0.0,0.0,0.0,0.0,0.0,0.0,0.0,0.0,0.0,0.0,0.0,0.0,0.0,0.0,0.0,0.0,0.0,0.0,0.0,0.0,0.0,0.0,0.0,0.0,0.0,0.0,0.0,0.0,0.0,0.0,0.0,0.0,0.0,0.0,0.0,0.0,0.0,0.0,0.0,0.0,0.0,0.0,0.0,0.0,0.0,0.0,0.0,0.0,0.0,0.0,0.0,0.0,0.0,0.0,-0.7536,-0.6505,-0.5864,-0.1496,0.693,0.4687,0.3013,0.0,0.0,0.0,0.0,0.0,0.0,0.0,0.0,0.0,0.0,0.0,0.0,0.0,0.0,0.0,0.0,0.0,0.0,0.0,0.0,0.0,0.0,0.0,0.0,0.0,0.0,0.0,0.0,0.0,0.0,0.0,0.0,0.0,0.0,0.0,0.0,0.0,0.0,0.0,0.0,0.0,0.0,0.0,0.0,0.0,0.0,0.0,0.0,0.0,0.0,0.0,0.0,0.0,0.0,0.0,0.0,0.0,0.0,0.0,0.0,0.0,0.0,0.0,0.0,0.0,0.0,0.0,0.0,0.0,0.0,0.0,0.0,0.0,0.0,0.0,0.0,0.0,0.0,0.0,0.0,0.0,0.0,0.0,0.0,0.0,0.0,0.0,0.0,0.0,0.0,0.0,0.0,0.0,0.0,0.0,0.0,0.0,0.0,0.0,0.0,0.0,0.0,0.0,0.0,0.0,0.0,0.0,0.0,0.0,-0.7342,-0.6692,-0.4686,-0.1048,-0.0,-0.0,0.0,0.0,0.0,0.0,0.0,0.0,0.0,0.0,0.0,0.0,0.0,0.0,0.0,0.0,0.0,0.0,0.0,0.0,0.0,0.0,0.0,0.0,0.0,0.0,0.0,0.0,0.0,0.0,0.0,0.0,0.0,0.0,0.0,0.0,0.0,0.0,0.0,0.0,0.0,0.0,0.0,0.0,0.0,0.0,0.0,0.0,0.0,0.0,0.0,0.0,0.0,0.0,0.0,0.0,0.0,0.0,0.0,0.0,0.0,0.0,0.0,0.0,0.0,0.0,0.0,0.0,0.0,0.0,0.0,0.0,0.0,0.0,0.0,0.0,0.0,0.0,0.0,0.0,0.0,0.0,0.0,0.0,0.0,0.0,0.0,0.0,0.0,0.0,0.0,0.0,0.0,0.0,0.0,0.0,0.0,0.0,0.0,0.0,0.0,0.0,0.0,0.0,0.0,0.0,0.0,0.0,0.0,0.0,0.0,-0.8244,-0.7594,-0.5837,-0.2992,-0.246,-0.237,0.0,0.0,0.0,0.0,0.0,0.0,0.0,0.0,0.0,0.0,0.0,0.0,0.0,0.0,0.0,0.0,0.0,0.0,0.0,0.0,0.0,0.0,0.0,0.0,0.0,0.0,0.0,0.0,0.0,0.0,0.0,0.0,0.0,0.0,0.0,0.0,0.0,0.0,0.0,0.0,0.0,0.0,0.0,0.0,0.0,0.0,0.0,0.0,0.0,0.0,0.0,0.0,0.0,0.0,0.0,0.0,0.0,0.0,0.0,0.0,0.0,0.0,0.0,0.0,0.0,0.0,0.0,0.0,0.0,0.0,0.0,0.0,0.0,0.0,0.0,0.0,0.0,0.0,0.0,0.0,0.0,0.0,0.0,0.0,0.0,0.0,0.0,0.0,0.0,0.0,0.0,0.0,0.0,0.0,0.0,0.0,0.0,0.0,0.0,0.0,0.0,0.0,0.0,0.0,0.0,0.0,0.0,0.0,0.0,-1.0003,-0.9309,-0.741,-0.4349,-0.3313,-0.2859,-0.2941,0.0,0.0,0.0,0.0,0.0,0.0,0.0,0.0,0.0,0.0,0.0,0.0,0.0,0.0,0.0,0.0,0.0,0.0,0.0,0.0,0.0,0.0,0.0,0.0,0.0,0.0,0.0,0.0,0.0,0.0,0.0,0.0,0.0,0.0,0.0,0.0,0.0,0.0,0.0,0.0,0.0,0.0,0.0,0.0,0.0,0.0,0.0,0.0,0.0,0.0,0.0,0.0,0.0,0.0,0.0,0.0,0.0,0.0,0.0,0.0,0.0,0.0,0.0,0.0,0.0,0.0,0.0,0.0,0.0,0.0,0.0,0.0,0.0,0.0,0.0,0.0,0.0,0.0,0.0,0.0,0.0,0.0,0.0,0.0,0.0,0.0,0.0,0.0,0.0,0.0,0.0,0.0,0.0,0.0,0.0,0.0,0.0,0.0,0.0,0.0,0.0,0.0,0.0,0.0,0.0,0.0,0.0,0.0,-1.1118,-1.0458,-0.8405,-0.5167,-0.3688,-0.3265,0.0,0.0,0.0,0.0,0.0,0.0,0.0,0.0,0.0,0.0,0.0,0.0,0.0,0.0,0.0,0.0,0.0,0.0,0.0,0.0,0.0,0.0,0.0,0.0,0.0,0.0,0.0,0.0,0.0,0.0,0.0,0.0,0.0,0.0,0.0,0.0,0.0,0.0,0.0,0.0,0.0,0.0,0.0,0.0,0.0,0.0,0.0,0.0,0.0,0.0,0.0,0.0,0.0,0.0,0.0,0.0,0.0,0.0,0.0,0.0,0.0,0.0,0.0,0.0,0.0,0.0,0.0,0.0,0.0,0.0,0.0,0.0,0.0,0.0,0.0,0.0,0.0,0.0,0.0,0.0,0.0,0.0,0.0,0.0,0.0,0.0,0.0,0.0,0.0,0.0,0.0,0.0,0.0,0.0,0.0,0.0,0.0,0.0,0.0,0.0,0.0,0.0,0.0,0.0,0.0,0.0,0.0,0.0,-1.1929,-1.1509,-1.0856,-0.8813,-0.5384,-0.4142,-0.3668,0.0,0.0,0.0,0.0,0.0,0.0,0.0,0.0,0.0,0.0,0.0,0.0,0.0,0.0,0.0,0.0,0.0,0.0,0.0,0.0,0.0,0.0,0.0,0.0,0.0,0.0,0.0,0.0,0.0,0.0,0.0,0.0,0.0,0.0,0.0,0.0,0.0,0.0,0.0,0.0,0.0,0.0,0.0,0.0,0.0,0.0,0.0,0.0,0.0,0.0,0.0,0.0,0.0,0.0,0.0,0.0,0.0,0.0,0.0,0.0,0.0,0.0,0.0,0.0,0.0,0.0,0.0,0.0,0.0,0.0,0.0,0.0,0.0,0.0,0.0,0.0,0.0,0.0,0.0,0.0,0.0,0.0,0.0,0.0,0.0,0.0,0.0,0.0,0.0,0.0,0.0,0.0,0.0,0.0,0.0,0.0,0.0,0.0,0.0,0.0,0.0,0.0,0.0,0.0,0.0,0.0,0.0,0.0,0.0,-1.2063,0.0,-0.8475,0.0,-0.4801,-0.4118,0.0,0.0,0.0,0.0,0.0,0.0,0.0,0.0,0.0,0.0,0.0,0.0,0.0,0.0,0.0,0.0,0.0,0.0,0.0,0.0,0.0,0.0,0.0,0.0,0.0,0.0,0.0,0.0,0.0,0.0,0.0,0.0,0.0,0.0,0.0,0.0,0.0,0.0,0.0,0.0,0.0,0.0,0.0,0.0,0.0,0.0,0.0,0.0,0.0,0.0,0.0,0.0,0.0,0.0,0.0,0.0,0.0,0.0,0.0,0.0,0.0,0.0,0.0,0.0,0.0,0.0,0.0,0.0,0.0,0.0,0.0,0.0,0.0,0.0,0.0,0.0,0.0,0.0,0.0,0.0,0.0,0.0,0.0,0.0,0.0,0.0,0.0,0.0,0.0,0.0,0.0,0.0,0.0,0.0,0.0,0.0,0.0,0.0,0.0,0.0,0.0,0.0,0.0,0.0,0.0,0.0,0.0,0.0,0.0,-1.2302,-1.0219,-0.7869,-0.5266,-0.462,-0.4005,0.0,0.0,0.0,0.0,0.0,0.0,0.0,0.0,0.0,0.0,0.0,0.0,0.0,0.0,0.0,0.0,0.0,0.0,0.0,0.0,0.0,0.0,0.0,0.0,0.0,0.0,0.0,0.0,0.0,0.0,0.0,0.0,0.0,0.0,0.0,0.0,0.0,0.0,0.0,0.0,0.0,0.0,0.0,0.0,0.0,0.0,0.0,0.0,0.0,0.0,0.0,0.0,0.0,0.0,0.0,0.0,0.0,0.0,0.0,0.0,0.0,0.0,0.0,0.0,0.0,0.0,0.0,0.0,0.0,0.0,0.0,0.0,0.0,0.0,0.0,0.0,0.0,0.0,0.0,0.0,0.0,0.0,0.0,0.0,0.0,0.0,0.0,0.0,0.0,0.0,0.0,0.0,0.0,0.0,0.0,0.0,0.0,0.0,0.0,0.0,0.0,0.0,0.0,0.0,0.0,0.0,0.0,0.0,0.0,0.0,-0.9669,-0.7029,-0.4207,-0.3683,-0.3256,0.0,0.0,0.0,0.0,0.0,0.0,0.0,0.0,0.0,0.0,0.0,0.0,0.0,0.0,0.0,0.0,0.0,0.0,0.0,0.0,0.0,0.0,0.0,0.0,0.0,0.0,0.0,0.0,0.0,0.0,0.0,0.0,0.0,0.0,0.0,0.0,0.0,0.0,0.0,0.0,0.0,0.0,0.0,0.0,0.0,0.0,0.0,0.0,0.0,0.0,0.0,0.0,0.0,0.0,0.0,0.0,0.0,0.0,0.0,0.0,0.0,0.0,0.0,0.0,0.0,0.0,0.0,0.0,0.0,0.0,0.0,0.0,0.0,0.0,0.0,0.0,0.0,0.0,0.0,0.0,0.0,0.0,0.0,0.0,0.0,0.0,0.0,0.0,0.0,0.0,0.0,0.0,0.0,0.0,0.0,0.0,0.0,0.0,0.0,0.0,0.0,0.0,0.0,0.0,0.0,0.0,0.0,0.0,0.0,0.0,-0.8864,-0.6398,-0.4121,-0.2825,-0.2272,-0.2261,0.0,0.0,0.0,0.0,0.0,0.0,0.0,0.0,0.0,0.0,0.0,0.0,0.0,0.0,0.0,0.0,0.0,0.0,0.0,0.0,0.0,0.0,0.0,0.0,0.0,0.0,0.0,0.0,0.0,0.0,0.0,0.0,0.0,0.0,0.0,0.0,0.0,0.0,0.0,0.0,0.0,0.0,0.0,0.0,0.0,0.0,0.0,0.0,0.0,0.0,0.0,0.0,0.0,0.0,0.0,0.0,0.0,0.0,0.0,0.0,0.0,0.0,0.0,0.0,0.0,0.0,0.0,0.0,0.0,0.0,0.0,0.0,0.0,0.0,0.0,0.0,0.0,0.0,0.0,0.0,0.0,0.0,0.0,0.0,0.0,0.0,0.0,0.0,0.0,0.0,0.0,0.0,0.0,0.0,0.0,0.0,0.0,0.0,0.0,0.0,0.0,0.0,0.0,0.0,0.0,0.0,0.0,0.0,0.0,0.0,-0.5487,-0.325,-0.204,-0.154,0.0,0.0,0.0,0.0,0.0,0.0,0.0,0.0,0.0,0.0,0.0,0.0,0.0,0.0,0.0,0.0,0.0,0.0,0.0,0.0,0.0,0.0,0.0,0.0,0.0,0.0,0.0,0.0,0.0,0.0,0.0,0.0,0.0,0.0,0.0,0.0,0.0,0.0,0.0,0.0,0.0,0.0,0.0,0.0,0.0,0.0,0.0,0.0,0.0,0.0,0.0,0.0,0.0,0.0,0.0,0.0,0.0,0.0,0.0,0.0,0.0,0.0,0.0,0.0,0.0,0.0,0.0,0.0,0.0,0.0,0.0,0.0,0.0,0.0,0.0,0.0,0.0,0.0,0.0,0.0,0.0,0.0,0.0,0.0,0.0,0.0,0.0,0.0,0.0,0.0,0.0,0.0,0.0,0.0,0.0,0.0,0.0,0.0,0.0,0.0,0.0,0.0,0.0,0.0,0.0,0.0,0.0,0.0,0.0,0.0,0.0,-0.4405,-0.2301,-0.1427,0.0,-0.1846,0.0,0.0,0.0,0.0,0.0,0.0,0.0,0.0,0.0,0.0,0.0,0.0,0.0,0.0,0.0,0.0,0.0,0.0,0.0,0.0,0.0,0.0,0.0,0.0,0.0,0.0,0.0,0.0,0.0,0.0,0.0,0.0,0.0,0.0,0.0,0.0,0.0,0.0,0.0,0.0,0.0,0.0,0.0,0.0,0.0,0.0,0.0,0.0,0.0,0.0,0.0,0.0,0.0,0.0,0.0,0.0,0.0,0.0,0.0,0.0,0.0,0.0,0.0,0.0,0.0,0.0,0.0,0.0,0.0,0.0,0.0,0.0,0.0,0.0,0.0,0.0,0.0,0.0,0.0,0.0,0.0,0.0,0.0,0.0,0.0,0.0,0.0,0.0,0.0,0.0,0.0,0.0,0.0,0.0,0.0,0.0,0.0,0.0,0.0,0.0,0.0,0.0,0.0,0.0,0.0,0.0,0.0,0.0,0.0,0.0,0.0,0.0,-0.2138,-0.1605,-0.1152,0.0,0.0,0.0,0.0,0.0,0.0,0.0,0.0,0.0,0.0,0.0,0.0,0.0,0.0,0.0,0.0,0.0,0.0,0.0,0.0,0.0,0.0,0.0,0.0,0.0,0.0,0.0,0.0,0.0,0.0,0.0,0.0,0.0,0.0,0.0,0.0,0.0,0.0,0.0,0.0,0.0,0.0,0.0,0.0,0.0,0.0,0.0,0.0,0.0,0.0,0.0,0.0,0.0,0.0,0.0,0.0,0.0,0.0,0.0,0.0,0.0,0.0,0.0,0.0,0.0,0.0,0.0,0.0,0.0,0.0,0.0,0.0,0.0,0.0,0.0,0.0,0.0,0.0,0.0,0.0,0.0,0.0,0.0,0.0,0.0,0.0,0.0,0.0,0.0,0.0,0.0,0.0,0.0,0.0,0.0,0.0,0.0,0.0,0.0,0.0,0.0,0.0,0.0,0.0,0.0,0.0,0.0,0.0,0.0,0.0,-0.3507,-0.3312,-0.2725,-0.2374,-0.2329,0.0,0.0,0.0,0.0,0.0,0.0,0.0,0.0,0.0,0.0,0.0,0.0,0.0,0.0,0.0,0.0,0.0,0.0,0.0,0.0,0.0,0.0,0.0,0.0,0.0,0.0,0.0,0.0,0.0,0.0,0.0,0.0,0.0,0.0,0.0,0.0,0.0,0.0,0.0,0.0,0.0,0.0,0.0,0.0,0.0,0.0,0.0,0.0,0.0,0.0,0.0,0.0,0.0,0.0,0.0,0.0,0.0,0.0,0.0,0.0,0.0,0.0,0.0,0.0,0.0,0.0,0.0,0.0,0.0,0.0,0.0,0.0,0.0,0.0,0.0,0.0,0.0,0.0,0.0,0.0,0.0,0.0,0.0,0.0,0.0,0.0,0.0,0.0,0.0,0.0,0.0,0.0,0.0,0.0,0.0,0.0,0.0,0.0,0.0,0.0,0.0,0.0,0.0,0.0,0.0,0.0,0.0,0.0,0.0,0.0,0.0,0.0,0.0,0.0,-0.4123,0.0,0.0,0.0,0.0,0.0,0.0,0.0,0.0,0.0,0.0,0.0,0.0,0.0,0.0,0.0,0.0,0.0,0.0,0.0,0.0,0.0,0.0,0.0,0.0,0.0,0.0,0.0,0.0,0.0,0.0,0.0,0.0,0.0,0.0,0.0,0.0,0.0,0.0,0.0,0.0,0.0,0.0,0.0,0.0,0.0,0.0,0.0,0.0,0.0,0.0,0.0,0.0,0.0,0.0,0.0,0.0,0.0,0.0,0.0,0.0,0.0,0.0,0.0,0.0,0.0,0.0,0.0,0.0,0.0,0.0,0.0,0.0,0.0,0.0,0.0,0.0,0.0,0.0,0.0,0.0,0.0,0.0,0.0,0.0,0.0,0.0,0.0,0.0,0.0,0.0,0.0,0.0,0.0,0.0,0.0,0.0,0.0,0.0,0.0,0.0,0.0,0.0,0.0,0.0,0.0,0.0,0.0,0.0,0.0,0.0,0.0,0.0,0.0,0.0,0.0,0.0,0.0,0.0,0.0,0.0,0.0,0.0,0.0,0.0,0.0,0.0,0.0,0.0,0.0,0.0,0.0,0.0,0.0,0.0,0.0,0.0,0.0,0.0,0.0,0.0,0.0,0.0,0.0,0.0,0.0,0.0,0.0,0.0,0.0,0.0,0.0,0.0,0.0,0.0,0.0,0.0,0.0,0.0,0.0,0.0,0.0,0.0,0.0,0.0,0.0,0.0,0.0,0.0,0.0,0.0,0.0,0.0,0.0,0.0,0.0,0.0,0.0,0.0,0.0,0.0,0.0,0.0,0.0,0.0,0.0,0.0,0.0,0.0,0.0,0.0,0.0,0.0,0.0,0.0,0.0,0.0,0.0,0.0,0.0,0.0,0.0,0.0,0.0,0.0,0.0,0.0,0.0,0.0,0.0,0.0,0.0,0.0,0.0,0.0,0.0,0.0,0.0,0.0,0.0,0.0,0.0,0.0,0.0,0.0,0.0,0.0,0.0,0.0,0.0,0.0,0.0,0.0,0.0,0.0,0.0,0.0,0.0,0.0,0.0,0.0,0.0,0.0,0.0,0.0,0.0,0.0,0.0,0.0,0.0,0.0,0.0,0.0,0.0,0.0,0.0,0.0,0.0,0.0,0.0,0.0,0.0,0.0,0.0,0.0,0.0,0.0,0.0,0.0,0.0,0.0,0.0,0.0,0.0,0.0,0.0,0.0,0.0,0.0,0.0,0.0,0.0,0.0,0.0,0.0,0.0,0.0,0.0,0.0,0.0,0.0,0.0,0.0,0.0,0.0,0.0,0.0,0.0,0.0,0.0,0.0,0.0,0.0,0.0,0.0,0.0,0.0,0.0,0.0,0.0,0.0,0.0,0.0,0.0,0.0,0.0,0.0,0.0,0.0,0.0,0.0,0.0,0.0,0.0,0.0,0.0,0.0,0.0,0.0,0.0,0.0,0.0,0.0,0.0,0.0,0.0,0.0,0.0,0.0,0.0,0.0,0.0,0.0,0.0,0.0,0.0,0.0,0.0,0.0,0.0,0.0,0.0,0.0,0.0,0.0,0.0,0.0,0.0,0.0,0.0,0.0,0.0,0.0,0.0,0.0,0.0,0.0,0.0,0.0,0.0,0.0,0.0,0.0,0.0,0.0,0.0,0.0,0.0,0.0,0.0,0.0,0.0,0.0,0.0,0.0,0.0,0.0,0.0,0.0,0.0,0.0,0.0,0.0,0.0,0.0,0.0,0.0,0.0,0.0,0.0,0.0,0.0,0.0,0.0,0.0,0.0,0.0,0.0,0.0,0.0,0.0,0.0,0.0,0.0,0.0,0.0,0.0,0.0,0.0,0.0,0.0,0.0,0.0,0.0,0.0,0.0,0.0,0.0,0.0,0.0,0.0,0.0,0.0,0.0,0.0,0.0,0.0,0.0,0.0,0.0,0.0,0.0,0.0,0.0,0.0,0.0,0.0,0.0,0.0,0.0,0.0,0.0,0.0,0.0,0.0,0.0,0.0,0.0,0.0,0.0,0.0,0.0,0.0,0.0,0.0,0.0,0.0,0.0,0.0,0.0,0.0,0.0,0.0,0.0,0.0,0.0,0.0,0.0,0.0,0.0,0.0,0.0,0.0,0.0,0.0,0.0,0.0,0.0,0.0,0.0,0.0,0.0,0.0,0.0,0.0,0.0,0.0,0.0,0.0,0.0,0.0,0.0,0.0,0.0,0.0,0.0,0.0,0.0,0.0,0.0,0.0,0.0,0.0,0.0,0.0,0.0,0.0,0.0,0.0,0.0,0.0,0.0,0.0,0.0,0.0,0.0,0.0,0.0,0.0,0.0,0.0,0.0,0.0,0.0,0.0,0.0,0.0,0.0,0.0,0.0,0.0,0.0,0.0,0.0,0.0,0.0,0.0,0.0,0.0,0.0,0.0,0.0,0.0,0.0,0.0,0.0,0.0,0.0,0.0,0.0,0.0,0.0,0.0,0.0,0.0,0.0,0.0,0.0,0.0,0.0,0.0,0.0,0.0,0.0,0.0,0.0,0.0,0.0,0.0,0.0,0.0,0.0,0.0,0.0,0.0,0.0,0.0,0.0,0.0,0.0,0.0,0.0,0.0,0.0,0.0,0.0,0.0,0.0,0.0,0.0,0.0,0.0,0.0,0.0,0.0,0.0,0.0,0.0,0.0,0.0,0.0,0.0,0.0,0.0,0.0,0.0,0.0,0.0,0.0,0.0,0.0,0.0,0.0,0.0,0.0,0.0,0.0,0.0,0.0,0.0,0.0,0.0,0.0,0.0,0.0,0.0,0.0,0.0,0.0,0.0,0.0,0.0,0.0,0.0,0.0,0.0,0.0,0.0,0.0,0.0,0.0,0.0,0.0,0.0,0.0,0.0,0.0,0.0,0.0,0.0,0.0,0.0,0.0,0.0,0.0,0.0,0.0,0.0,0.0,0.0,0.0,0.0,0.0,0.0,0.0,0.0,0.0,0.0,0.0,0.0,0.0,0.0,0.0,0.0,0.0,0.0,0.0,0.0,0.0,0.0,0.0,0.0,0.0,0.0,0.0,0.0,0.0,0.0,0.0,0.0,0.0,0.0,0.0,0.0,0.0,0.0,0.0,0.0,0.0,0.0,0.0,0.0,0.0,0.0,0.0,0.0,0.0,0.0,0.0,0.0,0.0,0.0,0.0,0.0,0.0,0.0,0.0,0.0,0.0,0.0,0.0,0.0,0.0,0.0,0.0,0.0,0.0,0.0,0.0,0.0,0.0,0.0,0.0,0.0,0.0,0.0,0.0,0.0,0.0,0.0,0.0,0.0,0.0,0.0,0.0,0.0,0.0,0.0,0.0,0.0,0.0,0.0,0.0,0.0,0.0,0.0,0.0,0.0,0.0,0.0,0.0,0.0,0.0,0.0,0.0,0.0,0.0,0.0,0.0,0.0,0.0,0.0,0.0,0.0,0.0,0.0,0.0,0.0,0.0,0.0,0.0,0.0,0.0,0.0,0.0,0.0,0.0,0.0,0.0,0.0,0.0,0.0,0.0,0.0,0.0,0.0,0.0,0.0,0.0,0.0,0.0,0.0,0.0,0.0,0.0,0.0,0.0,0.0,0.0,0.0,0.0,0.0,0.0,0.0,0.0,0.0,0.0,0.0,0.0,0.0,0.0,0.0,0.0,0.0,0.0,0.0,0.0,0.0,0.0,0.0,0.0,0.0,0.0,0.0,0.0,0.0,0.0,0.0,0.0,0.0,0.0,0.0,0.0,0.0,0.0,0.0,0.0,0.0,0.0,0.0,0.0,0.0,0.0,0.0,0.0,0.0,0.0,0.0,0.0,0.0,0.0,0.0,0.0,0.0,0.0,0.0,0.0,0.0,0.0,0.0,0.0,0.0,0.0,0.0,0.0,0.0,0.0,0.0,0.0,0.0,0.0,0.0,0.0,0.0,0.0,0.0,0.0,0.0,0.0,0.0,0.0,0.0,0.0,0.0,0.0,0.0,0.0,0.0,0.0,0.0,0.0,0.0,0.0,0.0,0.0,0.0,0.0,0.0,0.0,0.0,0.0,0.0,0.0,0.0,0.0,0.0,0.0,0.0,0.0,0.0,0.0,0.0,0.0,0.0,0.0,0.0,0.0,0.0,0.0,0.0,0.0,0.0,0.0,0.0,0.0,0.0,0.0,0.0,0.0,0.0,0.0,0.0,0.0,0.0,0.0,0.0,0.0,0.0,0.0,0.0,0.0,0.0,0.0,0.0,0.0,0.0,0.0,0.0,0.0,0.0,0.0,0.0,0.0,0.0,0.0,0.0,0.0,0.0,0.0,0.0,0.0,0.0,0.0,0.0,0.0,0.0,0.0,0.0,0.0]}]]]